GFSSGP_2pvu_pres_024.txt.gz
Presure
137 160 141 135 123 113 136 137 168 142 134 108 109 115 107 110 118 119 119 115 112 121 132 160 150 134 155 167 153 161 164 170 157 173 174 194 267 212 240 300 229 274 285 286 256 284 247 273 240
139 161 136 122 124 125 136 134 112 138 133 110 116 101 117 112 114 113 111 127 136 125 133 137 158 159 158 152 152 157 159 173 178 178 284 275 219 258 284 282 275 229 268 265 264 262 255 249 250
128 149 167 116 147 124 145 130 118 116 130 111 110 116 115 114 116 126 114 140 150 155 150 147 157 152 165 150 146 167 183 182 183 255 185 236 291 264 242 268 266 253 246 256 249 235 251 238 234
141 154 130 128 109 115 124 123 118 123 104 117 108 117 114 117 123 96 147 150 120 116 159 150 135 151 173 175 176 186 222 203 186 318 207 292 265 260 258 291 264 282 278 269 256 255 210 207 275
110 133 133 133 117 118 110 116 114 106 113 108 116 119 171 99 158 151 150 135 127 124 155 153 157 180 184 192 199 234 346 283 320 322 298 297 291 282 269 270 268 268 268 260 260 257 254 250 256
110 129 109 119 120 114 113 140 118 115 106 170 149 138 151 142 131 140 150 123 151 162 173 167 187 203 178 222 278 275 260 261 262 254 257 239 244 261 237 221 231 235 240 267 265 263 253 249 242
108 116 114 128 108 115 111 118 117 114 152 116 115 122 125 149 123 129 143 163 173 164 167 172 187 181 242 252 247 212 236 227 230 223 232 239 228 219 239 226 231 220 230 226 232 236 261 259 245
106 111 119 113 111 118 116 109 105 177 166 116 163 157 176 124 140 170 167 166 166 181 173 209 208 244 230 249 234 229 229 219 210 221 220 208 211 209 211 197 205 206 197 204 223 218 226 233 249
115 136 173 169 137 115 106 123 118 122 137 156 154 145 131 150 177 149 198 177 192 185 253 249 248 247 242 235 230 226 222 219 216 211 209 205 206 204 204 201 205 203 215 209 208 214 214 212 215
121 116 126 133 121 116 124 118 147 162 171 130 135 142 163 185 181 183 172 188 191 252 239 204 238 228 226 219 216 209 206 205 198 199 196 197 198 195 192 194 195 199 190 199 196 196 204 208 204
144 178 119 114 178 127 144 173 170 136 147 134 174 177 174 168 162 180 199 246 245 170 236 223 224 218 207 209 206 208 204 207 199 197 194 194 193 195 191 193 184 186 186 192 193 186 177 192 195
158 109 160 127 124 124 161 131 128 170 172 168 182 158 199 188 218 192 215 247 216 229 221 215 210 202 196 191 190 187 194 185 198 197 196 194 186 181 186 184 185 189 180 183 186 185 179 191 188
111 120 126 128 120 129 145 151 158 172 173 178 191 209 188 189 229 242 175 215 192 214 202 197 194 195 190 191 196 194 185 183 179 183 186 186 180 182 187 183 185 186 179 178 173 186 187 185 191
119 126 129 133 133 164 182 169 187 172 189 194 237 222 229 214 195 229 218 211 206 203 192 195 195 193 187 194 185 186 183 174 180 173 167 156 174 181 179 184 183 184 180 177 182 178 176 187 183
146 130 130 178 158 186 270 194 194 200 217 195 236 233 231 206 223 214 211 206 202 202 195 201 190 181 180 186 182 180 178 171 167 179 182 163 165 164 175 177 175 173 180 173 182 189 191 166 176
200 244 204 219 177 189 232 217 245 245 241 221 234 231 212 217 212 210 204 198 208 213 188 195 191 188 190 179 183 162 141 169 160 160 151 147 135 176 136 182 177 187 132 167 189 186 199 194 191
241 241 257 227 246 216 245 211 220 238 227 228 227 218 214 211 210 205 201 194 206 193 201 209 211 201 188 178 172 171 128 138 139 124 168 124 150 130 179 136 183 186 187 181 184 159 193 164 205
233 162 238 235 139 238 217 244 236 209 228 201 219 213 210 204 207 205 212 193 201 205 185 201 187 181 180 198 173 172 152 152 140 190 161 134 177 164 132 161 186 184 192 196 203 201 200 206 199
227 231 236 220 221 233 219 233 208 225 226 217 217 217 206 204 206 203 196 200 176 181 137 128 135 188 165 180 173 172 158 173 181 188 116 121 191 194 124 121 202 186 196 203 199 204 212 206 205
232 233 224 224 216 220 208 201 218 227 224 220 216 210 206 202 197 196 193 198 201 209 209 119 194 179 194 192 191 187 173 183 184 191 139 133 178 140 203 198 166 183 101 210 209 206 203 194 201
222 172 217 216 211 203 208 224 229 228 222 219 211 209 203 198 190 197 197 196 196 192 184 118 144 178 169 178 185 187 192 188 180 167 186 195 198 187 152 181 179 204 164 208 191 158 208 213 205
135 224 214 211 208 210 222 203 214 203 194 191 182 187 196 199 192 188 186 133 185 184 180 129 146 157 175 171 181 184 189 193 196 176 189 153 150 205 204 203 202 199 195 222 216 224 225 244 225
218 219 214 208 197 222 206 214 187 196 190 181 193 193 192 182 180 177 174 169 179 178 180 176 177 171 164 182 186 195 200 197 195 192 194 200 203 201 204 204 195 216 232 221 220 217 255 271 262
225 218 216 207 200 221 191 186 189 196 192 190 190 190 181 180 169 166 170 177 174 175 172 160 174 174 178 174 184 175 195 199 201 204 207 198 200 205 224 209 143 220 233 253 247 249 264 272 267
234 220 219 215 201 193 187 189 192 191 195 189 187 181 176 182 183 180 178 178 171 177 175 173 180 182 181 191 201 199 194 201 198 203 215 211 212 212 216 216 224 229 260 260 264 269 283 280 278
251 238 223 189 190 193 186 192 188 196 158 180 170 176 179 186 185 181 174 172 179 170 175 182 183 189 197 199 195 195 200 203 210 213 215 217 213 210 221 206 233 247 267 268 282 287 281 287 294
245 240 240 195 194 194 188 184 185 178 179 179 179 185 180 181 180 170 174 172 176 158 179 180 192 193 196 201 197 195 203 197 213 211 210 210 213 220 227 229 256 274 288 301 304 297 305 306 309
204 197 198 198 196 192 175 175 182 184 184 177 174 178 179 170 173 175 184 183 182 179 182 197 195 194 195 196 197 206 177 211 209 209 206 218 218 234 236 253 289 310 316 316 318 317 324 325 325
205 191 184 177 181 184 184 185 186 183 180 182 181 177 174 171 175 123 178 180 188 197 193 123 193 142 129 125 185 133 210 211 205 204 206 228 234 233 253 290 321 325 331 293 293 297 388 401 424
183 179 187 198 190 184 180 184 170 177 177 183 181 175 171 179 183 179 175 203 198 189 190 120 183 126 124 207 177 181 213 213 211 205 231 250 254 268 322 336 331 323 286 431 426 415 402 393 383

GFSSGP_2pvu_pres_027.txt.gz
Presure
155 109 141 124 98 123 154 112 117 130 139 106 171 134 142 104 126 118 116 112 111 128 122 120 126 122 126 114 150 152 162 141 156 165 161 167 197 199 194 237 262 221 228 277 280 295 246 245 265
120 146 144 96 135 144 130 154 135 141 137 125 118 121 114 111 122 109 154 124 101 125 117 122 123 144 134 157 165 157 140 139 170 170 192 177 208 240 228 285 237 269 249 225 247 257 262 256 257
104 112 114 114 139 116 139 133 107 119 112 116 124 118 140 148 116 115 119 118 118 140 122 151 112 154 160 138 131 139 168 173 162 181 240 266 315 300 249 289 275 302 299 295 273 265 257 275 243
99 116 124 140 112 137 148 119 176 103 115 152 111 140 129 119 114 113 126 117 139 168 156 166 130 134 157 130 175 176 164 194 198 212 283 325 321 317 306 300 304 305 300 290 285 281 276 271 266
130 123 124 121 122 114 117 129 131 108 124 113 110 144 125 120 118 114 119 157 124 156 138 142 145 133 160 176 183 163 202 271 248 256 266 258 255 236 259 247 254 247 255 254 251 262 265 272 277
181 122 124 128 112 116 102 129 120 108 116 108 113 114 120 117 115 145 152 124 122 142 157 134 154 140 180 168 180 199 261 253 252 243 235 234 228 229 230 229 222 220 217 215 222 224 225 229 242
129 94 110 103 117 121 120 111 111 117 109 114 112 161 136 129 132 129 121 140 157 125 157 169 169 181 181 183 194 252 181 241 229 232 227 228 224 225 203 213 215 216 206 207 207 222 212 226 224
96 132 130 123 163 151 146 161 166 169 121 118 151 112 113 118 123 124 166 121 158 155 156 169 206 172 202 228 245 203 239 232 226 225 218 216 215 211 205 204 200 203 204 204 207 199 202 199 195
130 127 117 113 123 127 174 174 169 163 166 171 159 152 130 121 166 146 159 152 147 166 163 176 170 201 203 222 238 235 231 219 224 217 213 210 206 203 196 204 201 199 189 194 188 194 196 195 194
136 163 158 130 122 124 126 124 145 161 148 143 127 143 122 148 148 167 154 162 163 158 175 198 210 238 203 233 225 217 214 205 194 202 196 206 206 205 198 190 196 196 191 192 183 186 190 189 184
142 174 129 155 166 109 120 121 170 177 120 118 117 168 135 128 162 176 174 160 179 190 238 188 238 181 212 215 207 195 194 186 195 198 194 189 191 189 185 186 190 188 191 185 186 176 189 187 190
186 145 138 127 126 173 145 178 163 174 168 129 129 125 130 160 168 174 177 257 241 236 236 232 209 206 200 203 193 203 189 193 192 188 179 175 178 173 170 181 181 179 181 181 182 190 183 185 186
154 180 127 180 147 178 151 115 186 159 128 124 130 161 170 182 181 184 194 213 203 230 213 207 213 193 197 194 198 201 189 181 192 190 182 177 169 171 174 159 160 167 172 188 170 180 191 188 187
134 134 189 173 146 131 170 128 147 127 137 179 164 177 187 201 232 208 234 214 229 216 208 211 200 202 195 198 194 192 202 196 193 183 181 173 173 168 157 147 151 158 177 167 178 178 189 192 191
226 144 138 190 190 178 184 130 130 140 151 160 187 210 229 247 239 210 230 224 210 210 212 224 218 213 213 217 207 207 192 188 188 182 176 135 147 161 140 169 193 152 153 129 184 166 188 192 189
124 176 237 186 237 187 178 177 191 247 148 210 194 205 242 232 206 231 221 221 216 216 215 203 210 200 194 196 196 112 186 203 199 195 190 165 135 130 174 191 183 137 178 190 162 193 192 202 204
228 226 173 147 250 223 248 201 218 239 234 227 240 224 229 229 221 222 221 216 217 211 207 202 194 178 186 186 200 119 190 163 153 173 175 183 182 179 169 191 187 162 160 179 146 154 202 187 205
141 150 176 227 232 239 229 230 230 230 237 222 218 234 223 225 222 224 215 205 204 201 202 204 203 207 208 202 197 140 187 189 187 188 176 164 134 182 186 163 136 127 159 161 138 200 202 190 200
237 238 235 234 229 233 230 230 229 235 222 212 228 231 230 225 219 214 211 211 207 204 204 205 199 194 192 184 140 158 142 175 175 180 183 185 196 181 207 206 209 122 200 201 153 196 96 102 206
232 233 227 243 233 223 229 217 224 222 216 230 231 229 220 213 198 195 196 207 209 193 188 183 188 191 186 176 140 164 182 177 175 182 184 191 202 206 205 206 205 90 146 186 206 199 195 205 155
235 230 203 229 225 218 222 176 212 226 214 235 201 200 190 196 203 207 197 191 181 180 176 166 191 180 177 175 183 183 184 190 195 200 205 164 203 201 201 205 205 202 128 207 173 211 206 213 219
231 141 229 221 224 213 203 209 218 215 216 192 144 193 193 196 202 192 185 181 185 182 187 187 184 177 182 186 179 185 184 183 189 192 202 202 200 146 194 212 183 209 199 212 219 218 220 220 217
146 203 229 221 222 211 205 207 209 207 195 189 197 192 197 197 191 188 179 186 187 190 184 181 174 183 178 183 180 171 182 189 194 194 189 192 192 129 195 131 204 209 213 216 171 149 210 217 231
225 229 219 221 217 211 200 205 228 105 191 194 191 193 192 191 185 180 184 184 179 182 177 174 178 173 177 183 178 190 196 187 192 190 180 185 198 203 204 205 215 217 217 220 210 214 228 235 249
242 242 233 227 220 224 204 200 199 197 195 193 189 188 187 181 185 183 177 179 183 169 171 175 179 173 176 185 194 197 185 192 194 194 185 155 142 199 211 223 216 222 224 216 221 236 248 256 261
234 247 243 244 235 232 197 193 193 179 189 188 182 181 185 191 181 173 177 177 177 172 132 173 181 182 202 200 188 183 190 125 119 120 137 127 168 212 223 225 222 225 231 239 247 247 254 264 309
205 254 237 239 234 202 201 203 206 195 178 180 186 184 190 184 180 172 174 176 173 176 179 171 194 198 187 184 192 194 195 185 192 184 214 214 211 223 229 224 217 235 241 254 257 257 306 329 348
208 206 204 199 196 196 191 194 191 191 185 184 187 186 177 182 187 173 172 178 178 179 180 190 197 162 192 158 132 190 193 199 204 214 219 218 227 229 228 235 238 249 258 261 322 345 359 336 297
192 197 194 186 186 184 183 193 188 186 177 181 188 189 184 171 177 172 170 178 166 181 182 194 196 193 192 186 195 194 177 210 215 216 230 225 229 235 250 253 266 278 297 338 346 335 307 441 440
193 192 186 190 186 187 199 194 186 179 193 193 185 170 181 183 175 175 173 181 182 189 187 189 193 194 193 197 202 179 219 224 225 228 237 235 242 249 256 344 339 331 329 340 283 438 426 418 417

GFSSGP_2pvu_pres_030.txt.gz
Presure
132 90 128 129 132 148 144 149 139 128 134 128 152 107 115 124 102 144 149 141 131 121 121 137 126 123 124 121 115 130 132 134 121 156 151 151 142 181 184 209 271 292 295 296 294 283 290 310 261
117 122 120 162 122 115 108 98 136 124 120 126 131 118 131 139 126 128 109 136 131 124 129 116 134 133 124 117 161 133 144 135 148 163 178 166 193 200 280 272 285 296 311 279 269 287 273 281 275
131 102 112 106 109 130 95 124 112 126 113 114 136 144 121 117 140 111 131 115 140 162 132 126 126 114 138 156 125 117 158 157 163 153 171 193 214 290 286 291 252 262 233 247 251 226 290 296 292
122 119 129 128 167 99 157 131 155 158 158 112 103 110 132 165 109 130 160 113 125 113 119 119 143 122 134 125 159 142 158 136 174 171 156 271 269 266 231 229 253 250 238 250 245 248 240 239 265
134 150 153 133 155 121 110 126 120 95 124 114 109 109 140 102 116 114 124 125 122 125 129 142 122 132 139 160 161 162 140 174 162 179 263 248 225 238 239 240 235 229 229 228 227 230 227 228 221
94 132 137 153 158 116 111 107 97 107 112 121 111 140 116 124 126 120 121 125 127 119 171 122 150 146 156 160 154 165 170 170 208 219 223 245 241 232 226 224 219 213 213 215 216 216 216 217 222
145 161 142 167 129 125 157 133 125 122 125 131 150 139 164 113 126 140 124 151 149 157 145 119 121 160 162 163 128 177 173 227 244 224 233 226 205 217 216 209 210 203 205 205 207 205 205 200 205
106 170 108 90 160 148 130 164 130 115 127 157 124 109 131 172 118 112 185 155 124 144 119 125 163 162 153 166 165 174 242 232 219 233 226 223 212 205 195 213 195 208 204 203 183 189 194 191 194
186 152 107 129 176 145 124 115 108 118 119 111 117 157 137 121 160 125 118 166 117 123 156 161 144 160 161 169 206 238 241 238 220 222 212 205 208 207 208 203 202 198 194 198 197 193 193 185 191
152 166 189 177 130 142 132 146 185 180 106 129 127 116 120 118 165 173 148 119 122 165 168 128 161 174 175 201 237 229 213 216 210 198 209 201 199 192 185 183 184 179 188 191 186 190 184 184 182
136 123 108 133 186 184 171 165 139 105 132 164 165 133 143 159 157 123 128 127 164 176 159 167 176 214 215 231 216 206 210 205 207 209 197 198 185 182 185 182 174 178 167 166 181 164 174 184 180
133 146 177 173 134 181 134 127 130 179 178 128 160 167 160 128 150 123 157 161 127 159 179 181 238 225 226 207 215 215 214 202 208 200 192 187 188 186 191 182 174 170 172 169 154 150 167 177 184
100 182 185 173 180 180 181 171 171 131 119 135 140 128 161 124 127 170 177 169 178 176 202 213 223 220 216 211 203 205 206 202 203 206 202 128 199 194 188 179 184 175 163 160 176 169 165 163 159
199 205 183 179 148 168 176 181 176 128 170 137 137 163 180 169 172 174 184 175 188 201 189 226 215 225 212 214 222 221 221 212 198 213 202 127 182 195 202 197 194 140 126 125 175 186 199 181 185
236 192 162 133 184 183 128 122 135 137 125 180 180 208 170 161 170 177 172 182 238 229 227 217 227 202 224 214 208 197 200 190 183 179 186 193 192 143 146 185 185 194 187 166 180 194 193 177 166
264 270 261 208 138 187 161 231 140 229 254 185 191 171 224 201 179 186 231 231 218 219 222 226 217 213 205 205 212 208 214 213 210 206 203 192 194 186 179 177 177 185 197 198 206 193 141 165 175
250 206 240 263 240 178 129 233 252 142 169 246 233 212 225 234 236 221 228 233 183 229 221 218 215 211 212 213 210 201 198 195 194 193 126 178 185 180 179 173 180 183 202 194 174 209 210 212 212
229 232 225 131 220 233 265 162 140 215 219 230 226 224 222 214 229 235 236 231 222 215 203 203 210 213 204 192 179 189 196 182 182 185 183 182 186 172 195 197 194 201 206 203 201 201 125 130 206
249 249 232 227 147 138 139 150 234 233 227 229 237 228 135 243 243 236 197 206 201 201 211 215 193 192 183 177 189 190 182 180 183 184 180 186 185 189 201 205 126 203 203 202 195 202 109 200 120
233 139 137 139 144 186 233 237 227 231 226 221 228 160 241 203 206 204 185 198 209 208 199 195 184 195 196 195 184 184 177 181 185 188 188 189 200 210 194 189 202 199 194 132 198 199 204 211 208
143 146 190 224 235 235 234 233 225 222 200 213 226 215 210 199 201 207 204 204 201 196 193 182 190 187 188 185 179 179 185 191 186 191 198 204 204 199 192 191 195 200 189 201 170 203 206 212 211
222 241 229 233 233 232 224 139 214 217 219 220 212 218 199 197 192 200 200 202 199 192 184 189 182 185 184 179 182 188 188 182 193 201 202 192 193 133 202 198 119 126 195 189 215 217 221 196 195
233 235 234 230 224 141 225 224 215 210 134 211 209 198 195 194 199 192 200 194 190 187 185 178 182 179 179 178 184 182 186 190 198 198 191 192 179 191 134 123 163 134 127 146 219 221 233 234 232
234 232 232 228 227 222 225 216 227 200 195 223 196 194 191 194 189 197 196 190 186 180 185 181 177 183 181 182 183 184 182 182 186 195 184 130 145 187 145 199 203 218 221 219 228 231 239 234 240
244 240 245 245 246 237 229 220 235 219 202 193 198 199 196 191 198 191 188 182 180 181 186 183 176 177 181 183 181 181 185 192 199 162 122 189 185 208 210 214 223 233 233 229 234 234 239 249 249
254 269 208 206 238 247 241 246 247 210 192 209 206 192 192 189 188 191 182 181 184 187 178 183 176 173 179 181 183 198 191 191 191 198 189 187 203 188 222 219 244 241 237 239 233 251 253 263 263
215 208 205 208 202 201 197 212 206 199 200 200 201 195 187 186 178 194 184 182 173 187 174 179 182 180 134 185 189 190 187 201 200 193 202 205 200 236 242 231 237 242 252 253 254 256 265 344 285
201 202 204 204 202 201 201 197 192 185 189 196 199 188 180 185 192 186 179 181 183 152 182 185 154 144 173 187 193 192 186 190 192 210 229 234 227 226 250 250 251 260 264 261 268 295 281 337 313
191 189 188 187 189 189 186 196 194 193 187 184 182 180 191 189 178 171 178 177 173 174 187 101 180 193 194 192 191 199 162 200 216 197 237 232 235 249 262 273 279 360 356 354 296 291 288 283 426
196 194 195 192 196 201 182 184 178 187 181 190 191 197 195 176 172 181 180 93 187 182 124 187 189 184 191 196 198 206 220 221 222 236 244 244 256 267 262 309 291 317 310 328 289 299 434 427 415

GFSSGP_2pvu_pres_033.txt.gz
Presure
121 106 110 107 133 143 124 127 132 123 105 125 129 113 114 112 119 137 116 148 127 113 114 115 147 129 123 133 161 115 118 161 140 126 138 145 159 144 138 180 183 325 320 227 303 295 315 290 294
121 109 134 112 133 118 150 122 102 93 131 110 141 126 116 109 121 119 116 132 125 121 111 133 169 128 130 115 129 120 182 119 118 135 171 159 155 181 170 182 236 228 260 269 274 270 256 289 269
119 125 128 110 163 140 134 120 121 113 155 120 130 140 112 122 124 111 127 125 113 124 166 124 121 112 118 133 156 147 118 125 158 170 159 174 164 171 174 256 226 253 250 234 233 250 231 244 246
123 168 149 102 134 151 141 125 124 132 116 146 96 123 115 110 105 120 116 109 122 140 116 113 116 116 130 141 148 137 122 160 165 146 160 170 167 181 259 254 246 237 239 232 233 232 233 226 228
115 121 106 172 118 154 154 135 130 125 110 99 110 139 142 118 122 132 131 110 132 125 113 146 135 131 162 156 123 128 169 174 151 166 163 176 244 252 230 236 217 222 226 215 218 225 224 222 223
121 128 168 123 186 105 129 135 139 149 108 126 120 134 141 134 122 109 135 154 129 132 122 180 166 142 125 168 143 134 160 172 183 161 177 203 243 230 223 228 217 209 198 210 198 194 199 205 214
133 121 128 109 128 166 169 117 114 133 129 160 129 131 154 115 109 114 126 117 150 117 156 126 160 127 150 127 170 163 171 137 168 177 226 235 235 224 226 204 190 213 211 212 199 204 205 192 192
181 124 123 160 169 155 132 133 129 150 131 127 134 124 110 110 118 176 151 114 119 131 159 131 119 160 152 160 172 158 164 170 184 186 240 231 214 209 197 200 202 191 195 198 203 192 199 192 199
120 138 182 139 174 129 155 126 185 143 130 123 134 109 131 126 141 155 118 143 158 146 121 135 155 131 166 143 165 168 179 180 211 230 210 214 212 212 207 197 196 194 181 181 179 167 180 173 181
185 170 161 131 122 126 184 185 184 128 129 155 186 186 180 135 119 118 155 174 148 122 159 155 155 169 165 156 173 181 185 221 189 209 213 211 210 212 205 194 139 180 183 190 177 179 187 165 167
108 147 187 107 123 133 141 115 177 177 185 146 144 184 159 116 119 147 150 119 126 144 158 160 168 170 182 175 168 183 226 227 203 224 212 210 210 206 204 194 125 200 203 191 181 181 166 173 175
141 126 115 177 174 130 179 128 188 119 154 185 167 133 177 170 174 158 137 126 165 163 163 159 188 171 162 183 170 205 217 220 206 217 215 219 212 221 223 218 212 206 200 199 196 178 192 133 152
173 170 193 189 185 176 153 112 175 181 183 185 187 173 164 170 135 126 141 168 180 164 137 177 159 165 184 181 192 215 213 217 226 207 205 202 194 193 184 189 190 191 186 189 178 187 187 166 131
227 228 206 190 116 198 192 123 189 183 176 146 152 180 133 124 128 172 167 195 179 176 143 194 187 227 209 214 230 234 221 226 207 216 215 213 211 208 205 152 194 188 191 187 179 177 180 182 185
224 221 224 224 222 217 182 183 131 172 181 144 136 129 166 169 179 179 163 183 180 230 243 143 222 229 236 228 224 221 224 231 214 198 193 194 194 195 188 183 147 182 184 181 184 173 172 197 198
226 220 224 220 227 219 220 214 183 190 143 144 187 145 225 157 146 156 173 228 239 181 196 198 236 222 212 186 208 209 223 205 188 184 183 191 184 182 185 190 184 183 184 188 186 208 206 207 207
225 218 220 225 216 211 210 227 285 260 209 148 199 162 170 190 227 230 213 220 216 233 239 232 222 221 216 196 198 202 193 189 190 195 190 187 180 181 186 182 187 192 195 205 206 197 191 199 196
236 234 255 261 252 248 280 238 230 165 181 222 136 230 242 221 221 217 231 234 245 241 220 215 204 206 208 202 193 191 189 197 197 192 187 176 183 189 186 186 194 203 210 200 195 177 198 200 199
224 240 238 239 229 226 225 227 225 241 220 161 211 209 229 229 236 234 244 242 214 215 202 211 201 217 200 200 188 183 189 191 192 185 178 183 192 182 128 192 192 204 199 199 198 197 193 194 208
237 241 240 238 238 236 213 134 142 237 234 233 232 222 218 227 239 231 220 199 215 195 209 194 208 199 200 187 187 186 184 188 183 184 190 187 189 189 192 192 203 207 209 139 193 194 196 158 208
209 216 224 152 181 228 234 236 228 229 235 224 220 195 227 214 236 211 207 204 203 195 202 205 204 191 193 188 183 186 191 188 182 183 191 190 190 195 206 199 188 195 109 194 188 145 156 167 214
224 219 225 234 237 228 222 230 226 229 224 219 210 212 217 221 219 215 200 201 195 199 198 204 184 191 186 188 190 190 188 185 181 191 182 185 187 195 194 192 189 139 176 198 212 225 226 230 220
238 244 235 234 230 230 228 229 235 221 210 219 213 224 228 211 208 202 198 198 199 198 187 193 192 184 183 187 184 187 188 193 189 184 186 195 195 196 171 200 110 204 209 220 218 223 221 214 237
241 246 243 240 237 237 236 242 242 244 227 212 205 215 216 190 203 193 192 193 193 188 189 189 186 191 189 180 186 174 187 184 176 196 201 192 195 198 197 201 203 218 217 222 228 234 235 240 255
244 246 249 244 238 237 248 253 276 267 278 247 204 201 201 204 212 210 200 195 183 176 180 195 191 182 186 180 185 184 189 188 187 190 193 184 200 193 195 204 212 224 228 233 230 235 243 255 261
247 246 210 214 231 211 215 218 210 211 217 225 226 206 198 198 188 192 190 185 181 199 192 180 180 180 182 184 122 183 169 196 195 189 198 202 195 202 211 219 219 234 233 239 247 262 276 282 290
207 210 212 211 209 209 205 202 201 202 204 200 196 188 190 202 201 190 182 197 194 190 183 183 185 180 177 96 190 109 132 199 204 196 195 198 212 223 229 234 243 249 261 272 279 292 288 338 336
204 203 200 198 197 202 202 198 197 192 193 193 195 191 181 189 190 201 195 195 196 189 186 178 184 182 186 153 165 187 180 191 193 190 209 219 232 235 244 250 261 271 278 294 336 344 342 339 334
195 196 193 192 189 189 191 207 212 212 205 187 182 191 184 187 195 191 182 190 177 172 178 184 186 178 184 184 185 185 191 188 203 214 229 234 230 245 255 275 262 284 277 353 354 353 353 352 353
198 197 195 197 201 193 188 190 191 190 189 194 192 191 199 193 205 187 183 180 183 186 187 183 170 182 182 183 192 191 200 212 217 231 230 245 253 269 250 267 289 345 328 324 335 353 441 436 427

GFSSGP_2pvu_pres_036.txt.gz
Presure
127 123 170 126 173 101 131 140 129 114 138 138 90 136 120 122 120 157 103 119 103 146 139 114 113 119 129 121 141 145 133 127 136 142 139 117 177 162 150 134 172 177 190 264 277 279 272 265 300
122 139 120 129 107 178 101 116 139 157 116 111 121 141 151 117 136 111 115 109 123 138 130 128 114 127 130 142 117 145 141 138 167 153 117 151 168 175 171 169 182 177 207 241 247 256 229 251 251
134 156 121 116 115 133 101 154 110 110 114 118 139 133 135 116 136 116 116 134 133 143 121 113 128 122 138 121 138 118 152 141 151 144 139 146 164 171 165 172 178 194 249 236 222 221 222 228 232
180 158 103 164 123 132 155 126 102 129 138 103 137 134 133 127 132 125 126 120 128 119 121 127 141 124 119 123 115 146 127 123 153 160 171 177 170 180 169 177 208 232 235 228 204 196 213 211 211
129 125 137 143 108 116 129 136 116 131 152 149 156 138 143 138 140 131 138 125 125 119 156 121 129 133 151 131 134 130 125 150 151 172 142 170 167 180 168 172 195 216 234 214 215 204 209 203 194
120 128 124 168 148 136 134 113 121 108 144 162 175 141 123 130 130 126 138 182 116 124 121 149 128 173 156 139 141 125 149 168 146 164 165 183 177 164 187 182 220 205 202 216 193 209 210 185 202
175 178 131 116 123 163 121 145 132 162 155 120 182 138 169 128 117 105 136 118 132 119 123 116 165 172 131 158 125 152 159 164 166 163 185 175 166 173 182 219 205 205 217 195 193 193 128 179 176
186 130 118 112 115 128 119 182 179 130 170 182 194 121 129 182 133 174 127 130 116 144 143 141 129 125 130 132 142 158 157 180 177 170 160 183 201 229 204 183 205 205 203 203 193 188 133 182 187
148 207 118 173 119 181 139 126 162 173 167 118 128 182 183 147 143 135 135 140 179 171 129 127 164 164 127 166 169 162 167 174 168 184 183 173 224 212 209 215 213 205 200 200 193 189 195 198 193
156 173 146 186 165 164 143 149 179 118 124 130 173 145 137 111 183 160 185 145 136 172 175 173 141 141 170 164 170 170 166 179 174 207 225 202 216 214 222 226 214 217 210 222 215 206 194 186 192
155 236 201 158 114 171 130 132 121 172 112 187 177 112 129 174 185 178 157 173 172 171 144 124 125 172 172 163 165 170 170 194 212 223 234 225 214 219 205 213 209 204 193 199 186 183 187 182 171
127 230 184 117 119 186 135 104 116 182 187 189 115 110 191 184 176 184 124 179 177 125 129 170 169 164 161 146 171 166 178 230 213 206 235 223 215 203 217 208 213 206 212 213 205 196 188 192 189
222 124 110 139 187 128 134 152 195 184 146 136 185 150 128 164 151 173 182 123 124 176 186 185 156 168 167 172 173 211 218 215 228 225 213 213 215 216 194 199 176 185 185 184 184 184 182 184 186
225 222 214 127 129 218 212 179 193 169 180 188 191 179 179 178 174 173 126 203 192 194 150 169 239 170 167 218 190 211 121 216 210 194 212 218 196 191 182 188 187 187 186 177 183 184 180 182 191
215 226 237 226 220 226 233 228 217 208 196 169 161 176 170 168 173 175 179 216 189 167 158 166 196 187 230 210 211 224 228 215 212 211 207 192 190 185 189 193 190 185 174 183 190 189 189 191 194
220 228 221 225 225 219 220 210 224 227 219 214 209 201 207 151 204 133 219 134 172 251 214 199 220 245 178 210 220 215 206 216 217 205 195 187 190 192 194 191 186 176 185 189 181 190 189 190 205
209 218 216 208 217 208 218 231 209 208 217 221 209 209 209 220 215 212 202 253 213 178 200 220 238 236 228 214 212 220 203 203 208 199 193 186 186 184 190 181 184 187 187 190 184 195 204 196 190
209 208 214 206 211 208 215 214 214 213 216 214 211 219 243 133 240 223 248 219 219 225 213 240 221 222 207 208 196 204 198 201 195 191 184 188 188 190 182 184 178 185 116 164 184 196 191 189 186
241 239 239 247 247 238 244 259 258 273 240 248 244 134 250 219 239 215 217 228 222 224 239 225 220 196 211 191 201 198 205 196 189 193 188 185 190 192 184 185 187 190 190 195 195 184 196 195 197
232 245 249 238 237 240 240 232 234 204 134 159 223 226 219 216 229 225 226 222 221 231 224 219 195 209 201 197 196 204 185 193 189 187 191 188 189 177 188 197 195 195 215 196 194 205 200 147 124
233 233 233 235 188 232 228 225 222 218 209 224 224 227 230 231 224 218 214 215 212 224 210 202 206 199 201 196 187 188 192 191 194 194 191 180 191 197 194 199 203 201 193 202 199 189 194 200 199
224 219 218 221 231 227 221 235 231 228 222 216 221 232 231 220 219 225 222 219 222 228 210 197 191 194 195 187 190 181 196 198 184 188 186 194 193 195 202 186 196 202 212 206 203 210 219 227 224
144 157 216 215 207 202 216 217 241 228 222 218 220 229 229 224 232 237 215 211 209 196 204 204 203 194 191 188 193 202 184 186 185 190 187 195 198 194 194 201 204 200 205 215 223 226 228 230 221
223 219 223 216 234 185 252 253 250 260 252 249 237 215 213 216 203 214 204 205 204 208 198 195 193 187 185 195 193 187 182 179 190 190 107 109 125 193 201 194 204 213 215 222 220 233 232 229 239
252 253 258 269 274 279 237 235 229 226 236 233 234 235 233 233 226 204 208 200 189 197 200 194 188 191 192 196 196 178 179 173 187 182 159 179 195 199 193 200 209 216 222 225 238 249 244 243 263
243 232 221 212 213 203 212 218 217 217 215 208 203 200 201 202 201 197 191 183 195 187 179 186 192 191 189 178 185 192 196 187 179 186 193 200 201 192 199 209 217 226 236 244 248 232 258 272 283
207 210 208 213 214 211 207 207 201 200 200 199 196 195 191 188 192 195 181 186 182 185 183 195 186 182 185 189 189 193 184 181 147 195 195 196 205 199 217 220 234 240 245 239 268 277 287 300 301
213 204 200 199 196 203 199 194 194 192 197 206 208 206 206 206 195 192 190 194 211 217 211 180 181 191 190 189 186 182 185 193 192 201 202 204 203 219 237 248 264 246 263 270 284 313 317 347 419
198 201 200 196 198 197 199 208 204 98 200 199 205 210 215 214 216 216 210 207 198 190 179 184 187 182 182 184 181 188 190 202 198 205 213 218 227 249 250 251 246 256 268 278 346 429 448 442 437
202 203 200 197 200 199 195 194 198 197 194 202 199 197 208 212 201 202 210 206 177 179 191 185 177 183 184 177 179 196 198 194 197 226 226 225 245 250 270 267 267 271 280 444 444 437 427 420 413

GFSSGP_2pvu_pres_039.txt.gz
Presure
120 122 124 126 97 137 96 102 106 161 156 103 133 126 131 89 138 149 153 130 120 132 112 141 125 134 130 133 129 117 119 119 117 123 144 119 151 121 132 153 151 142 146 174 180 195 242 245 234
110 183 128 122 151 146 96 101 124 101 106 149 153 138 128 118 122 150 126 113 148 120 147 129 142 137 127 115 130 131 117 142 134 158 124 116 119 144 164 182 176 181 174 187 188 242 230 225 228
95 127 144 103 162 123 177 115 163 125 99 154 162 156 127 174 139 166 142 110 127 137 120 128 115 125 113 138 124 117 140 122 160 126 131 126 129 153 168 180 160 195 175 185 225 219 199 220 211
142 124 144 185 184 128 117 110 94 166 135 113 135 121 150 120 134 100 118 122 123 123 132 125 123 121 138 164 122 117 140 141 143 122 129 126 188 166 159 174 127 172 183 233 216 217 220 220 201
131 148 118 152 167 124 122 173 138 117 145 126 133 140 107 126 119 123 146 150 158 132 114 107 130 132 124 121 120 189 157 144 180 126 152 190 173 177 175 199 181 181 219 219 216 212 208 203 196
121 185 132 181 155 174 130 135 144 123 126 165 170 145 124 164 123 117 147 170 143 105 169 194 175 114 143 180 143 147 135 176 165 126 186 174 185 190 196 173 172 236 215 218 209 211 210 202 201
130 145 169 119 178 171 137 158 122 112 118 160 119 134 147 118 122 162 161 170 179 168 183 132 163 174 170 134 172 157 178 128 143 183 171 179 164 172 173 188 220 225 210 213 206 205 205 204 202
220 113 183 152 177 185 143 109 115 118 111 114 143 124 120 134 119 133 120 126 132 146 171 178 139 174 183 128 176 169 127 174 181 197 187 153 182 166 206 241 217 223 225 206 215 214 214 214 212
153 125 142 133 195 175 166 146 115 138 111 127 185 130 166 160 115 127 174 160 111 126 128 184 181 174 175 175 122 135 183 193 182 182 189 173 168 189 236 216 227 223 213 215 211 206 205 196 199
228 119 170 208 179 165 110 117 116 118 120 122 184 146 103 180 170 130 145 115 131 158 181 184 190 173 147 128 174 186 199 175 161 170 172 210 186 226 224 230 224 217 217 216 215 217 215 220 214
230 256 211 233 190 236 137 129 105 115 190 176 169 165 121 175 160 181 132 178 136 144 119 171 175 124 166 178 198 176 177 166 197 227 194 185 205 183 229 221 217 217 196 194 183 194 194 190 183
222 224 245 247 210 133 117 137 111 119 119 132 181 126 179 175 191 134 190 177 130 186 144 174 141 179 176 171 174 186 187 223 193 215 199 205 230 211 212 218 202 192 188 191 189 195 191 180 177
224 228 228 223 228 226 210 126 121 128 103 140 193 167 185 185 190 189 183 189 181 174 176 170 171 200 181 193 194 199 218 197 189 226 174 240 219 222 207 210 195 194 193 190 192 190 183 177 184
193 194 192 156 162 130 191 220 111 178 225 197 192 190 194 196 185 184 183 186 173 175 173 184 187 164 195 227 235 235 232 198 221 215 202 212 213 195 207 202 195 192 190 188 184 179 174 180 182
225 213 214 220 228 229 220 223 219 227 237 239 180 186 187 188 196 195 187 182 182 181 177 175 185 169 188 227 218 203 201 236 226 210 213 220 204 211 200 193 192 178 189 181 183 175 184 173 182
210 149 215 208 210 211 213 210 232 202 206 198 193 191 185 213 212 207 201 198 200 157 184 214 179 236 221 206 237 221 241 228 222 211 196 197 196 203 190 184 191 193 186 188 191 183 184 190 191
210 206 210 208 207 213 225 209 209 221 214 211 211 209 209 211 208 203 196 209 211 253 252 243 246 216 220 212 223 217 217 236 203 207 200 198 203 200 185 190 192 194 190 193 180 185 190 193 194
146 143 159 213 139 220 213 215 216 219 202 209 211 208 213 208 216 210 212 251 237 232 223 214 208 229 225 213 205 210 228 196 203 196 194 193 185 184 191 194 192 187 184 184 192 195 192 192 189
124 126 161 214 213 210 206 205 207 216 205 203 202 204 236 227 225 230 227 230 222 222 215 215 209 208 205 221 213 213 198 202 185 192 190 184 185 185 195 198 184 185 189 188 188 191 188 186 186
149 231 237 236 230 228 213 207 211 233 246 239 232 253 231 227 227 223 222 219 214 220 216 214 213 219 214 227 228 195 188 183 189 186 186 189 188 200 198 184 187 189 196 179 191 194 196 182 189
223 225 223 225 229 236 234 234 233 234 236 228 231 232 234 230 229 219 218 217 222 220 211 211 212 211 210 185 212 195 192 193 192 192 193 199 204 190 188 186 195 190 185 194 200 200 208 208 202
228 233 235 239 236 234 232 223 159 222 222 226 234 234 216 220 220 225 231 233 223 221 225 221 199 193 195 195 199 206 195 194 194 192 194 183 189 134 190 195 195 198 198 209 210 209 213 206 216
225 227 224 224 225 225 213 221 205 210 219 229 233 235 240 245 254 254 247 246 241 225 208 196 194 192 195 185 197 201 190 196 203 197 193 195 195 196 191 198 194 212 206 195 209 217 224 224 224
219 217 216 215 216 215 232 227 244 242 244 244 241 238 238 232 224 225 221 220 223 217 214 212 198 195 197 191 192 192 194 201 186 194 191 191 183 183 186 197 199 198 206 210 207 220 221 226 221
214 219 265 265 270 268 262 243 231 224 218 213 205 202 207 205 202 198 198 195 195 194 201 198 191 193 193 190 198 204 207 184 183 179 186 178 183 188 196 196 202 206 208 212 219 212 237 255 261
251 252 243 235 225 218 208 205 203 202 208 206 206 201 196 193 192 203 200 202 202 201 198 192 193 193 196 214 208 190 180 175 179 184 185 184 194 193 202 200 201 216 216 230 234 253 260 280 266
233 224 217 209 208 208 210 210 205 198 195 191 190 190 199 196 191 190 191 191 195 204 205 213 215 213 209 199 181 194 194 183 179 181 184 190 196 201 202 210 214 245 243 259 255 273 287 301 299
208 205 209 210 201 200 200 201 201 196 191 203 199 197 196 193 197 196 196 199 211 211 207 205 204 194 179 178 183 185 188 184 181 185 191 197 200 207 230 236 248 245 267 267 265 272 291 383 447
201 197 198 200 204 206 202 200 202 201 196 198 196 198 200 203 206 208 201 210 210 202 189 198 191 190 189 188 189 184 180 186 181 193 195 204 228 237 243 239 251 260 258 264 276 379 471 451 475
199 197 195 201 202 201 203 199 193 201 202 205 201 200 188 197 206 202 194 191 191 212 207 204 199 198 194 183 180 185 184 185 198 207 209 237 237 234 236 250 250 256 266 331 462 486 459 445 421

GFSSGP_2pvu_pres_042.txt.gz
Presure
120 124 123 122 118 114 119 112 135 119 151 104 168 169 138 107 169 118 93 133 112 167 135 142 135 128 132 136 144 142 130 105 132 139 114 117 161 146 151 122 131 131 187 193 195 188 215 193 238
134 144 118 126 117 110 126 113 95 104 108 109 107 139 170 108 152 148 136 140 120 151 123 112 117 141 139 127 142 126 109 134 147 110 117 146 167 156 136 153 146 168 156 199 188 189 131 234 233
124 106 117 115 109 118 109 140 138 111 116 169 118 160 148 121 115 113 142 109 123 111 127 169 130 126 161 136 104 168 147 136 114 128 181 166 140 153 150 125 175 203 186 177 193 182 243 229 230
126 125 121 125 123 109 123 114 118 171 187 162 91 163 143 161 174 121 121 113 179 120 155 119 135 177 105 151 154 182 131 118 182 186 182 133 153 179 127 200 182 193 185 171 209 239 232 229 221
116 115 129 122 112 119 130 140 129 139 167 158 133 130 164 131 137 118 120 122 120 128 118 172 168 181 172 167 172 188 179 177 169 166 149 186 133 124 203 180 187 153 194 127 194 220 228 226 224
117 128 126 124 114 164 134 194 153 126 163 182 117 144 139 122 114 105 141 151 160 152 113 159 147 125 141 149 172 145 185 188 165 168 153 125 144 186 182 175 177 214 216 234 218 233 222 228 221
141 128 122 117 114 170 120 159 122 125 123 177 162 123 117 139 114 141 135 132 184 173 104 120 131 111 108 180 173 160 188 144 175 148 126 195 178 184 202 203 197 194 242 220 243 235 227 220 225
157 139 132 130 199 137 130 116 120 177 171 137 108 106 122 112 114 109 117 119 166 138 121 129 181 161 122 130 137 161 180 171 119 165 182 165 195 189 195 191 243 233 213 232 236 224 229 226 205
133 134 130 113 214 133 167 151 185 143 172 105 177 112 123 121 118 123 167 178 151 171 160 168 177 155 173 180 179 171 170 142 192 171 193 186 179 192 205 201 207 216 237 214 229 213 196 201 196
138 143 139 141 133 198 219 127 210 186 138 108 116 128 150 108 146 163 124 113 166 166 148 142 164 185 180 179 189 178 177 175 171 194 191 178 195 236 205 190 226 230 228 203 213 198 196 198 197
138 136 131 229 130 204 163 211 207 187 186 170 166 117 118 123 126 129 124 163 164 184 175 174 184 173 182 185 167 175 187 195 179 192 183 178 201 205 215 223 209 227 200 203 207 196 200 195 192
242 130 184 215 231 238 240 201 208 203 197 117 116 107 122 123 104 127 173 120 182 187 191 183 183 187 204 177 177 177 176 186 194 182 192 230 205 222 234 226 219 218 196 214 205 194 195 190 183
196 231 232 118 224 223 231 249 214 207 156 190 152 148 111 133 133 191 176 190 187 193 182 166 182 184 173 173 194 177 154 191 166 204 211 213 223 224 230 227 214 199 214 209 202 187 190 191 190
179 237 230 229 234 127 166 120 214 167 154 130 176 192 186 225 204 219 187 186 186 208 183 173 180 190 191 163 133 180 194 202 230 233 222 249 237 239 216 230 199 192 204 201 191 186 184 185 184
239 224 222 221 133 118 217 233 236 234 232 227 229 212 209 205 206 217 215 212 204 193 193 208 179 207 191 190 195 194 219 234 219 226 246 210 221 211 197 194 197 191 191 184 182 183 189 188 181
225 225 214 211 210 211 215 213 205 210 219 213 210 215 204 211 212 216 219 223 217 215 218 209 204 217 213 197 229 224 217 230 226 241 223 234 218 204 190 189 191 192 188 182 185 187 194 182 183
233 177 182 213 218 220 212 214 205 211 217 209 209 206 214 201 206 204 200 195 209 211 207 205 222 236 216 220 254 226 215 215 216 216 208 196 195 193 191 192 192 187 191 191 195 204 186 181 183
219 212 212 211 216 211 212 209 214 208 201 206 208 221 206 208 212 206 202 203 201 204 231 224 221 230 207 222 202 203 214 211 211 210 212 217 221 195 192 192 192 192 189 198 202 188 189 192 190
223 210 209 211 212 124 124 201 205 134 207 209 220 209 208 206 209 207 208 210 230 229 220 223 239 237 249 213 217 203 202 205 203 199 197 196 189 196 196 199 186 189 184 183 192 190 185 178 186
215 238 207 204 205 159 204 203 204 214 215 210 213 213 206 209 227 225 222 221 225 221 224 219 220 225 223 219 213 217 212 204 196 195 193 191 195 187 186 191 190 195 192 189 176 159 177 184 193
236 233 227 183 225 224 227 223 222 227 231 230 232 238 234 230 221 218 219 217 220 216 212 217 226 230 229 214 209 213 224 202 190 188 184 188 187 187 190 191 190 175 182 175 175 187 185 194 193
224 227 226 224 223 222 222 220 223 229 225 235 230 228 222 219 214 230 232 240 243 247 250 248 245 244 243 231 215 206 207 203 195 187 190 182 188 195 203 186 164 181 179 192 193 193 201 199 211
217 219 219 229 228 225 226 224 222 222 217 219 218 225 246 263 254 239 226 214 212 210 204 197 193 193 191 187 187 193 192 188 187 191 191 201 215 192 192 201 181 185 192 193 200 196 205 216 216
227 225 224 223 219 213 211 212 215 215 224 245 247 241 223 214 213 214 209 203 199 193 197 200 210 203 203 200 193 194 194 196 205 214 219 196 182 195 202 189 192 192 195 196 199 212 211 224 233
214 215 214 216 244 267 270 263 254 250 234 219 211 206 209 206 198 196 195 194 202 207 206 203 207 212 215 222 221 217 212 207 203 202 186 194 201 191 192 192 194 196 199 208 213 210 237 239 239
212 209 208 233 248 238 234 226 216 208 208 208 201 196 196 192 194 208 204 202 202 204 209 212 209 208 212 213 208 194 187 198 202 205 203 186 189 193 186 195 196 209 211 206 207 257 271 276 267
255 247 239 229 220 210 209 210 209 198 194 196 199 193 199 203 198 195 199 200 203 201 209 211 206 203 199 193 214 214 211 206 200 182 190 186 188 188 193 195 198 209 232 259 270 263 255 242 293
214 221 219 209 209 205 197 196 202 203 199 197 198 196 196 194 199 201 197 197 193 201 202 199 204 206 200 205 211 207 201 186 184 189 185 184 189 197 232 237 240 260 271 264 274 283 300 323 321
210 209 206 202 198 195 202 202 196 197 199 196 193 197 201 199 191 190 193 188 187 192 197 197 195 193 193 206 207 195 189 182 184 183 187 198 202 228 234 255 254 253 290 303 319 303 470 475 445
203 203 201 198 192 196 194 195 197 196 194 198 199 190 189 192 215 220 223 224 219 188 191 188 192 193 205 198 194 184 184 183 190 199 196 228 231 235 230 254 250 286 306 305 429 478 446 425 411

GFSSGP_2pvu_pres_045.txt.gz
Presure
133 123 131 132 121 117 116 119 127 109 125 88 117 143 100 99 100 139 118 105 130 163 107 114 144 111 126 123 114 123 161 134 129 156 156 166 146 124 122 110 147 137 135 137 175 132 139 186 226
142 133 111 153 123 128 135 123 82 115 109 119 122 129 129 154 101 122 127 105 147 142 149 115 113 164 121 124 154 155 134 138 173 152 136 134 181 197 194 171 193 183 156 124 177 197 204 194 204
123 141 122 110 100 119 96 118 115 114 104 120 119 104 122 142 160 125 154 152 162 129 120 113 157 171 163 126 148 127 179 185 102 180 167 186 130 162 198 188 186 153 127 191 192 137 136 251 232
156 131 133 121 120 124 124 113 103 114 120 118 138 135 132 127 154 141 123 121 121 108 116 171 179 174 174 126 135 150 181 189 163 198 174 140 188 172 190 194 197 126 185 195 195 140 190 244 235
126 133 113 145 144 112 110 121 123 122 120 125 133 127 112 124 127 158 171 168 154 110 105 121 135 135 124 97 176 174 144 137 154 159 186 124 171 192 180 153 200 185 201 182 182 192 247 249 249
141 125 138 111 125 122 102 121 125 112 122 134 130 117 161 148 162 133 157 118 148 131 114 140 136 120 165 180 152 180 128 159 161 182 124 148 190 166 124 193 184 190 161 185 209 232 232 206 210
136 130 120 122 141 133 128 96 124 106 132 116 118 169 170 130 169 169 116 126 179 113 141 179 162 169 123 167 183 170 146 198 179 196 184 171 192 130 186 184 197 188 196 200 233 239 246 230 231
156 139 135 131 135 139 130 142 139 116 138 122 150 185 128 140 154 182 175 118 112 184 159 160 172 179 127 179 161 145 189 176 152 184 180 186 154 198 188 191 194 198 202 223 245 244 236 214 222
142 136 134 131 105 124 128 125 118 148 126 194 119 142 186 176 170 108 118 170 179 156 129 144 148 120 168 174 187 175 172 180 191 180 190 188 184 186 194 204 192 196 229 228 241 236 221 202 208
135 137 153 140 138 130 169 139 133 136 115 160 163 193 188 182 167 114 183 107 139 120 163 116 147 182 163 181 175 182 169 195 186 152 173 175 196 206 202 199 203 229 246 240 222 242 212 196 212
136 152 130 223 144 140 137 127 136 136 170 210 182 194 178 171 174 191 102 183 117 108 118 125 136 155 178 187 174 180 198 135 171 189 199 196 190 228 198 199 228 245 237 242 234 206 204 205 214
112 132 148 140 134 128 140 140 227 114 222 212 201 195 195 191 182 195 192 109 122 158 181 162 161 166 174 168 170 192 177 189 173 181 187 193 196 211 239 225 237 213 223 245 205 197 195 193 197
145 210 220 202 237 186 122 239 238 231 212 215 210 201 205 199 157 195 131 194 177 170 178 173 172 172 184 196 195 206 194 194 184 183 212 212 237 212 225 237 225 225 220 208 205 194 194 193 195
149 117 197 229 236 232 122 230 229 233 237 240 241 228 134 159 173 185 193 188 192 188 189 182 207 202 204 197 192 204 187 192 215 206 225 248 217 236 229 229 225 212 202 197 194 194 198 196 195
142 229 239 233 233 209 230 234 239 225 208 130 212 222 224 226 219 216 218 194 188 196 198 199 208 212 212 201 198 193 196 233 224 240 220 272 231 221 229 224 220 222 228 201 195 198 199 194 184
161 235 232 222 229 230 231 236 225 224 224 227 234 234 239 232 222 215 211 209 207 213 208 215 222 213 198 202 201 197 229 219 246 228 215 218 214 207 216 214 215 211 199 209 203 199 188 185 187
232 233 235 220 222 222 216 216 214 207 208 215 211 210 208 170 209 210 206 203 208 208 200 198 202 195 194 220 233 219 210 211 221 216 203 210 206 211 213 205 194 189 193 193 195 190 192 190 192
230 226 216 217 212 211 211 206 207 203 208 207 203 205 174 215 94 203 202 206 212 203 210 205 211 239 222 262 222 206 238 200 225 223 209 207 206 207 206 197 197 190 192 184 189 192 193 189 186
231 214 211 222 220 204 212 214 210 216 218 208 200 202 203 203 202 203 208 210 204 210 213 242 230 219 229 201 207 205 206 218 234 211 203 206 205 196 202 202 184 187 190 184 189 197 201 197 168
218 214 225 220 217 213 212 208 209 208 207 207 205 203 198 198 203 215 218 242 222 234 214 222 228 221 233 223 222 225 227 222 213 210 214 212 206 189 185 191 186 188 190 195 201 184 181 183 192
225 217 212 214 213 212 208 205 205 204 209 206 203 205 211 223 227 226 222 219 214 229 246 249 246 244 227 224 203 202 195 191 190 194 198 206 198 195 195 193 194 199 205 213 192 181 187 193 195
224 227 228 230 226 218 219 218 218 215 215 235 237 224 219 223 215 217 215 245 239 229 218 211 207 203 202 201 193 200 208 204 199 198 203 205 205 204 201 203 203 196 192 185 190 195 202 194 192
223 221 220 220 219 217 220 224 231 232 229 227 220 217 215 246 249 236 222 212 208 207 202 201 198 193 193 199 189 189 194 193 199 206 206 205 203 200 197 198 206 204 205 204 187 192 194 202 211
214 161 182 218 222 225 223 222 223 218 213 211 224 250 236 224 212 205 205 201 196 192 193 208 206 200 206 207 206 218 216 212 206 198 194 210 214 210 211 206 200 183 188 194 198 203 207 198 212
224 226 221 214 212 212 213 212 238 255 253 233 221 211 207 206 201 195 194 193 201 204 201 204 206 203 198 202 206 205 203 201 197 196 210 221 214 208 202 198 196 199 201 196 208 204 212 217 226
218 219 220 218 212 209 205 240 226 217 207 207 205 199 196 191 193 205 206 201 200 202 200 200 194 202 202 199 195 199 199 200 199 215 206 205 200 195 197 201 199 193 207 200 215 227 236 239 257
212 206 208 211 237 227 215 211 204 204 191 197 199 193 200 204 197 196 193 197 195 197 207 225 229 230 230 229 232 233 222 209 205 199 190 192 192 196 199 195 222 217 218 227 256 271 260 268 283
251 243 232 219 211 203 205 201 193 194 202 200 195 190 193 194 194 197 201 208 206 208 220 225 226 228 229 226 219 209 202 192 189 187 191 189 192 195 199 235 233 228 249 260 267 249 269 294 322
217 214 216 211 200 199 198 194 201 192 194 190 194 197 191 190 188 203 203 202 207 213 220 217 223 218 213 210 199 192 192 187 184 184 190 198 218 206 203 239 239 259 260 251 265 283 309 356 470
212 205 204 204 199 198 192 186 196 193 190 192 189 190 199 200 201 199 201 208 213 229 221 220 206 212 204 194 192 189 184 188 197 211 201 208 247 241 248 259 257 244 240 264 295 296 457 447 427

GFSSGP_2pvu_pres_048.txt.gz
Presure
109 125 134 118 140 132 96 127 121 118 113 105 100 116 109 99 120 122 123 132 140 149 104 98 157 147 120 110 116 115 174 170 125 162 127 176 175 172 129 179 188 130 120 181 193 128 207 203 126
116 117 133 108 121 136 134 121 115 127 122 99 111 84 119 118 104 99 114 136 108 147 131 117 125 139 123 178 160 137 122 159 155 151 119 181 171 108 103 184 184 166 141 186 196 174 127 121 177
126 120 116 121 118 118 106 136 140 130 146 122 110 112 105 125 112 115 114 141 106 161 112 144 152 162 125 128 134 110 186 150 129 184 173 166 176 182 163 207 160 161 148 176 133 124 129 193 206
141 142 135 131 130 110 148 85 122 84 110 112 132 116 136 117 123 129 111 127 112 140 170 137 129 150 112 104 125 164 134 118 124 107 134 186 180 109 163 181 171 188 183 189 191 173 184 193 205
131 139 141 122 121 128 113 122 114 127 121 122 111 129 118 136 121 113 117 127 181 178 143 169 106 153 162 151 115 130 187 125 143 164 168 167 161 189 177 161 181 211 204 198 183 186 187 163 227
121 135 109 136 143 132 132 126 107 125 139 122 121 110 123 114 127 111 126 150 161 141 160 111 145 148 123 108 173 184 143 185 192 139 125 184 178 198 187 195 179 188 180 198 193 180 170 225 230
148 143 148 136 124 133 127 143 116 143 124 129 136 134 124 138 116 133 144 125 167 186 181 175 117 171 102 173 157 170 191 179 126 144 185 185 189 201 167 203 196 186 188 178 186 188 230 229 209
126 100 146 132 141 135 147 139 138 139 136 117 112 116 131 121 117 150 118 155 191 181 181 117 171 164 161 187 126 112 184 129 178 183 173 174 173 193 172 172 190 180 192 198 182 257 249 226 246
144 227 184 143 139 181 125 136 148 135 126 127 138 127 131 129 135 130 160 179 193 160 125 180 103 118 138 103 146 138 123 141 143 148 171 174 174 183 188 187 194 179 197 194 224 233 230 236 233
151 142 149 136 126 129 156 148 139 138 149 137 126 128 134 124 124 148 154 192 188 181 180 184 159 187 179 125 122 126 160 170 173 181 170 179 183 191 174 191 209 192 186 197 237 221 226 219 223
146 119 149 155 261 118 150 144 149 132 145 139 109 132 120 118 142 208 197 193 157 178 178 175 181 179 137 177 189 160 182 175 180 177 208 181 195 203 190 193 248 235 250 230 229 219 230 230 211
262 128 139 149 157 139 143 140 155 139 121 132 110 128 118 123 209 217 203 199 211 183 181 133 179 164 184 184 176 163 183 199 188 187 182 194 201 201 212 217 205 232 241 218 224 217 224 215 210
189 148 141 173 186 157 148 133 150 126 161 129 137 126 206 219 217 210 200 166 192 189 171 184 182 179 174 192 180 183 173 180 186 208 197 214 201 205 205 218 232 234 217 216 219 217 222 222 210
213 173 135 151 139 129 135 145 142 144 237 233 222 150 219 185 213 212 149 202 194 186 185 191 194 191 180 181 184 182 187 193 212 215 198 195 203 220 231 236 246 230 225 236 232 232 208 203 199
244 234 246 176 123 147 193 137 140 137 236 236 133 226 229 222 214 212 205 204 201 234 204 210 183 211 209 193 201 203 212 198 195 198 207 223 230 241 213 209 232 225 231 224 209 225 205 209 190
127 141 149 228 141 223 131 153 159 232 226 219 218 217 218 215 218 214 209 130 203 200 201 204 202 200 202 210 204 195 199 242 218 225 232 221 214 215 220 219 214 216 213 211 207 211 212 194 193
230 187 190 184 230 174 197 218 220 226 225 226 234 224 222 219 213 121 161 205 202 201 204 208 201 198 200 207 208 200 202 212 209 211 217 211 210 213 211 213 215 216 210 190 197 211 193 195 195
232 248 235 230 227 228 233 229 228 229 223 218 219 173 206 151 195 203 201 203 202 207 196 195 201 203 226 214 209 210 199 215 198 212 209 210 212 204 198 205 187 197 213 207 197 195 195 199 199
217 229 217 234 221 226 215 215 207 205 204 205 205 205 207 202 207 207 194 192 196 201 198 201 215 241 226 227 204 208 233 225 214 223 193 197 193 189 195 198 199 195 197 200 204 205 210 211 206
226 223 224 224 215 213 211 205 206 208 179 207 209 203 206 209 202 202 200 204 205 207 221 230 223 224 253 252 240 230 223 211 203 199 195 186 192 195 186 195 199 205 205 202 202 199 195 195 194
220 217 216 217 216 211 207 221 216 221 211 205 204 200 198 201 200 200 205 204 227 217 215 247 233 222 215 211 203 202 200 200 195 191 193 190 202 209 206 203 202 197 197 207 209 208 207 206 205
220 216 218 213 211 209 213 210 211 208 207 206 208 206 216 215 219 228 225 217 206 235 225 215 209 203 201 203 193 192 199 197 194 204 204 199 198 196 197 196 194 194 201 209 207 206 203 200 197
220 218 217 219 221 221 222 225 227 219 217 217 219 218 217 220 220 212 206 226 216 211 205 199 202 199 191 195 195 199 206 206 203 199 203 196 190 194 193 195 195 203 201 195 194 193 194 196 203
220 219 218 221 221 219 216 217 213 215 218 221 220 216 219 241 229 221 211 207 202 200 198 193 201 205 203 205 203 198 189 188 205 206 215 217 223 225 206 200 194 192 193 196 196 194 203 211 216
214 215 213 210 207 211 220 221 217 213 210 209 245 230 219 209 207 199 199 200 190 197 198 199 201 200 195 191 223 234 234 234 234 233 229 208 202 198 194 194 195 191 194 199 215 204 244 253 249
213 213 216 220 218 211 204 207 207 237 230 218 207 206 200 195 200 192 192 200 198 197 195 195 214 212 217 217 225 225 229 226 215 206 200 194 195 196 199 197 197 196 194 238 239 259 258 256 247
216 208 207 204 204 207 205 207 222 212 204 206 196 193 197 190 194 196 192 200 193 207 209 211 212 215 222 253 243 234 236 212 202 196 190 195 193 190 190 192 191 234 249 256 256 254 244 264 248
202 203 208 208 220 232 222 211 208 202 199 194 196 198 192 196 185 194 191 201 203 205 203 206 206 225 234 248 257 219 204 196 191 189 192 193 191 191 190 211 237 255 259 254 240 243 270 283 274
209 216 235 216 219 214 208 202 199 196 192 191 188 191 194 189 197 202 206 204 203 209 208 199 209 214 214 206 201 191 188 185 187 184 189 195 205 207 219 221 261 256 259 243 233 272 268 288 305
238 209 208 208 210 203 199 196 196 188 188 190 194 193 198 202 203 200 200 200 194 205 211 215 215 208 201 197 192 189 181 181 184 195 204 210 218 230 210 263 255 259 242 253 273 279 289 374 334

GFSSGP_2pvu_pres_054.txt.gz
Presure
125 108 132 139 122 127 114 132 124 150 118 92 116 124 133 121 120 135 126 104 122 119 97 90 86 122 154 92 116 124 131 123 119 121 120 159 189 134 125 118 114 113 123 179 162 112 130 144 187
129 125 118 129 120 140 123 139 133 134 127 145 124 148 143 158 105 123 112 125 125 123 128 143 103 106 128 107 123 115 117 125 131 126 124 143 170 121 145 142 123 125 128 117 128 124 151 155 126
118 134 127 132 140 130 139 123 114 126 146 159 112 115 108 115 116 129 120 101 106 129 124 111 124 111 132 116 118 113 125 131 165 128 168 150 169 140 104 180 124 132 113 120 160 182 141 183 230
140 131 126 117 124 125 132 115 129 89 125 111 127 137 117 108 113 109 116 119 103 112 128 126 116 129 102 106 136 108 122 130 141 137 125 137 182 181 162 104 146 104 118 198 122 118 216 186 198
128 129 126 136 125 112 142 124 127 140 107 111 148 131 135 125 136 110 118 115 126 100 132 139 127 152 138 139 103 130 115 115 118 148 135 169 125 184 135 155 110 131 197 184 135 187 207 190 170
131 131 147 131 177 117 129 132 137 116 107 132 135 148 133 118 99 142 118 132 132 114 103 108 103 126 180 132 111 130 124 122 143 127 116 106 187 185 152 138 140 174 208 157 142 131 184 199 186
140 125 145 121 219 144 124 143 118 121 131 122 120 121 141 122 121 123 123 119 131 120 109 131 124 136 159 123 132 119 114 138 137 160 191 194 186 187 204 184 195 192 140 173 156 188 189 174 187
133 125 141 147 145 128 221 118 125 131 134 118 150 129 120 136 122 142 135 146 120 129 133 140 139 150 127 118 103 129 127 179 142 216 180 181 195 181 176 134 190 174 190 185 188 175 176 185 181
159 122 180 141 143 106 128 122 130 150 153 133 136 103 125 137 131 131 137 145 135 141 214 117 155 133 122 140 137 126 168 171 162 182 200 201 192 194 191 195 192 188 182 177 186 189 183 190 189
119 144 127 130 138 129 141 127 138 165 133 123 110 111 132 129 133 123 127 133 130 133 130 131 124 115 124 132 120 147 171 187 197 191 187 181 185 184 184 201 185 180 188 188 174 182 193 195 193
116 150 118 155 133 245 141 150 160 143 139 134 144 124 126 127 136 139 132 131 140 126 136 131 116 127 124 124 135 134 130 205 198 134 207 191 190 187 195 178 189 189 184 185 207 195 203 195 201
141 142 139 135 160 277 144 155 203 120 147 137 149 140 137 139 132 127 115 236 133 127 138 127 124 127 128 188 188 209 203 188 191 198 188 197 188 185 185 188 180 178 183 191 197 196 195 242 250
127 149 128 188 155 234 147 147 150 125 145 129 134 111 160 242 202 123 124 136 135 139 137 188 173 125 120 133 199 188 196 185 189 192 185 189 186 183 186 184 186 184 202 198 193 231 244 251 237
180 151 253 147 154 138 145 141 150 152 125 136 138 172 222 140 175 166 199 135 133 133 129 126 182 133 174 196 196 196 190 201 196 186 183 188 184 192 184 194 199 195 190 224 214 227 234 221 213
125 133 256 167 143 148 142 133 133 135 147 251 160 157 238 143 137 133 129 135 124 128 126 119 132 211 207 205 208 206 202 189 186 190 205 210 194 193 193 195 188 235 231 227 221 227 207 221 212
222 136 212 225 142 145 163 208 238 252 146 203 136 129 138 156 135 128 125 126 125 131 195 148 207 209 206 204 205 213 204 200 192 193 196 193 195 208 209 206 232 222 223 221 215 205 210 211 203
190 184 239 243 240 241 149 233 230 174 234 177 172 173 151 134 131 130 132 169 216 216 213 209 212 202 202 203 201 201 198 195 194 191 188 190 199 220 234 228 223 230 225 201 207 205 206 206 200
135 136 234 194 236 235 222 138 135 228 129 132 201 201 160 137 158 135 220 217 211 216 219 209 205 202 201 199 192 196 196 192 188 191 188 216 213 240 229 219 213 199 200 200 202 205 205 191 193
237 143 138 239 133 135 134 158 138 131 134 142 138 208 179 159 212 220 216 212 217 214 202 200 194 189 187 189 190 194 188 193 207 221 220 228 221 212 203 198 201 196 204 205 203 192 197 211 233
208 226 206 233 229 216 218 224 156 212 203 212 209 210 204 207 205 198 210 201 198 200 203 200 194 193 191 203 204 202 207 235 229 218 212 206 197 199 200 199 204 213 232 232 229 231 230 232 223
228 230 227 217 217 225 212 212 209 215 210 217 216 211 206 200 198 204 198 190 201 189 189 191 200 203 200 218 212 233 225 216 209 201 197 205 205 227 257 259 260 270 270 246 239 225 214 210 201
223 221 219 227 227 223 219 215 211 217 216 204 208 203 201 195 207 197 195 198 195 201 203 195 208 222 221 208 222 211 208 200 205 212 203 218 223 225 226 227 227 230 223 216 214 203 200 195 193
223 222 230 223 224 218 223 229 216 210 208 210 202 200 202 201 203 200 203 201 202 205 218 220 219 223 220 209 208 201 213 200 218 228 224 230 224 221 210 206 205 206 204 201 196 195 196 193 199
209 213 213 209 212 214 214 205 202 205 197 199 196 196 201 203 206 210 216 219 216 215 230 223 215 204 200 203 204 203 221 219 214 207 206 210 206 207 211 217 211 203 200 201 195 196 192 194 190
213 213 208 208 212 209 206 205 215 198 205 201 214 215 217 216 212 217 215 223 227 219 213 205 194 200 202 206 213 220 213 204 200 199 201 204 219 213 206 194 216 223 221 207 204 197 198 195 200
207 209 210 209 209 211 211 211 206 209 209 209 200 209 217 213 209 220 226 213 209 204 197 203 200 211 214 211 216 203 197 194 196 203 197 193 192 209 226 230 232 215 218 209 201 203 201 222 222
208 215 215 215 216 211 215 211 209 203 207 216 212 204 210 209 219 212 209 198 204 202 200 197 207 208 205 204 201 201 194 200 194 186 193 205 208 206 223 226 217 215 208 203 211 219 214 226 239
217 210 210 206 209 207 204 209 214 215 209 205 221 217 217 209 209 200 210 202 199 199 199 205 204 202 184 202 199 192 190 187 194 199 199 201 202 211 221 236 217 205 206 211 210 212 224 232 251
207 208 204 207 210 215 216 211 209 208 216 218 216 210 204 199 210 202 197 199 199 209 202 201 194 198 190 193 200 191 191 191 185 195 202 202 211 213 236 236 212 205 211 220 215 227 243 252 271
209 215 223 216 214 211 211 212 204 232 220 213 204 201 199 195 200 199 199 199 208 202 197 198 192 194 193 190 199 187 194 178 177 192 202 206 216 239 235 211 204 205 224 226 229 238 251 265 243

GFSSGP_2pvu_pres_057.txt.gz
Presure
168 129 163 134 125 132 115 132 138 133 121 92 126 127 134 101 127 120 104 130 126 123 134 140 116 101 129 96 127 147 134 121 114 127 125 116 116 127 130 144 127 149 144 167 122 123 132 116 108
134 191 165 127 136 137 123 142 122 117 138 109 131 132 124 82 152 138 127 119 137 122 119 110 116 126 109 135 106 98 125 131 113 119 107 114 124 127 130 138 142 133 130 161 158 118 152 148 130
121 147 154 127 157 142 143 151 141 131 122 133 119 127 137 132 115 113 123 145 130 133 126 104 134 125 122 119 135 128 108 125 117 132 123 112 114 134 125 133 150 153 146 182 202 212 104 159 211
134 111 157 214 104 127 154 123 129 131 141 98 140 112 122 146 112 142 107 94 133 124 119 124 103 140 132 133 134 135 122 132 148 108 107 125 131 126 146 133 144 121 180 200 196 215 236 182 186
129 141 148 142 147 122 215 97 116 96 100 128 129 109 136 135 118 122 128 105 123 128 138 128 125 112 107 115 110 118 117 119 129 119 120 130 105 110 134 150 171 180 162 211 164 154 212 198 206
139 152 166 134 158 137 128 102 120 125 128 109 149 138 142 151 143 131 120 149 125 125 139 133 137 133 108 109 109 122 156 116 124 120 124 111 113 131 195 142 179 184 195 198 199 202 183 197 204
149 143 151 142 159 149 128 124 87 132 126 134 137 129 144 113 135 139 141 134 147 108 114 128 128 131 129 120 128 125 151 128 125 117 123 130 123 145 115 170 184 193 197 203 206 192 183 200 198
122 167 148 152 179 127 106 113 109 128 149 144 134 101 134 140 148 141 163 98 111 119 135 142 152 144 126 141 131 148 126 119 103 133 122 137 131 126 116 182 194 174 197 171 128 192 196 197 191
153 148 231 157 149 142 130 131 140 135 151 141 153 141 125 149 155 133 124 146 131 126 135 191 126 131 145 133 149 138 110 129 126 121 125 128 133 182 152 186 191 212 189 199 179 196 185 190 183
109 260 118 158 142 133 105 130 132 135 118 180 150 139 135 119 124 139 123 131 115 141 132 134 145 135 134 130 128 135 123 128 141 125 124 131 200 185 188 180 196 190 196 206 192 183 185 186 190
121 151 109 197 138 136 141 127 138 130 144 142 134 138 135 127 124 147 137 132 138 116 134 138 122 127 127 127 177 190 198 128 143 135 139 131 181 183 203 190 191 188 192 186 181 188 187 183 185
242 152 142 146 157 138 113 117 133 111 131 200 142 138 116 225 133 132 130 141 143 155 137 143 118 134 129 129 121 192 127 130 117 135 214 189 189 203 132 196 195 191 192 185 183 189 185 191 195
174 212 136 128 111 129 136 121 135 147 148 125 141 136 127 126 129 134 121 110 141 135 136 187 245 234 137 126 129 122 128 138 161 198 193 188 187 182 190 191 187 180 186 185 192 202 199 194 203
118 156 140 181 141 134 137 142 233 113 198 174 147 143 145 205 189 121 118 116 173 135 162 190 130 120 127 126 121 133 128 200 198 195 193 192 196 188 196 189 192 194 199 198 187 193 205 220 235
227 149 129 129 136 130 140 236 133 130 223 160 124 139 145 126 144 200 125 135 207 133 198 131 128 128 129 132 130 198 201 207 205 206 216 199 198 203 195 199 195 193 198 195 190 218 241 212 222
234 238 137 121 117 214 139 145 141 137 152 200 127 132 139 127 166 236 184 140 166 130 135 132 133 133 133 201 234 221 165 205 209 202 201 199 198 191 187 197 193 189 196 203 236 224 223 210 206
237 186 130 121 145 127 141 144 141 202 136 137 144 182 187 184 135 123 125 135 140 151 158 134 163 208 215 219 215 214 210 200 195 191 185 199 200 195 185 195 195 217 234 225 214 205 206 207 205
245 162 169 203 141 134 140 243 140 143 177 226 133 192 229 229 230 124 129 131 186 133 135 221 219 212 216 214 207 199 198 197 197 195 192 184 186 192 203 229 227 218 207 200 204 200 236 248 264
234 233 228 232 125 154 144 231 141 143 225 219 134 129 133 225 130 136 136 135 214 215 217 229 208 205 199 204 194 198 191 184 192 192 191 194 217 238 224 216 202 200 202 210 222 227 225 231 224
237 232 232 181 135 135 231 228 134 201 134 215 135 234 217 212 220 211 225 203 215 203 201 202 198 196 197 200 203 200 196 196 193 196 213 235 222 211 201 201 208 223 219 216 216 219 224 227 218
241 234 230 233 229 224 202 142 176 221 217 211 213 204 211 205 205 202 197 203 197 205 202 199 195 187 188 188 185 190 193 200 222 231 218 205 200 207 225 222 220 207 221 221 215 219 209 209 216
234 231 224 160 230 223 215 213 222 221 213 202 195 199 204 213 202 201 203 199 198 196 186 189 194 200 202 205 206 205 227 226 219 199 197 225 223 217 213 207 206 202 199 203 205 198 236 237 234
226 222 217 221 225 224 223 222 222 218 216 207 207 212 198 202 203 204 199 198 190 195 210 209 209 207 204 209 228 228 216 197 198 204 212 214 209 204 201 196 199 194 192 190 211 215 227 233 223
224 210 218 219 216 223 229 223 211 222 221 216 219 220 215 208 198 203 209 210 201 204 205 213 226 223 223 221 213 200 193 211 213 223 207 209 207 198 196 193 188 194 198 200 215 220 250 245 234
217 213 212 216 218 220 211 214 209 208 210 206 211 209 204 214 202 210 215 216 220 221 219 215 230 213 206 204 190 196 218 214 225 209 212 203 200 195 193 193 188 184 210 211 230 255 237 220 215
220 219 214 216 211 206 209 211 206 207 207 201 210 210 212 216 209 206 219 217 212 229 226 213 198 202 192 200 202 217 211 206 199 198 196 206 199 192 195 192 176 190 219 226 241 225 214 209 213
213 217 221 216 214 214 214 218 213 210 211 211 210 211 203 209 218 207 232 229 218 208 202 199 200 195 199 217 213 208 202 204 199 195 191 202 198 188 190 197 185 219 222 231 214 208 208 221 224
215 218 209 211 216 215 216 213 212 217 214 206 208 211 215 209 212 218 216 206 200 198 203 198 197 201 212 205 204 201 190 193 192 184 190 197 198 197 198 188 214 229 223 206 209 216 219 228 242
215 218 219 212 210 202 211 204 205 211 220 217 211 209 206 226 220 210 202 193 194 196 196 200 210 211 205 201 198 197 188 199 197 190 196 191 195 195 190 212 242 221 202 211 213 215 232 246 249
205 206 206 205 207 204 211 216 215 216 205 209 201 210 227 218 207 201 200 191 194 196 193 202 203 206 204 203 195 195 184 192 193 191 184 194 195 206 214 240 219 202 210 207 215 228 246 247 266

GFSSGP_2pvu_pres_060.txt.gz
Presure
151 137 126 151 142 132 129 188 132 108 135 119 130 114 111 141 128 131 135 127 95 109 110 115 120 134 133 128 109 133 117 114 122 141 120 118 104 107 137 119 120 111 120 118 110 104 134 141 116
120 125 120 111 113 138 129 144 140 149 134 131 116 120 125 133 137 135 135 116 133 140 130 132 119 131 131 104 99 106 106 106 108 120 121 107 141 107 142 128 104 128 131 132 136 134 132 156 147
108 124 125 133 161 140 143 154 225 133 134 134 120 118 117 129 98 125 121 145 103 120 133 154 127 135 96 112 131 124 118 138 132 129 123 129 141 140 110 118 111 106 118 109 114 142 134 185 149
136 139 144 146 158 117 148 128 155 123 133 128 136 129 87 132 107 133 141 107 110 133 118 122 100 124 130 109 153 104 122 125 128 121 121 114 140 140 134 143 120 121 113 116 169 128 185 178 190
225 161 137 197 156 139 141 189 150 104 119 130 134 127 145 136 127 130 134 136 133 128 139 136 108 110 134 128 133 137 136 130 109 107 106 110 135 148 117 119 106 123 135 135 135 161 148 218 194
275 148 131 188 146 133 132 163 134 190 135 120 141 114 77 113 124 108 131 108 93 137 143 146 126 155 151 165 128 131 144 126 109 107 146 116 131 128 146 115 123 114 160 126 137 163 207 185 192
249 139 143 148 155 118 126 120 143 135 118 112 131 127 141 136 128 124 131 140 143 117 140 145 153 145 101 133 134 137 150 133 157 135 103 135 124 106 127 138 108 124 196 139 192 200 185 171 207
129 237 118 237 133 151 192 129 148 129 141 133 139 116 121 147 124 145 145 153 110 126 138 86 107 147 142 145 142 131 114 146 163 139 137 133 173 126 126 138 130 142 134 193 190 189 187 207 190
269 121 261 133 134 199 127 129 115 140 139 120 127 128 131 130 145 108 124 141 123 146 157 117 111 114 118 128 131 143 143 125 125 125 122 130 134 125 133 189 131 142 195 200 193 189 192 185 192
219 159 135 135 241 195 201 196 164 155 110 135 129 125 224 106 111 132 152 142 114 122 134 138 171 144 140 143 143 142 109 119 145 133 122 128 126 130 119 132 141 196 192 202 147 187 181 193 194
261 234 132 227 255 159 160 164 110 149 147 126 111 122 132 131 145 151 110 111 135 141 119 133 141 148 135 134 138 135 134 140 204 151 139 122 129 142 140 144 193 186 201 145 184 201 189 192 195
259 130 236 141 156 147 159 169 115 118 120 128 130 143 133 140 120 121 109 258 144 140 141 140 124 117 119 135 110 130 133 135 124 127 121 131 127 196 202 192 201 186 193 190 187 188 192 192 188
275 132 166 225 152 131 143 139 164 124 125 124 127 131 134 133 141 152 120 160 133 224 142 128 141 131 126 137 130 139 190 127 124 129 128 167 140 209 194 192 184 188 187 182 198 200 194 193 196
169 254 257 259 163 262 144 147 120 147 122 118 128 127 138 151 132 141 160 117 117 123 132 118 117 120 125 131 135 186 159 128 132 133 143 189 188 176 187 185 191 205 204 202 193 195 191 192 189
121 230 146 240 239 234 126 135 133 152 133 135 136 139 151 142 146 137 124 148 120 121 159 128 129 138 131 132 126 206 138 193 171 196 192 188 183 184 205 206 197 193 192 194 192 195 191 195 192
240 250 223 239 239 250 189 129 117 125 136 133 140 148 123 148 127 167 148 130 134 132 129 147 131 122 124 137 137 134 193 189 194 187 181 206 203 205 209 202 188 193 191 193 188 192 202 226 217
115 237 233 124 192 173 131 138 200 125 131 139 214 124 142 141 140 133 130 134 126 137 139 136 144 207 204 133 135 182 181 197 209 210 212 211 201 192 196 199 199 189 191 192 193 221 208 210 203
242 236 237 244 213 238 127 128 235 132 133 134 160 139 140 130 133 136 138 140 147 217 207 214 128 131 155 185 190 186 190 194 207 208 202 197 195 188 187 183 190 193 193 217 220 205 196 199 207
227 239 245 202 226 157 122 123 133 224 174 132 137 134 131 135 207 193 196 131 127 135 127 200 201 192 186 192 218 233 206 204 200 204 198 195 196 197 201 200 206 241 223 209 195 191 216 212 205
237 242 230 229 234 175 206 228 210 134 187 134 133 132 150 199 202 206 151 159 226 219 224 221 220 218 208 206 203 200 201 193 190 187 185 188 192 191 205 230 219 207 197 190 216 211 203 206 203
231 230 223 230 226 188 228 226 182 199 158 177 241 239 231 183 138 223 207 212 211 214 214 212 216 202 200 196 202 202 199 197 193 197 200 206 223 225 219 207 199 193 219 214 207 206 201 193 195
231 233 224 225 227 223 228 227 222 222 217 209 211 156 217 214 216 213 205 201 199 196 201 199 198 197 197 191 189 183 190 192 193 197 205 225 218 202 194 199 224 212 212 207 199 196 194 195 195
237 232 224 221 225 224 236 223 216 209 214 210 216 212 209 200 199 201 203 211 194 194 197 192 193 201 193 194 206 206 204 206 223 222 214 200 196 187 217 211 199 196 196 198 196 200 193 194 199
232 226 225 225 221 230 234 225 219 217 221 218 217 204 219 209 211 206 213 188 204 207 213 209 210 210 209 206 212 225 213 217 208 198 195 195 198 208 198 195 193 192 189 193 198 201 197 185 207
230 225 217 216 220 215 225 217 214 222 212 207 205 207 201 210 210 222 214 210 209 203 206 215 217 216 214 211 225 212 198 194 192 193 204 210 204 196 191 193 195 194 193 197 196 193 202 229 248
221 217 217 218 216 218 217 214 211 209 212 211 212 212 209 207 202 203 208 205 208 210 215 209 202 222 211 204 196 200 189 194 210 213 207 205 195 188 195 209 198 204 191 197 194 214 252 241 207
221 215 215 214 214 214 212 211 209 207 208 210 209 211 209 211 212 211 206 208 218 205 205 218 208 199 197 195 198 202 202 213 214 208 211 206 198 195 200 195 195 194 195 209 219 234 222 207 205
214 223 219 212 214 219 216 212 216 219 219 219 217 218 213 210 212 213 212 210 209 216 210 200 196 191 194 198 195 203 205 202 205 205 211 212 203 201 195 195 196 205 206 217 232 234 206 210 213
217 224 230 220 215 213 217 208 212 214 210 208 209 215 212 209 207 204 202 221 221 206 198 195 186 190 192 195 200 203 201 204 211 216 198 192 192 195 196 205 209 206 216 230 223 207 210 215 216
203 203 208 206 205 210 212 212 211 214 224 218 204 203 202 210 205 213 220 210 199 200 195 195 195 192 197 199 201 203 206 208 202 190 191 201 195 193 207 204 203 214 218 226 206 215 211 215 245

GFSSGP_2pvu_pres_063.txt.gz
Presure
154 123 290 159 128 121 218 162 146 144 145 150 134 133 137 122 131 123 131 132 137 142 116 137 137 100 117 109 119 123 134 144 132 99 138 100 115 123 140 138 107 126 138 133 102 93 102 103 106
118 335 221 140 138 208 203 163 223 132 157 146 139 146 141 149 127 119 117 117 118 149 136 125 103 121 113 131 111 115 126 127 113 141 112 101 118 109 133 105 127 105 123 124 135 150 112 117 118
168 134 206 125 138 123 243 137 145 114 143 131 143 129 123 115 153 101 95 132 135 137 143 118 107 132 130 143 148 148 117 103 109 125 145 122 148 149 118 128 115 104 133 148 114 123 112 104 120
324 122 293 228 158 100 138 124 125 171 126 148 151 135 176 123 96 126 77 130 125 122 131 132 96 99 134 127 126 114 116 123 100 104 93 117 132 120 109 132 143 102 122 128 142 107 111 120 125
311 110 113 204 153 124 134 118 146 120 122 140 136 87 127 135 123 134 140 139 114 118 126 137 112 144 149 130 139 130 140 142 159 141 117 140 129 118 153 106 113 120 134 137 111 112 126 114 188
147 108 118 193 126 132 129 157 139 133 134 138 140 94 144 149 84 76 122 95 130 122 122 148 139 121 134 133 124 134 140 148 124 146 121 135 116 107 133 129 117 123 143 123 125 131 137 146 146
112 235 177 248 214 224 267 254 226 159 147 133 135 138 165 152 128 147 145 136 138 124 113 126 104 123 110 109 122 134 112 153 140 144 134 119 140 152 125 148 129 116 189 146 128 133 136 156 203
283 285 169 267 230 254 142 213 123 163 150 139 125 136 146 155 114 110 142 126 127 133 141 134 139 136 114 137 153 144 132 116 132 140 151 132 144 142 128 142 137 149 136 128 132 145 191 201 191
290 121 242 200 240 239 164 137 134 145 151 146 124 136 141 150 162 140 111 120 129 137 135 114 123 131 160 152 111 121 112 138 150 144 134 138 116 144 151 134 121 128 149 132 199 159 191 190 189
287 286 267 257 245 193 169 141 136 159 147 137 116 140 153 147 121 142 142 119 122 134 101 119 118 132 117 119 136 136 128 149 136 122 135 119 131 136 136 155 127 157 130 155 191 172 202 198 195
269 279 275 271 127 148 140 142 141 144 139 147 155 132 132 109 148 133 126 115 109 133 142 133 151 116 121 141 142 104 134 118 135 117 122 135 136 126 207 126 131 131 199 152 196 194 183 191 192
268 254 274 261 248 140 154 134 263 229 187 208 212 144 149 138 126 120 126 118 134 134 148 129 119 121 147 134 194 128 126 124 116 129 121 129 129 134 195 133 175 193 199 199 184 176 187 190 209
268 263 222 254 254 252 230 125 173 146 153 181 128 150 121 138 138 122 127 123 191 140 145 110 120 131 154 152 140 145 124 126 110 124 129 128 200 201 134 171 203 202 195 187 188 186 188 204 195
269 261 255 186 163 208 148 171 234 245 194 210 201 148 129 153 125 118 119 125 174 132 137 133 127 111 123 121 121 140 130 129 128 126 128 176 184 161 202 206 183 202 186 191 188 195 203 194 194
237 246 248 252 257 134 139 164 256 141 132 210 131 131 127 133 137 121 128 125 124 117 116 134 134 141 138 192 132 125 130 123 128 128 186 134 132 217 193 191 185 185 186 193 206 197 194 195 192
250 250 253 155 232 251 200 263 172 166 157 138 126 175 214 146 123 132 129 134 112 130 172 135 183 126 126 127 125 139 133 129 192 211 211 185 208 176 191 178 189 187 199 199 203 192 184 193 193
241 238 245 222 249 252 220 187 142 232 120 139 126 113 123 128 129 133 134 126 122 124 133 126 121 122 123 125 167 131 190 218 190 212 198 192 186 188 199 199 212 201 195 195 188 192 191 191 206
236 164 146 242 204 138 206 187 247 127 203 131 126 124 126 134 151 145 143 129 121 179 131 127 133 139 171 193 200 210 220 218 214 213 197 189 191 205 202 203 192 193 177 185 192 192 204 217 206
237 241 226 231 230 135 120 215 225 128 132 135 135 140 214 134 129 124 128 131 135 133 129 127 192 192 192 198 225 209 195 192 194 192 194 196 204 198 194 186 186 193 195 203 196 214 205 195 217
224 224 233 153 236 232 230 163 129 145 166 131 126 129 150 208 132 187 147 193 205 135 206 189 200 186 219 205 201 201 194 195 189 200 201 203 194 188 189 195 194 201 217 221 206 194 217 209 203
218 233 178 222 227 123 176 179 235 221 156 131 172 214 149 135 174 198 172 194 196 166 153 194 208 218 225 220 217 217 218 210 201 202 192 191 192 194 199 214 225 214 205 193 197 208 198 197 199
222 228 222 223 226 222 226 233 225 172 229 224 220 133 144 209 134 201 202 204 199 202 225 222 198 206 212 209 205 207 206 197 192 192 195 198 201 222 223 208 201 194 196 204 203 193 199 191 199
225 230 234 224 226 221 224 225 228 141 231 243 127 168 200 202 201 171 199 196 211 215 211 196 193 194 202 198 200 193 192 194 199 205 214 230 213 210 200 194 195 216 208 204 198 196 187 192 206
233 233 229 222 225 226 229 226 229 225 227 230 231 204 232 230 209 216 219 212 212 202 204 203 204 198 205 204 204 209 205 219 226 219 216 207 198 194 196 213 209 202 201 201 201 201 207 193 195
228 227 223 224 224 222 222 228 232 222 225 216 219 225 230 237 220 213 215 208 205 203 198 203 206 209 205 202 209 222 217 219 212 203 195 195 195 204 203 204 198 199 200 203 198 196 194 195 197
226 227 224 214 215 213 211 214 215 210 214 211 213 211 215 226 216 213 203 215 209 202 206 199 203 203 208 210 206 220 208 202 192 194 191 193 205 203 204 211 215 207 197 192 198 200 193 207 202
218 233 217 209 209 208 207 210 208 218 217 221 215 213 218 215 213 212 209 204 204 207 211 211 206 209 205 225 211 201 194 191 191 190 198 203 207 208 203 199 192 190 203 198 194 208 205 212 215
218 210 214 211 209 209 208 207 207 208 210 208 208 207 204 205 208 214 214 212 209 211 209 206 203 222 212 202 200 193 191 192 191 196 203 204 197 191 192 196 205 202 192 198 206 210 215 221 223
214 211 221 220 219 217 214 210 213 213 219 217 216 211 210 210 205 205 214 213 206 201 202 225 214 204 198 197 192 193 195 194 200 205 201 194 194 193 195 206 200 195 203 204 214 210 217 220 230
218 227 221 220 211 211 210 209 209 206 207 207 202 215 216 220 219 213 205 207 208 226 219 206 194 193 192 193 194 196 196 208 189 184 197 191 190 204 196 195 200 201 219 211 211 215 224 233 247

GFSSGP_2pvu_pres_066.txt.gz
Presure
315 185 110 108 358 132 119 144 261 138 143 135 120 132 173 132 145 107 130 125 86 106 116 127 123 130 136 135 130 110 122 116 117 121 113 131 131 143 106 113 145 90 109 95 103 113 135 142 148
307 308 113 323 154 210 246 138 181 139 215 140 176 158 152 146 140 122 152 139 130 131 132 106 129 129 134 115 127 115 123 137 124 125 133 119 115 103 109 95 114 123 134 105 110 111 143 109 118
172 127 345 233 328 302 141 148 157 132 170 152 132 139 151 147 138 129 126 111 87 122 122 122 120 126 103 138 135 131 118 143 125 110 116 98 120 103 143 119 126 138 103 127 137 121 123 110 129
287 333 100 104 317 294 126 130 113 168 264 142 127 131 99 150 125 152 140 123 126 130 144 132 78 138 141 119 133 142 109 135 125 132 121 137 141 140 107 154 166 121 130 112 131 107 102 140 115
280 324 262 208 100 253 180 261 104 204 136 145 132 121 209 148 148 129 120 147 96 96 122 127 114 117 131 129 127 99 137 113 133 139 130 141 130 119 133 121 140 145 127 102 130 118 117 122 142
271 224 300 307 209 112 118 126 129 229 120 199 257 173 126 122 117 150 97 150 141 138 110 134 118 142 132 135 133 143 100 129 136 122 131 144 128 120 109 133 138 114 129 148 127 119 139 116 117
98 305 292 298 296 176 261 126 247 224 143 199 133 183 151 143 207 158 153 151 145 143 148 116 119 108 120 111 136 132 105 124 112 120 103 105 102 119 145 150 135 132 125 122 122 127 143 152 123
263 295 291 119 273 120 200 115 234 239 237 247 138 128 196 123 125 137 148 132 152 247 103 116 130 131 131 142 121 130 117 151 138 146 120 112 119 148 122 132 134 130 121 125 134 141 143 125 129
248 274 177 122 284 190 122 211 234 155 132 135 135 126 146 143 135 214 143 139 119 131 127 112 125 133 138 120 133 118 130 138 112 127 146 139 139 118 119 136 124 135 122 133 135 143 136 141 147
254 275 295 280 271 235 149 243 270 179 137 183 137 202 133 128 148 126 122 140 116 145 147 121 128 142 124 125 119 148 123 142 122 144 144 137 138 123 121 120 137 127 133 154 132 174 177 158 209
254 266 260 275 229 241 231 163 258 229 131 147 154 223 130 144 129 139 147 107 200 118 138 146 147 134 111 146 135 132 124 115 141 152 119 124 128 123 125 123 131 138 125 199 200 195 204 203 204
257 265 258 267 221 271 236 225 221 119 132 225 140 139 212 146 144 131 139 134 123 130 124 129 149 118 146 131 141 134 144 187 114 127 125 133 119 137 127 139 124 125 221 204 195 202 150 211 197
262 267 252 261 267 263 266 227 128 170 203 131 137 137 201 142 150 146 142 157 120 142 134 134 119 118 129 132 132 109 125 126 121 110 148 132 120 123 129 126 150 218 203 156 202 198 207 189 194
261 270 262 244 264 258 251 216 121 199 168 176 151 192 148 155 147 138 142 127 146 128 118 129 123 118 119 124 114 119 133 181 137 124 122 124 122 176 127 147 205 215 203 204 207 197 169 195 203
270 257 266 255 116 249 251 227 226 249 131 215 207 159 239 150 150 136 117 153 122 121 124 118 114 126 130 119 128 131 161 122 122 114 125 120 127 135 199 193 194 210 228 212 191 194 193 211 200
256 234 170 215 221 257 258 179 241 216 185 172 143 236 219 130 150 118 119 119 130 123 124 120 124 131 125 125 119 118 118 202 127 128 134 207 170 219 192 187 225 214 205 193 190 207 201 191 184
243 239 251 247 243 242 254 190 137 233 188 116 125 213 181 187 126 112 195 191 212 121 123 132 131 122 121 121 127 161 206 127 140 129 120 177 210 217 207 207 190 195 195 195 205 197 180 188 197
242 236 241 242 246 242 159 246 138 161 135 220 119 157 160 138 126 138 126 128 124 125 135 134 126 123 124 129 221 133 119 198 187 184 191 193 211 194 192 201 191 206 193 201 183 187 193 223 221
247 236 238 229 229 236 246 249 241 246 228 132 148 147 131 141 123 127 121 122 129 139 125 126 127 131 122 124 193 193 190 188 190 155 208 199 199 201 199 192 196 193 200 188 191 197 224 199 201
233 227 230 234 231 226 240 242 130 247 224 115 217 219 144 131 131 131 131 130 133 153 126 122 121 136 209 208 197 177 181 207 195 209 208 191 195 199 199 203 192 191 192 194 223 211 204 197 196
219 221 233 239 234 228 232 232 248 235 157 166 219 184 123 173 130 123 133 131 186 204 206 203 196 148 197 170 192 190 196 212 207 205 201 204 201 200 198 192 190 200 225 202 205 200 198 201 209
224 223 228 231 224 229 117 116 141 238 133 218 201 196 205 128 125 134 206 209 143 185 198 148 198 192 194 192 210 210 211 202 204 197 191 190 196 189 201 224 221 204 204 200 199 194 204 204 206
223 227 227 230 223 224 224 224 232 139 233 134 230 220 165 216 205 200 123 131 202 204 200 201 197 193 189 178 205 201 198 206 202 204 202 206 206 208 209 211 206 200 196 194 208 212 213 212 206
239 236 229 230 232 224 224 220 222 225 225 226 235 235 233 237 220 208 219 210 152 201 204 201 192 204 214 219 200 189 205 202 197 199 201 210 204 209 210 201 196 193 199 208 210 204 195 190 193
231 226 229 231 226 215 219 220 222 218 217 219 216 216 225 244 235 224 221 216 213 208 218 193 212 198 204 197 208 209 200 201 199 208 201 196 211 205 194 197 197 204 205 198 194 195 193 194 202
215 226 219 222 217 219 213 216 214 218 218 230 213 210 214 209 212 210 213 198 196 219 214 207 199 211 211 206 197 201 205 206 201 198 207 203 200 196 198 199 204 201 190 191 191 193 200 196 202
219 208 219 217 215 206 211 212 214 210 211 218 216 210 207 209 213 212 209 207 221 203 202 204 209 203 199 205 202 203 204 195 218 207 200 197 197 198 198 201 186 184 194 199 200 192 202 195 205
214 221 217 214 211 209 207 205 210 207 208 210 213 214 210 211 213 212 214 214 213 208 205 202 203 204 204 205 203 200 203 212 203 199 197 195 196 200 201 189 184 193 194 198 205 201 204 203 189
223 217 234 211 206 212 211 207 208 214 213 210 209 210 209 210 210 210 215 216 215 212 206 203 204 208 205 198 200 215 207 198 198 197 194 193 201 195 189 191 198 194 205 201 191 203 198 195 225
273 219 220 224 223 215 216 223 223 223 220 217 212 210 210 210 211 210 207 214 221 213 205 205 207 204 233 215 204 204 203 198 193 194 202 193 190 190 187 193 192 203 200 196 204 193 217 223 241

GFSSGP_2pvu_pres_069.txt.gz
Presure
256 147 283 263 276 171 398 340 340 263 277 300 238 131 147 170 124 131 147 127 112 127 120 126 126 131 138 126 112 127 131 124 110 122 120 123 134 134 108 124 112 118 113 102 131 114 99 131 121
258 361 207 311 368 370 370 352 138 116 124 133 179 118 133 144 124 122 111 124 145 119 119 131 115 121 112 117 102 135 142 130 135 146 103 134 122 141 138 133 126 115 107 119 137 136 125 116 119
282 352 224 298 115 318 357 345 272 113 263 242 123 175 196 136 134 141 142 134 102 148 116 73 125 133 114 117 127 123 125 126 131 124 140 133 106 102 112 108 115 117 132 131 133 109 126 138 149
372 339 311 284 328 341 331 325 132 277 260 121 135 150 129 144 135 129 134 138 133 178 115 108 98 117 121 117 120 120 139 125 130 120 134 117 140 131 100 137 117 115 122 115 116 116 124 126 119
358 322 297 329 336 327 308 102 292 275 189 247 210 215 133 221 126 149 141 127 147 140 113 135 133 158 138 132 139 140 115 113 124 136 141 126 124 144 130 106 102 135 149 118 103 134 130 123 112
241 312 285 244 320 312 300 213 192 260 216 103 115 190 171 163 143 123 134 139 153 151 138 122 131 114 115 142 147 127 134 134 116 131 125 137 88 133 130 114 138 122 118 101 144 122 116 118 147
336 258 273 161 243 106 283 281 244 125 237 295 109 133 184 135 128 129 137 178 146 79 143 95 144 157 140 113 136 121 115 109 144 130 136 125 101 114 116 134 126 146 97 147 129 107 133 127 128
325 293 267 306 297 255 131 267 258 147 239 124 230 236 137 154 109 146 215 142 130 149 160 143 149 126 109 150 120 112 118 132 111 124 118 122 138 113 105 122 145 134 136 121 146 123 154 117 122
316 266 277 300 293 283 220 123 267 210 189 120 167 142 206 203 144 130 127 231 120 132 137 110 142 141 148 130 101 138 150 129 109 123 120 118 143 132 126 146 144 122 132 150 123 116 121 123 188
302 263 284 289 284 252 267 216 123 110 114 120 231 150 128 199 148 150 162 124 134 127 153 124 131 151 129 162 129 145 112 119 144 142 124 128 126 125 142 114 133 121 122 117 119 127 131 126 204
286 265 275 282 274 272 252 175 133 138 220 142 229 226 235 266 127 185 235 150 144 126 135 133 136 124 140 154 120 215 111 113 155 133 147 126 122 139 124 111 127 133 127 154 121 136 128 133 135
271 264 270 263 266 257 262 266 221 230 143 234 235 227 233 231 217 236 138 120 141 219 122 147 151 151 122 150 185 129 120 121 123 140 104 117 119 136 137 141 128 126 121 121 132 146 200 204 218
259 267 267 266 266 262 236 244 231 260 249 227 128 187 134 133 137 134 150 143 125 129 186 141 133 125 159 129 128 120 113 130 145 133 119 120 128 124 128 116 118 126 126 131 127 212 171 207 176
264 266 266 254 267 264 230 229 236 237 253 226 227 197 220 170 211 185 130 114 218 123 133 125 131 134 160 123 123 122 144 130 127 122 129 127 135 112 122 125 224 204 129 125 186 199 211 202 224
273 271 265 263 245 108 255 259 242 225 222 226 127 163 216 212 135 164 217 135 208 154 139 143 120 163 118 120 121 172 215 128 132 126 117 114 127 132 123 119 202 123 189 187 191 218 199 215 194
251 247 247 254 257 243 253 249 255 241 137 201 226 222 132 213 237 152 135 133 178 127 129 131 131 126 122 123 122 128 132 141 123 119 124 123 131 212 207 202 170 187 187 187 189 196 204 199 205
247 238 243 243 243 258 262 260 236 232 230 135 134 138 224 223 148 132 229 212 182 182 137 117 123 172 122 129 123 127 129 125 127 129 128 120 134 157 126 181 187 183 204 202 208 205 197 197 205
250 236 236 242 243 212 245 248 261 225 244 212 213 134 222 142 208 157 224 125 168 127 127 117 196 216 214 125 130 135 131 120 173 163 137 143 155 204 179 182 180 204 211 197 206 209 205 199 193
243 243 239 231 232 234 237 245 259 257 112 129 119 137 224 137 243 214 190 124 133 116 115 222 121 126 126 133 132 127 125 125 134 135 201 196 195 193 181 217 205 202 205 208 196 194 191 191 203
230 228 232 229 225 229 236 244 256 206 181 163 138 149 221 219 212 136 203 149 214 125 123 126 125 125 133 140 150 152 154 133 131 149 209 199 208 209 206 215 202 197 193 188 197 199 209 209 197
240 227 227 237 244 234 229 236 235 248 183 228 227 219 218 131 173 196 118 129 130 130 131 121 156 130 129 218 162 178 163 202 201 197 193 211 208 198 187 186 191 198 197 200 214 210 204 204 196
252 239 231 228 225 223 231 229 235 234 245 223 224 222 216 122 214 214 127 123 124 167 125 132 134 167 200 189 202 162 200 200 202 181 194 211 208 199 198 196 191 197 207 207 201 208 197 196 199
225 228 239 232 230 218 221 229 234 233 242 246 232 224 136 201 208 205 157 135 153 138 203 131 200 202 133 126 195 199 187 199 202 207 212 210 191 193 203 204 199 210 204 204 207 195 196 196 203
241 217 233 229 234 232 223 221 221 227 232 236 237 226 235 220 214 207 209 183 201 202 201 202 150 155 200 195 198 197 192 190 210 206 196 209 209 206 203 209 207 203 208 199 196 195 195 201 194
228 224 220 220 227 218 222 215 218 224 230 223 227 232 236 237 212 213 215 211 206 204 202 206 208 207 201 215 207 202 215 213 207 208 203 200 208 204 207 205 205 205 196 197 195 199 202 193 186
219 237 211 214 221 219 216 220 213 216 217 219 220 224 214 215 212 213 214 218 213 219 218 217 220 214 213 210 210 206 195 199 211 203 204 204 203 203 203 206 196 197 195 194 198 197 190 184 189
220 261 222 216 223 217 218 214 214 206 207 214 213 214 220 224 225 212 210 207 204 204 206 211 216 220 211 204 205 212 212 206 203 203 202 196 197 205 202 197 199 195 202 195 190 192 185 197 210
214 220 237 215 219 217 217 213 214 206 206 211 210 212 214 219 222 221 218 218 221 218 215 214 213 210 207 207 208 208 203 202 202 196 194 213 195 202 201 198 199 196 185 190 193 185 205 202 197
214 216 229 234 206 222 208 210 214 214 210 206 208 208 208 210 212 213 215 217 215 216 212 209 207 203 205 199 202 204 199 201 196 206 210 199 196 197 199 200 197 186 193 191 194 202 199 196 205
216 209 217 252 222 204 227 223 222 219 215 215 216 218 219 214 213 215 217 215 216 207 201 203 208 208 210 210 203 201 201 225 209 198 202 199 199 201 203 187 187 191 197 201 201 196 202 203 199

GFSSGP_2pvu_pres_072.txt.gz
Presure
220 245 97 255 283 348 323 193 327 342 380 298 277 306 89 106 257 177 163 140 109 100 126 97 103 122 134 124 131 112 120 131 114 133 126 121 138 124 126 90 133 145 111 133 132 123 99 118 122
118 237 245 278 346 325 314 225 375 402 244 198 279 129 126 146 274 128 180 130 120 135 125 148 118 138 126 108 127 123 135 133 131 107 130 143 142 133 120 146 148 123 140 114 101 98 124 108 130
129 236 245 274 333 309 303 363 369 379 318 277 254 262 246 159 222 223 138 104 139 157 124 136 141 116 83 115 78 97 126 128 121 128 126 128 113 126 110 123 113 123 123 113 124 115 109 113 130
229 236 282 340 312 299 350 355 363 385 326 280 271 276 164 131 274 215 132 141 136 159 131 135 134 101 82 125 124 113 131 134 131 147 142 137 125 136 124 133 135 117 137 122 128 140 109 145 108
218 234 329 290 250 350 342 319 153 336 292 266 259 234 154 125 136 189 189 142 127 141 129 119 97 116 140 132 98 128 119 129 117 128 141 134 111 117 105 132 90 132 123 138 106 140 121 119 117
223 285 92 304 97 341 299 280 315 322 142 232 111 159 190 164 259 136 139 200 268 152 124 128 143 128 130 99 146 133 135 130 117 123 135 142 132 134 126 102 111 140 111 114 108 135 127 114 128
276 164 321 195 310 313 212 107 149 161 266 230 111 226 210 136 89 236 134 109 127 105 145 157 144 129 139 115 129 128 127 124 94 137 123 137 117 132 144 146 110 109 131 105 110 132 136 143 127
284 351 299 281 313 295 282 280 277 108 270 225 241 216 160 117 127 137 197 139 161 169 127 85 126 116 125 141 166 112 133 143 124 134 123 139 116 133 120 146 110 113 111 156 144 123 117 124 123
211 320 285 292 306 296 270 264 258 276 259 229 113 252 196 176 226 147 198 140 146 110 130 134 131 126 188 157 163 139 141 137 150 159 143 128 155 121 111 111 114 107 119 116 128 119 116 127 133
369 289 275 307 296 283 281 273 260 269 254 251 242 161 182 126 168 233 136 104 171 131 131 125 133 187 139 148 200 161 137 134 136 123 120 120 122 112 126 113 120 138 110 124 112 143 114 128 121
300 270 259 291 283 281 275 273 261 267 169 208 238 146 182 254 133 233 135 235 152 149 126 132 139 175 210 136 140 125 136 158 120 125 129 97 128 105 136 126 140 114 120 137 141 128 134 127 121
267 262 268 275 275 274 247 271 243 264 234 142 108 151 118 226 128 129 217 220 126 129 128 150 130 140 140 132 127 132 123 138 124 148 129 122 116 123 117 135 121 129 124 125 118 126 121 121 128
270 270 277 268 274 267 263 231 248 234 235 185 124 164 233 224 224 156 233 166 178 204 174 244 226 154 172 119 174 187 129 159 123 125 125 118 121 121 116 125 128 121 115 125 124 134 119 196 178
290 280 278 256 259 272 266 253 211 236 229 227 229 207 199 212 135 231 205 128 153 148 136 124 147 163 133 123 162 130 138 125 140 124 112 114 122 121 129 123 121 126 130 130 131 133 128 185 157
259 257 261 268 258 262 261 269 241 238 234 264 230 215 213 213 217 224 141 232 241 133 207 199 134 139 132 135 118 129 125 195 119 113 117 124 122 195 139 125 126 130 122 135 127 119 193 215 200
256 246 250 252 242 248 188 265 259 226 235 243 225 213 210 147 123 243 206 200 195 216 206 187 200 131 127 150 142 123 127 139 125 124 123 124 203 130 125 131 120 133 179 134 134 197 205 157 192
260 246 246 240 244 249 259 252 251 256 237 221 227 226 220 216 172 218 191 215 135 233 213 139 145 195 169 165 116 125 132 129 122 114 120 127 131 126 134 131 172 139 130 129 193 166 189 184 206
244 252 245 245 246 247 249 139 246 241 253 229 223 147 217 117 191 208 207 213 229 222 154 127 132 225 156 182 127 119 143 143 125 145 128 144 170 131 126 139 131 132 143 190 201 174 186 212 201
224 242 234 237 234 239 238 242 250 244 237 219 237 220 133 216 134 161 229 207 235 135 131 212 215 213 225 126 129 146 142 136 123 125 131 138 126 141 210 131 197 190 189 204 205 215 200 197 201
242 227 233 238 246 236 227 235 240 259 188 119 221 231 216 210 153 223 216 129 232 140 129 203 151 184 123 120 130 136 193 130 130 133 133 200 199 187 199 202 207 198 199 208 222 204 203 200 204
236 221 240 237 235 237 236 233 240 255 267 228 117 121 168 137 140 128 213 232 127 203 233 221 210 134 127 119 123 128 171 133 133 165 162 205 201 200 197 202 196 206 214 197 192 195 203 207 202
226 240 219 240 235 228 225 229 226 240 255 242 221 229 153 143 140 213 221 228 228 208 146 212 119 124 207 127 116 124 189 146 128 199 201 186 192 201 197 183 213 213 202 207 213 206 204 219 209
190 234 225 231 234 241 231 222 225 227 235 247 231 224 224 213 218 217 220 131 122 166 216 133 138 125 131 198 217 202 189 140 193 200 204 213 205 199 214 216 204 200 204 201 207 210 213 209 207
197 226 241 219 224 233 234 227 225 220 219 235 248 168 219 218 213 220 213 148 145 210 207 205 192 156 205 207 205 200 198 198 197 199 194 214 195 211 195 204 209 209 217 211 207 207 212 198 198
203 218 227 231 215 206 229 231 221 221 224 222 219 233 231 240 215 217 212 210 211 204 204 206 206 200 193 193 197 207 204 205 209 210 216 207 213 201 201 206 208 208 205 199 216 208 199 202 195
183 216 221 247 223 213 216 230 223 220 220 223 226 219 220 226 230 230 238 216 203 199 209 210 214 213 218 217 214 213 215 211 203 206 206 208 206 209 200 203 204 201 202 218 202 197 196 200 201
192 209 218 226 240 211 211 216 233 215 218 214 213 213 212 213 218 220 217 216 219 222 217 217 213 210 206 204 210 210 208 208 215 220 220 206 202 203 203 202 196 206 214 201 199 195 204 199 192
197 210 217 217 223 241 213 210 215 211 215 216 216 216 212 208 209 210 217 222 223 221 221 222 220 220 216 213 211 209 209 209 207 207 206 208 203 200 195 213 217 206 200 196 198 202 186 191 194
198 204 198 213 214 222 231 218 218 220 212 210 218 220 219 214 213 212 212 214 214 213 211 212 213 214 212 208 205 205 206 208 209 212 208 196 195 215 211 201 194 196 195 196 193 191 197 195 197
195 204 201 203 220 211 233 233 225 209 221 217 215 202 222 227 223 217 203 205 205 204 203 202 203 205 206 209 215 212 207 204 205 207 202 227 223 194 199 191 195 193 192 199 198 201 196 203 188

GFSSGP_2pvu_pres_075.txt.gz
Presure
126 118 132 158 130 93 234 340 297 342 317 183 151 253 290 373 87 209 192 121 108 201 121 128 145 149 114 138 135 115 114 138 126 132 131 118 127 140 141 130 133 130 106 98 101 111 141 145 128
189 112 176 239 163 249 349 332 337 316 318 230 298 333 272 185 164 132 101 180 294 126 129 127 139 158 125 145 124 125 119 120 131 124 125 128 130 141 85 133 145 131 123 136 121 135 139 121 115
120 247 243 195 244 274 330 319 309 327 360 391 429 320 225 198 195 182 134 215 140 127 119 109 122 142 114 118 120 121 120 122 119 115 128 138 92 124 132 129 111 127 116 134 123 130 103 114 138
240 243 234 238 251 338 314 318 377 386 386 428 363 309 260 209 196 210 156 130 160 191 122 141 141 123 112 156 102 132 110 86 84 116 130 130 133 144 137 114 138 139 140 119 130 130 109 144 112
232 231 236 240 343 315 313 306 320 397 230 274 311 286 290 298 205 202 198 229 167 259 299 129 102 126 126 113 121 112 146 120 126 85 139 127 125 123 110 141 135 124 130 129 87 110 111 107 128
218 222 231 334 319 302 201 256 212 278 186 228 300 255 238 247 251 189 174 273 163 170 264 266 207 236 124 139 113 118 131 126 136 151 142 142 120 128 116 128 124 118 139 121 150 119 112 128 112
216 225 278 334 306 324 187 258 258 228 290 227 199 203 214 124 180 203 118 209 120 194 139 218 178 128 132 140 125 135 114 130 110 114 121 131 139 121 135 111 128 98 98 140 128 116 115 140 127
218 221 347 303 286 269 294 307 300 305 104 229 114 245 110 108 126 160 159 130 195 162 104 183 163 186 139 149 126 134 122 147 138 129 155 140 139 154 121 131 122 120 157 111 121 153 113 101 109
222 192 212 277 268 286 285 289 282 286 282 271 111 219 217 107 217 197 150 131 199 192 171 120 171 128 124 78 90 157 132 134 132 130 117 140 150 140 137 148 136 137 146 113 147 126 119 126 131
213 287 279 276 311 308 278 266 265 270 253 261 112 222 208 222 222 229 211 172 169 102 191 119 156 138 124 163 136 136 124 135 150 145 144 140 143 161 147 118 145 123 135 122 114 122 122 154 134
215 283 280 276 293 286 271 255 265 282 243 245 258 227 208 202 229 207 197 196 116 127 186 176 133 179 199 129 121 131 123 145 136 119 151 142 127 137 134 125 125 114 122 118 122 127 134 163 117
225 291 287 278 281 279 277 288 259 269 272 252 261 241 214 213 118 153 218 215 201 213 136 194 115 125 134 188 127 127 184 189 194 145 139 158 163 157 121 144 148 106 112 122 129 128 118 120 184
271 276 288 275 265 274 271 277 267 265 256 267 271 257 204 217 117 121 196 202 126 187 190 122 124 187 185 123 128 131 203 136 140 212 170 121 129 170 116 131 121 121 110 129 124 121 108 126 123
275 264 258 274 255 268 271 274 261 252 272 241 256 161 126 110 113 118 261 226 166 148 162 126 165 218 120 131 190 133 124 179 124 130 123 126 150 127 130 115 126 116 115 123 125 142 123 128 129
281 263 255 257 255 263 252 248 225 250 246 228 232 223 156 118 118 228 180 248 198 123 209 206 208 162 199 204 192 130 121 195 118 133 126 128 133 135 113 125 116 111 121 173 133 119 133 128 132
208 255 249 232 246 252 240 216 252 243 237 228 219 216 212 204 221 222 210 133 224 208 218 208 213 166 215 131 143 175 200 126 129 148 130 120 147 124 137 109 118 125 111 126 133 140 122 147 123
212 240 234 244 250 248 255 250 244 263 220 228 233 234 227 213 231 180 218 231 213 225 216 203 150 201 164 179 125 198 157 131 126 137 140 127 120 114 135 126 122 126 132 171 186 198 153 138 208
197 238 238 227 241 246 259 266 145 247 261 230 247 225 221 214 215 220 216 152 145 143 134 135 214 148 136 204 207 142 156 135 133 196 127 127 126 142 141 132 134 128 125 132 125 144 205 200 193
201 248 231 235 236 235 236 245 248 262 251 228 218 212 222 220 221 217 231 129 207 203 191 130 137 139 144 196 136 212 203 198 135 123 121 122 134 171 126 131 122 130 131 140 195 190 196 215 193
201 199 237 237 238 249 235 231 246 252 253 248 221 222 224 217 212 215 133 155 118 191 212 182 207 213 195 151 134 185 199 193 188 183 120 125 166 122 143 134 119 125 156 201 202 208 189 192 208
199 213 244 223 241 237 237 235 234 237 256 238 212 217 217 212 221 134 201 167 162 199 186 208 163 211 171 131 136 159 124 189 186 144 123 122 125 131 125 127 179 188 199 200 184 192 206 218 214
189 198 212 243 224 239 237 229 232 228 232 262 228 226 236 128 112 210 154 124 145 218 147 212 143 181 201 188 192 120 199 134 121 127 187 176 142 145 180 194 194 194 205 196 194 211 214 206 210
191 203 204 246 231 217 247 239 229 234 232 232 237 227 222 229 224 177 124 122 122 242 127 242 208 214 213 133 124 123 204 133 205 202 146 208 213 208 205 214 209 192 194 221 210 208 202 209 205
190 205 188 224 250 222 212 233 233 226 226 230 256 225 224 220 194 187 120 210 218 223 219 223 218 239 219 233 212 218 169 217 173 196 212 201 194 196 198 211 222 211 216 213 211 213 203 206 207
194 200 208 217 240 240 214 212 224 228 224 230 229 244 233 223 218 217 218 221 218 215 217 223 219 211 212 215 203 204 212 208 198 201 202 201 206 207 218 217 210 209 208 209 206 207 204 206 206
182 197 206 206 219 234 238 213 207 221 223 219 222 228 235 252 229 225 225 213 218 216 204 209 207 210 206 209 208 203 206 210 207 216 218 214 212 207 211 210 212 209 206 207 210 204 202 208 224
187 187 193 185 185 224 235 234 215 213 211 212 211 211 212 226 225 224 227 231 234 232 239 217 212 212 214 210 226 226 220 217 211 208 210 210 212 213 206 206 205 206 207 195 201 206 217 197 204
177 186 190 199 214 201 224 238 232 220 223 217 208 211 213 213 211 210 212 216 219 220 219 216 211 211 209 210 209 210 210 209 209 207 206 206 206 206 207 214 206 192 199 206 209 213 200 205 195
175 188 184 181 203 209 217 222 245 234 210 215 220 218 215 218 217 220 218 215 215 215 215 214 212 210 205 204 204 208 210 212 212 208 204 207 213 208 203 208 222 219 216 223 198 196 202 198 201
177 187 180 201 199 210 206 218 221 228 241 209 216 211 209 201 199 200 202 205 201 203 210 211 211 209 205 205 204 205 206 213 214 215 210 202 201 207 221 231 207 207 206 203 201 200 198 202 201

GFSSGP_2pvu_pres_078.txt.gz
Presure
121 118 144 114 238 253 257 263 235 209 377 380 354 355 254 317 345 218 112 166 169 153 187 152 238 200 124 110 130 125 127 116 140 114 132 125 139 105 130 106 118 135 120 98 113 126 126 116 117
191 124 236 254 185 251 133 261 369 361 339 320 319 319 337 329 213 242 217 270 102 174 180 204 128 132 114 123 133 134 132 132 139 132 125 124 126 113 134 137 138 123 109 128 135 123 123 111 134
142 200 184 248 138 225 253 373 328 331 368 386 333 324 331 239 261 186 176 194 149 110 206 114 119 216 103 124 118 116 140 110 133 127 129 126 127 128 124 143 125 126 133 123 124 128 114 112 146
165 104 214 216 233 252 101 322 330 329 291 264 263 335 241 216 252 181 199 180 187 163 119 219 185 182 125 134 211 197 130 137 139 123 136 139 113 120 126 128 133 142 143 135 126 115 134 136 143
206 238 237 193 242 241 331 342 332 262 253 264 253 266 215 197 218 203 204 186 143 231 132 170 127 190 259 237 113 126 122 121 109 101 82 108 130 133 134 119 138 130 125 120 118 147 147 115 124
234 232 236 188 237 341 317 299 276 259 194 220 209 236 214 170 208 220 190 252 157 170 206 146 184 210 183 307 136 130 134 159 117 120 137 145 135 115 127 137 116 110 125 119 129 135 129 129 124
235 209 232 229 311 298 293 280 250 215 202 210 210 249 305 207 196 192 242 167 170 194 185 172 171 188 189 138 182 130 193 127 105 92 133 152 140 133 135 165 147 141 138 129 144 135 123 98 118
221 226 228 232 306 302 310 315 250 238 199 191 179 102 262 206 184 200 191 175 182 155 106 196 177 148 194 188 202 129 132 132 139 147 139 131 151 99 116 109 136 150 130 145 153 125 117 114 141
222 219 223 283 160 330 316 303 313 236 233 245 192 99 163 228 199 193 197 181 192 163 168 143 176 164 174 207 186 186 226 232 167 193 142 158 115 131 112 132 123 130 142 133 134 125 150 130 144
217 223 247 257 207 329 326 302 299 239 234 217 198 187 232 155 188 206 195 202 179 181 147 136 161 107 178 108 159 192 214 201 110 102 186 147 126 140 140 148 145 137 139 134 139 150 131 121 125
217 216 248 269 286 294 285 264 294 300 231 220 168 186 203 188 186 221 213 117 185 150 171 170 136 162 136 137 148 192 169 153 135 134 120 125 140 151 132 129 122 138 126 147 135 133 145 117 115
206 209 246 267 281 287 296 274 272 291 270 220 201 192 188 184 213 215 208 208 190 195 184 188 126 123 186 174 126 184 136 205 205 121 147 125 131 140 168 143 160 120 148 184 205 144 130 116 116
207 210 240 272 267 286 278 304 291 308 287 240 226 251 196 212 184 221 209 206 191 208 156 187 152 127 162 197 160 153 209 208 155 126 205 207 212 133 133 146 163 134 133 169 131 136 152 125 114
203 201 237 269 260 285 270 295 288 222 221 235 234 269 242 211 207 186 126 195 200 206 194 127 126 169 191 188 206 185 125 128 121 120 127 140 141 175 179 127 115 112 172 147 114 118 188 118 130
199 199 223 243 261 241 227 241 224 235 201 258 304 281 237 223 202 176 219 199 109 112 199 195 132 128 189 176 181 128 181 203 164 135 175 186 129 128 113 124 135 129 125 130 119 128 127 119 118
198 203 207 249 242 237 226 228 212 240 275 232 248 280 281 205 222 208 210 203 111 189 180 181 185 183 131 188 160 166 191 124 144 182 201 131 115 148 119 129 161 125 123 134 126 149 136 112 125
191 202 214 245 243 247 240 225 215 225 251 242 262 244 219 224 228 116 198 203 226 122 207 208 207 198 130 191 194 195 162 195 135 128 122 208 167 135 127 166 121 127 158 126 126 193 141 141 115
197 193 206 233 246 241 251 266 222 228 259 216 238 223 225 217 209 208 203 124 125 247 253 203 156 206 216 197 202 200 193 147 126 131 196 154 147 189 118 128 135 192 121 131 154 121 174 163 117
193 190 202 209 238 247 250 245 248 255 262 270 233 262 235 232 218 224 243 226 208 226 238 202 218 205 203 204 209 203 198 144 195 134 130 135 164 200 193 117 133 121 116 115 161 141 118 121 129
185 197 212 209 247 237 239 241 242 248 254 115 229 219 218 217 220 220 231 223 215 225 210 234 166 142 131 154 195 201 187 211 194 202 173 124 126 178 153 189 210 139 197 126 126 169 127 199 197
192 188 191 199 252 238 232 237 241 242 254 243 242 220 219 219 214 222 185 221 217 132 134 133 204 217 205 203 166 205 146 205 201 193 205 204 190 140 114 191 187 126 191 154 128 197 201 194 189
191 182 190 211 204 248 226 239 233 234 245 265 213 237 210 209 211 213 206 223 221 215 211 201 203 150 159 201 207 190 119 181 212 176 146 192 186 192 178 189 128 147 132 203 190 195 194 201 195
185 191 178 204 221 258 234 221 235 232 235 246 253 235 240 206 226 210 203 130 122 161 218 127 153 199 208 205 211 195 121 125 192 192 192 130 195 193 204 126 143 205 192 194 210 213 211 206 193
180 179 185 197 211 218 256 222 225 232 226 228 241 245 234 229 223 229 172 156 206 203 165 219 185 178 188 201 207 210 211 214 207 207 212 204 203 204 199 201 201 202 207 207 203 199 220 220 220
180 179 192 188 205 195 224 255 216 225 220 224 222 242 242 230 227 224 223 162 210 219 173 218 203 228 234 220 220 195 194 195 194 198 202 199 217 206 207 211 208 211 205 218 227 217 221 212 215
184 179 175 185 197 202 220 225 243 223 220 212 213 219 223 249 227 224 220 235 214 208 207 214 212 220 218 213 210 212 220 219 220 215 211 196 199 209 210 204 195 216 209 216 215 210 209 209 196
184 184 181 176 195 198 187 209 218 246 214 225 219 213 213 217 221 256 229 224 224 221 213 211 226 217 213 209 206 213 216 216 213 213 208 199 229 222 221 215 214 216 213 213 212 204 195 191 212
184 189 178 183 186 188 203 192 217 220 243 221 213 209 212 213 214 213 214 227 226 222 236 233 231 231 168 239 236 225 218 219 225 219 211 213 213 212 213 211 213 211 212 209 193 199 193 202 212
190 176 180 180 175 186 191 200 213 215 221 243 225 216 214 213 214 216 218 213 209 217 211 209 216 217 219 221 221 221 222 217 216 214 213 213 214 210 210 210 215 207 203 202 199 219 210 209 205
175 191 179 187 178 186 184 199 204 183 205 227 219 248 223 223 215 223 218 216 218 222 213 225 222 215 212 209 212 212 213 205 209 209 209 217 219 206 206 208 206 204 202 206 206 212 211 211 206

GFSSGP_2pvu_pres_081.txt.gz
Presure
120 144 221 154 122 110 184 173 263 186 180 276 368 196 205 366 334 313 281 281 265 223 162 89 121 162 100 258 168 195 122 135 119 123 130 123 125 135 131 120 130 128 102 92 128 99 111 120 122
119 176 151 199 252 262 234 257 263 260 236 318 339 246 356 349 322 304 312 268 220 213 133 93 122 184 145 186 173 118 194 141 130 106 123 123 119 122 121 124 134 104 134 128 119 124 130 100 125
186 211 82 207 168 98 206 262 89 295 391 323 360 338 324 344 332 339 204 264 208 312 128 111 127 132 189 126 213 122 186 135 125 153 132 128 136 128 129 150 137 138 128 128 146 143 113 125 138
172 165 246 244 245 212 247 256 361 151 295 271 293 304 314 254 232 199 191 195 192 221 171 211 171 121 193 189 135 136 134 115 125 127 238 141 130 155 137 140 144 147 126 127 133 132 135 148 142
206 201 235 230 158 243 244 337 316 287 282 258 299 305 266 216 227 191 181 182 111 188 190 100 159 106 136 153 186 111 279 142 268 132 122 129 138 136 113 128 149 120 140 146 136 127 132 140 140
198 244 205 213 241 180 240 309 287 262 271 236 281 248 234 236 205 196 199 216 216 158 192 159 171 147 101 156 155 186 115 118 181 195 246 152 202 120 84 116 124 117 138 129 121 142 135 139 125
235 232 230 195 239 237 347 342 262 258 266 266 259 228 240 214 213 191 170 215 215 175 164 165 180 159 179 125 160 151 194 190 123 187 124 118 105 133 127 128 120 139 144 140 142 148 144 132 145
235 225 201 232 230 305 362 329 256 247 259 266 234 89 199 109 204 175 171 192 101 210 154 142 159 170 174 165 169 178 181 132 162 130 130 126 129 118 124 139 134 139 119 120 121 148 131 136 135
223 228 225 226 229 328 349 323 255 245 183 237 230 236 213 202 211 201 180 197 154 202 161 246 147 152 166 173 162 164 131 204 212 189 203 170 219 141 126 119 135 94 114 121 135 130 123 141 148
215 221 217 220 220 294 318 290 221 225 229 248 226 254 218 185 187 123 159 173 171 162 174 243 168 156 132 124 80 163 130 203 194 168 165 225 136 164 139 139 140 153 149 146 138 149 148 144 124
225 215 220 213 211 284 309 294 293 229 237 242 252 199 211 206 181 191 165 162 184 183 227 161 176 167 164 175 167 143 187 183 206 190 185 185 196 102 157 202 135 101 122 146 159 150 140 140 136
209 212 212 206 274 280 307 295 279 226 239 244 216 228 163 187 194 187 143 171 178 172 182 184 172 170 153 164 155 181 125 130 123 135 201 206 188 155 135 122 123 126 132 134 133 140 179 122 210
209 208 211 216 275 273 289 297 309 226 232 231 233 191 223 256 241 201 152 194 172 170 191 158 126 153 188 160 174 160 195 169 207 142 184 188 190 222 216 151 177 153 207 174 138 173 132 125 119
210 203 208 208 203 267 247 275 283 273 213 217 203 181 220 201 238 201 163 182 169 183 183 121 167 163 127 160 162 125 144 172 168 176 202 159 190 189 126 160 131 125 130 189 164 161 127 126 127
202 198 196 207 203 251 239 250 266 260 253 221 228 191 209 204 199 189 170 201 196 200 188 181 110 156 191 170 129 126 181 179 193 191 134 126 128 131 190 132 127 185 130 125 126 113 126 198 134
200 195 191 201 209 265 236 239 233 214 217 263 227 208 204 236 175 181 218 204 197 186 179 164 185 167 189 188 180 144 184 146 160 130 184 211 188 182 127 163 128 190 125 128 142 124 131 112 123
203 198 194 196 200 268 260 235 251 223 229 215 232 263 198 223 212 185 182 194 197 187 203 172 183 191 154 174 143 155 135 126 192 159 199 162 191 119 128 189 175 132 131 130 198 157 128 161 120
205 194 193 192 213 217 268 260 251 227 228 244 239 249 261 289 253 198 179 205 167 193 177 193 186 134 159 187 181 180 198 135 185 157 189 182 133 183 126 144 124 168 198 177 154 152 116 178 113
209 191 192 201 192 204 256 265 257 256 232 239 218 272 270 282 317 215 195 194 177 126 173 190 124 124 170 189 193 184 191 199 190 187 198 185 190 195 130 150 207 207 194 197 204 202 197 191 189
198 189 187 193 192 213 240 244 249 249 269 266 279 235 244 246 274 227 213 209 221 193 199 185 210 179 195 200 189 184 193 182 154 184 195 194 193 187 180 183 187 118 144 188 191 180 130 200 162
172 193 190 186 188 214 231 254 252 247 240 272 262 253 240 245 228 215 227 199 231 266 217 217 205 202 193 152 125 182 198 199 153 130 172 202 205 129 190 151 189 158 127 206 210 198 191 140 157
196 193 189 185 186 191 214 260 231 249 238 239 259 256 248 230 236 234 233 214 215 244 227 236 226 214 141 123 123 126 211 226 216 207 205 123 188 207 143 127 127 129 173 190 194 196 192 189 188
194 199 188 184 185 194 219 225 244 243 246 238 241 251 251 235 218 241 219 221 228 219 222 215 216 213 217 230 223 201 193 209 198 190 126 184 127 184 198 194 202 202 199 189 188 189 213 205 202
191 190 191 182 184 192 205 216 232 231 235 232 229 239 247 239 247 218 210 210 219 176 111 118 125 190 192 212 222 223 211 211 206 127 133 167 208 194 186 192 193 193 193 198 205 213 202 201 202
192 180 189 178 181 184 193 218 222 235 215 228 230 229 231 241 234 235 238 209 202 203 180 122 181 195 159 125 126 161 174 174 207 201 203 196 207 204 205 205 204 205 207 200 201 203 223 217 221
203 188 195 182 181 182 182 219 208 232 232 233 228 226 229 240 239 232 231 225 235 224 221 223 213 202 229 210 218 221 231 199 201 201 198 202 201 200 198 197 199 198 203 216 206 207 207 217 218
203 198 194 183 180 183 184 201 214 200 229 263 248 238 223 223 223 243 235 220 222 229 236 214 208 207 210 200 212 213 210 218 220 222 208 211 215 221 222 218 207 214 228 227 217 212 215 213 216
187 188 195 184 188 179 182 182 199 212 210 225 230 239 224 223 213 216 219 226 242 242 232 233 220 226 215 211 215 226 225 221 216 223 210 208 205 204 212 231 226 218 214 210 205 215 213 206 212
175 187 192 191 181 184 183 183 190 193 205 195 217 220 225 237 230 226 211 215 216 212 215 220 219 218 219 218 214 220 222 234 230 216 218 217 214 217 221 220 214 211 216 218 207 204 208 207 206
192 185 189 177 191 181 182 186 183 202 189 206 214 214 212 223 217 230 248 228 214 219 219 218 218 221 218 212 218 223 235 215 196 223 225 227 236 217 218 226 224 212 212 207 205 208 208 210 210

GFSSGP_2pvu_pres_084.txt.gz
Presure
118 117 154 133 229 189 210 125 189 169 267 269 264 254 272 255 175 328 383 379 321 139 242 249 171 229 218 206 213 205 254 232 246 262 219 134 119 130 127 130 115 116 130 128 130 133 92 120 107
128 131 163 196 239 259 209 155 186 259 266 223 96 326 344 349 246 333 246 325 104 332 283 277 216 204 194 89 200 196 163 199 215 144 203 108 181 139 134 150 140 114 119 140 124 123 100 136 125
87 159 179 218 171 245 200 235 161 267 262 98 364 367 376 339 367 344 334 328 291 264 225 261 214 162 106 118 173 149 199 209 204 135 135 202 119 147 135 141 122 131 137 137 138 115 121 124 125
103 135 237 254 254 170 251 213 254 255 302 340 291 283 311 325 327 365 342 330 270 274 216 225 214 210 183 185 111 151 204 202 190 115 186 131 125 156 125 131 128 133 125 117 119 144 136 140 145
246 227 232 149 174 250 187 208 242 339 279 286 269 300 293 269 277 257 274 291 266 243 226 201 172 187 197 140 103 110 146 133 191 189 184 178 142 179 244 133 131 140 139 120 117 128 148 162 157
228 229 238 225 243 244 242 167 350 300 291 269 289 281 271 254 250 222 229 224 193 134 212 183 250 203 172 156 155 148 134 117 155 178 181 146 199 121 233 158 133 183 135 120 123 131 162 132 141
219 221 223 225 235 213 160 225 326 292 273 263 273 265 225 231 223 222 222 260 205 190 99 179 166 176 207 180 130 168 173 124 109 164 137 130 126 254 139 202 137 128 123 131 162 148 102 125 137
237 233 208 231 156 233 228 344 322 265 259 251 268 270 222 225 205 99 101 210 203 179 203 192 209 179 169 144 180 183 163 142 152 120 173 213 122 124 99 164 144 242 157 138 145 134 139 125 149
223 211 204 231 227 228 231 332 375 261 252 240 258 252 219 218 202 208 195 184 175 178 187 187 172 139 181 157 151 145 176 131 181 142 157 153 177 212 121 208 156 185 104 117 118 132 106 107 114
224 227 225 228 227 220 288 323 341 257 247 207 253 237 215 208 201 189 186 172 194 192 196 169 150 153 154 153 178 160 80 136 160 198 194 184 164 191 179 215 247 224 223 196 138 133 107 134 183
223 215 227 223 221 217 290 293 312 252 245 255 209 229 210 201 201 189 200 172 177 182 176 193 167 175 169 159 137 138 142 125 170 187 195 135 175 107 119 120 196 138 137 128 126 231 203 128 120
217 224 215 216 217 213 287 278 296 243 234 239 231 192 212 199 218 194 203 193 179 175 153 163 165 174 152 121 120 141 178 134 172 163 174 205 154 196 222 212 204 190 118 213 224 204 128 183 132
201 216 218 209 210 209 253 239 286 323 238 227 212 205 211 193 207 193 174 162 171 162 183 158 184 166 172 123 119 133 174 152 150 171 177 149 124 132 135 191 182 193 187 181 149 121 128 164 120
196 202 216 208 209 206 213 243 265 322 244 239 235 204 211 196 198 191 205 202 162 171 188 157 178 175 164 118 178 153 165 167 165 163 202 199 182 197 125 206 171 153 180 188 187 171 195 148 130
211 196 204 211 207 205 200 270 245 293 253 238 271 242 214 191 194 188 191 182 178 161 154 163 170 177 182 162 138 172 169 171 120 129 181 163 176 182 216 202 161 220 206 182 127 121 128 184 129
205 196 210 204 209 202 199 233 250 243 278 239 257 197 184 163 162 169 191 170 173 173 154 158 186 171 193 164 172 168 179 183 181 153 141 129 180 166 178 168 126 128 140 154 192 127 127 130 124
189 195 201 199 206 201 195 208 247 264 252 231 256 229 201 188 220 193 195 189 176 170 180 175 162 184 191 147 179 171 169 184 178 167 179 196 159 180 194 180 117 194 186 172 127 132 132 189 135
184 192 195 201 196 200 189 226 254 274 275 243 244 208 201 198 230 196 173 193 184 154 173 170 161 176 186 162 162 157 185 188 179 185 174 121 160 172 125 174 175 190 181 181 180 139 183 168 131
174 198 191 202 176 200 188 194 265 258 258 276 266 216 255 213 211 218 258 176 215 173 172 175 210 172 168 186 181 165 182 189 180 172 213 174 173 181 173 172 130 171 189 157 196 142 136 200 146
186 170 201 187 193 197 191 194 211 244 264 258 270 216 219 285 212 219 184 240 191 163 174 177 182 184 188 190 128 184 181 172 184 181 184 177 179 176 191 203 186 202 183 160 124 136 200 177 184
176 188 195 196 196 193 189 186 214 254 241 250 255 278 242 210 258 245 282 214 171 185 197 195 192 184 179 170 179 172 168 172 161 125 169 175 173 184 127 130 171 169 176 159 205 128 124 167 172
214 168 200 197 197 197 190 192 218 242 233 256 249 260 256 273 230 261 275 282 201 201 189 213 197 184 191 163 164 171 175 145 174 165 128 167 116 166 187 183 130 208 207 135 159 208 198 207 195
212 169 181 185 184 195 193 192 196 219 244 237 243 245 258 254 245 236 221 257 194 192 203 198 183 177 178 196 170 123 175 131 188 173 187 185 188 189 185 124 120 123 200 197 207 199 197 184 194
129 168 183 188 197 192 192 192 186 211 233 238 236 245 267 243 257 243 241 230 242 203 197 193 196 192 194 203 190 190 200 173 190 195 200 194 182 216 215 196 203 199 200 207 213 201 195 196 196
208 214 184 195 200 192 190 186 182 214 200 230 238 238 248 261 248 245 250 239 238 245 220 209 202 206 112 118 121 123 126 184 228 164 188 191 220 216 204 213 204 202 202 198 197 204 212 199 195
214 139 201 168 174 194 191 184 184 186 212 222 256 222 234 244 243 277 247 219 225 222 227 223 222 219 220 228 227 219 245 233 222 231 206 208 209 214 208 201 201 203 198 204 202 203 226 225 208
214 219 195 203 192 196 193 180 179 181 212 221 242 230 227 233 225 233 261 250 235 247 238 221 217 214 216 233 217 214 220 213 218 213 228 212 219 224 227 225 226 229 227 227 224 212 210 211 216
214 211 211 213 198 194 191 183 188 182 190 212 219 220 223 225 221 227 225 222 240 247 231 224 227 232 235 227 216 216 215 217 216 209 214 222 235 227 227 226 229 234 235 235 227 219 216 205 208
198 211 205 195 201 206 191 190 185 186 186 187 211 206 216 213 217 229 241 224 228 218 217 225 236 240 234 227 235 225 218 225 225 225 219 213 216 218 215 223 216 227 232 198 239 208 205 231 204
218 195 209 203 186 194 190 187 189 191 192 183 187 202 219 221 214 214 213 218 268 250 226 222 220 226 224 223 219 227 229 228 212 196 218 204 198 226 216 201 199 229 222 221 209 210 207 207 214

GFSSGP_2pvu_pres_087.txt.gz
Presure
123 135 137 84 129 110 124 104 104 166 270 263 187 96 192 179 189 262 128 257 270 269 269 189 91 176 241 246 174 242 222 149 256 218 202 150 129 143 132 120 131 134 140 129 136 141 138 117 136
126 147 113 158 203 184 221 117 247 239 236 264 169 206 262 260 260 259 290 177 350 252 263 254 244 206 254 193 244 216 148 104 175 269 272 206 170 227 81 120 141 132 123 146 127 138 137 118 121
187 231 123 202 106 250 180 161 198 253 224 258 262 207 289 338 184 331 320 311 370 385 374 390 311 247 245 144 206 205 206 214 192 179 209 150 217 219 219 128 125 122 197 147 134 143 131 121 112
170 233 166 219 162 226 179 204 239 243 251 254 260 327 318 292 321 309 320 336 362 310 227 354 83 156 249 212 207 199 93 203 202 231 208 205 214 195 121 197 214 213 138 93 141 130 139 111 130
115 222 247 198 231 127 248 205 245 133 254 243 298 304 280 261 268 297 306 324 351 266 274 244 230 229 214 202 171 181 190 88 110 194 191 195 179 187 189 169 180 100 168 158 144 210 136 118 109
249 194 187 229 240 186 222 227 246 246 233 305 295 268 262 271 274 273 268 288 321 251 264 232 217 219 190 176 205 200 185 208 182 118 162 142 196 121 192 191 134 189 115 187 165 113 119 145 134
206 236 217 219 230 231 233 240 243 316 310 291 127 252 249 260 267 269 267 278 288 238 253 214 206 195 103 189 198 181 190 194 177 192 130 110 109 154 192 188 214 139 132 238 243 127 153 142 133
224 216 242 238 229 234 230 240 231 289 300 277 266 243 259 249 259 252 269 262 241 271 225 197 206 205 209 174 182 190 178 181 184 146 190 141 134 175 199 179 199 175 173 126 271 250 140 127 117
206 246 231 230 223 220 227 232 288 300 292 263 246 237 230 255 248 255 229 214 219 234 195 204 195 197 195 208 142 203 178 180 154 184 141 137 168 189 135 178 175 104 115 99 124 167 152 132 196
208 218 218 221 217 225 221 221 232 285 331 260 237 244 227 232 229 243 217 210 215 199 194 198 174 161 180 233 169 170 158 185 149 107 170 149 186 199 122 142 164 128 162 122 200 142 147 110 114
191 203 198 201 222 216 219 220 238 264 325 262 230 226 222 214 226 228 208 204 207 197 196 179 187 135 163 176 162 158 182 177 121 163 146 100 173 186 194 152 166 136 158 216 197 186 188 190 230
190 186 195 201 201 227 215 223 230 268 326 267 232 225 210 207 222 239 196 212 196 185 186 198 179 197 176 177 160 167 180 174 159 177 179 165 183 167 179 174 157 212 169 190 208 132 125 155 169
194 217 209 218 196 207 219 219 216 259 255 257 224 216 212 198 212 190 200 182 201 198 207 191 183 179 124 178 168 131 140 122 150 163 156 167 163 180 188 191 172 186 177 164 217 171 175 147 180
196 196 208 210 204 218 207 217 211 242 247 275 218 199 208 205 196 189 173 195 176 161 183 188 179 167 182 176 171 165 179 163 179 155 128 172 188 168 168 193 205 141 138 195 194 184 205 203 187
218 205 205 204 198 203 212 212 209 234 271 274 259 205 209 197 174 192 191 179 184 185 195 179 175 165 167 166 166 169 123 176 109 174 155 187 160 162 184 175 158 199 118 138 183 193 135 174 153
216 195 186 196 190 203 202 210 207 226 251 252 277 220 212 194 178 177 198 184 154 192 171 192 179 181 193 184 161 172 174 191 172 179 187 169 169 126 191 159 189 175 173 165 162 169 185 187 173
194 179 194 188 200 190 198 210 208 228 241 263 271 246 207 201 192 182 192 186 202 160 188 177 190 169 166 164 174 158 143 143 162 187 175 200 184 130 125 127 173 174 174 169 144 157 130 166 157
226 178 218 182 191 196 201 187 214 220 231 249 279 266 243 227 197 191 190 187 184 187 183 196 184 170 169 193 163 157 154 174 169 181 166 195 181 188 171 183 171 191 175 175 139 171 168 163 193
215 193 187 198 180 205 193 198 212 204 223 261 246 283 270 246 202 197 185 177 161 183 188 173 177 179 182 169 167 160 174 169 157 168 163 184 175 166 125 125 127 170 172 165 183 187 192 178 198
216 219 175 180 191 193 185 195 206 202 224 245 236 267 287 306 232 197 188 185 172 187 180 176 184 181 194 164 160 162 160 138 163 149 175 169 173 187 200 184 175 181 165 170 179 177 191 183 191
180 216 170 187 193 167 189 191 201 201 210 227 240 260 269 287 228 219 204 191 181 178 179 159 168 171 172 173 159 158 161 171 172 180 174 185 189 168 170 147 176 172 172 157 126 188 170 190 175
194 194 176 184 198 175 183 197 183 207 197 210 247 249 257 288 279 238 248 198 187 172 172 181 182 174 166 164 172 173 190 172 176 183 184 172 128 163 186 134 128 123 166 169 197 180 118 125 120
194 192 177 187 214 183 171 174 185 204 190 215 229 236 254 276 269 242 267 277 221 225 189 184 175 181 172 187 170 190 160 171 170 168 176 182 172 173 169 172 186 185 179 183 181 198 173 211 221
203 200 208 215 193 173 191 185 190 196 194 210 225 241 233 248 282 257 254 222 244 208 222 208 185 171 175 178 169 179 168 165 171 180 174 170 170 172 168 146 173 152 168 175 210 202 212 220 213
157 170 183 208 221 230 187 195 193 189 201 197 208 237 255 240 243 259 263 261 237 234 224 257 215 229 239 224 182 177 188 193 150 124 164 183 187 183 173 177 192 190 183 212 218 217 224 216 214
205 211 196 172 217 235 212 165 191 182 196 196 193 227 284 227 228 235 267 250 259 237 219 231 237 237 236 235 230 234 201 205 204 188 187 190 191 190 188 178 185 183 211 214 215 210 221 224 223
199 212 213 210 219 228 213 184 182 192 188 191 187 217 242 246 239 225 231 237 266 249 226 236 227 234 204 200 186 207 209 199 181 185 194 189 202 209 213 219 222 219 211 215 233 234 236 238 233
211 185 224 231 218 223 212 189 182 180 190 190 187 186 214 218 235 245 223 227 236 247 261 236 242 253 245 234 190 191 211 194 202 236 228 226 223 218 219 214 222 223 225 221 234 260 226 208 206
212 223 224 214 224 216 214 198 187 182 194 187 181 187 186 172 219 226 230 237 225 229 231 241 253 257 252 251 242 244 240 231 226 247 236 230 231 236 226 212 214 223 247 237 223 214 223 198 226
214 221 226 227 230 203 209 205 194 176 196 186 188 177 195 184 221 220 227 226 224 262 246 233 231 232 235 238 240 240 234 231 229 223 224 224 225 213 214 209 225 226 208 201 217 208 194 217 205

GFSSGP_2pvu_pres_090.txt.gz
Presure
115 124 103 114 121 118 132 129 112 119 270 101 139 146 257 207 266 264 267 272 271 177 148 97 175 263 257 262 185 150 238 97 99 218 225 205 177 114 107 97 125 135 101 118 126 124 94 100 122
79 129 106 128 113 165 171 155 168 171 168 210 174 220 200 270 137 263 235 261 273 269 273 277 252 262 181 251 260 216 175 231 229 123 236 105 224 193 149 137 187 122 132 132 134 124 125 125 130
157 105 163 230 227 233 246 245 248 118 201 256 172 261 257 259 261 279 312 315 332 338 394 357 259 241 247 249 213 239 238 226 173 179 121 100 227 142 117 217 227 147 123 223 126 131 113 130 126
127 231 115 240 237 251 236 242 229 215 101 253 257 151 307 241 293 297 284 311 281 326 354 256 394 373 242 82 185 81 241 248 131 212 211 236 216 241 216 204 201 231 234 199 225 134 125 112 148
220 212 197 153 178 180 232 206 243 231 250 250 259 291 307 276 278 276 277 276 303 281 244 242 231 368 366 242 231 248 212 201 209 218 204 209 125 224 226 206 187 190 183 172 206 114 224 216 170
232 162 259 191 236 103 188 241 243 239 239 223 369 306 290 273 260 256 253 263 292 270 250 228 206 240 309 211 230 257 203 192 205 200 195 181 196 205 216 213 201 172 164 196 191 182 164 250 125
265 228 210 215 185 213 242 224 115 233 232 271 354 286 275 250 261 248 252 265 279 308 268 243 203 218 334 280 243 201 203 192 209 210 198 184 195 134 199 193 90 109 125 157 173 186 172 123 273
229 222 212 184 217 228 141 223 223 231 220 276 344 273 262 237 249 241 260 260 268 294 239 235 243 244 227 246 208 203 193 208 177 196 199 203 189 170 202 179 200 185 202 175 193 214 202 267 121
218 213 216 223 210 211 208 217 221 217 238 264 333 271 235 228 239 228 245 266 258 256 248 237 263 235 217 206 154 204 191 192 204 207 186 208 202 198 195 189 194 196 113 145 179 189 187 210 213
218 205 204 208 211 200 203 199 216 216 225 258 318 274 236 231 226 240 236 252 246 256 242 203 233 219 207 192 190 188 193 141 173 194 175 210 184 194 177 178 183 135 181 173 124 199 147 187 170
126 203 212 207 187 224 227 220 211 208 215 250 296 278 231 235 222 244 235 236 243 245 210 215 198 202 187 195 93 207 179 177 167 164 191 181 171 89 214 175 150 137 155 200 132 131 155 161 178
209 204 191 210 203 207 224 200 218 207 215 273 288 285 228 234 221 198 237 226 233 241 203 205 198 187 178 182 204 194 192 193 191 187 173 192 182 166 180 217 171 179 200 155 169 193 179 141 150
218 208 190 196 209 220 207 199 207 210 216 247 260 276 225 223 213 212 201 199 195 201 204 194 190 186 189 184 186 182 187 133 184 178 186 158 181 203 171 185 181 191 191 221 183 170 186 178 181
207 207 198 201 218 204 202 199 208 198 212 221 259 279 232 227 203 180 195 203 193 199 191 203 173 188 186 176 122 167 123 171 141 184 167 163 167 160 154 148 180 194 154 170 168 178 167 172 154
211 202 196 211 211 188 197 199 198 195 209 223 259 266 245 213 204 179 221 200 186 192 180 199 152 183 170 167 155 179 170 200 174 178 175 164 134 182 124 181 163 175 205 199 148 122 125 189 177
179 191 210 232 211 193 197 207 196 202 197 214 248 223 272 231 201 199 215 190 194 180 171 198 193 167 189 187 174 158 186 189 196 171 185 167 170 133 130 169 133 167 201 184 197 178 138 120 140
201 208 221 197 210 219 189 193 204 204 197 202 233 241 282 227 219 203 198 177 191 166 174 192 170 191 178 167 170 185 193 143 166 163 165 166 137 155 196 153 187 127 168 165 192 184 178 179 153
187 184 205 213 197 206 206 180 215 197 189 195 218 247 257 282 231 209 189 195 188 169 192 175 200 170 174 177 164 187 184 171 168 166 136 178 163 151 174 158 184 179 171 185 162 182 146 172 185
199 187 204 221 194 189 192 196 189 188 198 202 208 237 253 261 260 216 196 156 184 182 174 161 168 164 181 189 172 179 178 174 151 124 174 182 165 161 173 188 158 181 173 127 179 188 164 169 162
184 193 201 186 199 191 183 180 216 196 194 197 202 222 243 258 263 222 210 187 192 170 173 178 164 164 177 173 185 168 192 183 193 152 177 187 162 156 163 190 174 166 191 125 164 126 137 174 169
188 196 198 205 197 207 168 190 192 191 198 195 197 217 235 242 256 293 234 204 184 186 186 187 170 170 180 180 173 180 162 179 169 178 156 193 120 164 165 169 182 178 161 180 184 174 180 158 169
201 199 193 191 196 183 183 183 205 179 192 198 199 214 230 238 245 267 295 216 197 180 182 188 179 165 190 173 169 180 168 182 164 164 169 164 162 163 163 167 175 173 136 137 170 139 177 183 167
194 202 177 201 192 205 185 208 205 193 202 199 197 200 226 230 247 247 270 218 252 204 186 173 190 197 188 167 182 170 173 161 163 167 171 178 177 182 185 168 184 167 162 174 179 185 182 184 180
203 198 168 177 176 190 191 182 193 189 191 201 185 195 223 225 253 243 277 265 238 186 199 174 191 179 180 170 166 179 170 179 168 169 189 163 178 174 180 170 166 173 173 182 180 176 186 183 180
186 196 199 175 194 194 167 180 177 232 194 201 181 185 207 224 264 237 245 257 269 249 226 191 171 193 181 175 180 177 171 164 171 159 170 170 164 147 151 178 160 174 168 176 184 176 170 186 195
196 194 209 166 189 201 189 172 218 220 167 189 177 186 188 217 232 228 236 237 267 259 229 257 228 189 176 192 199 172 176 177 183 172 175 170 173 172 181 165 168 172 197 182 223 196 223 229 213
198 188 198 198 205 203 195 199 206 222 200 189 191 194 171 213 222 239 230 231 235 270 246 257 239 247 186 184 196 189 186 180 187 177 178 179 178 171 176 217 215 209 186 195 186 227 235 229 233
196 199 203 213 199 190 198 188 211 223 207 188 194 186 186 181 216 216 237 227 228 232 253 265 260 235 241 250 241 229 244 230 208 227 210 198 182 221 196 184 197 226 232 223 218 211 225 241 246
196 202 210 205 199 199 201 200 157 226 195 182 196 187 173 192 195 198 215 221 231 237 225 231 241 252 255 239 239 250 244 242 235 230 227 231 200 198 196 229 237 226 231 220 222 216 224 225 215
206 204 199 201 206 201 215 197 179 230 186 197 191 191 183 194 181 192 193 215 219 225 228 269 224 226 232 234 235 237 234 235 236 238 238 241 241 240 239 229 216 213 209 207 235 212 190 213 199

GFSSGP_2pvu_pres_096.txt.gz
Presure
122 112 116 122 111 114 101 102 126 125 101 132 115 111 118 118 84 139 188 287 227 282 246 136 287 272 180 78 240 110 134 85 266 260 269 160 153 182 156 143 128 110 122 77 117 131 120 111 135
116 132 117 117 116 131 128 90 116 121 128 124 104 154 171 265 178 170 270 256 266 260 95 238 318 372 310 187 274 271 231 250 214 238 250 199 259 219 164 230 221 151 171 110 225 140 111 134 128
99 92 108 127 136 96 117 103 121 121 118 167 209 199 245 255 125 248 256 174 113 161 332 306 223 244 104 239 180 364 248 264 230 245 235 236 243 168 195 207 160 184 222 226 86 197 199 99 102
125 126 110 124 122 125 101 132 126 130 241 224 119 186 252 250 141 290 95 312 273 311 154 264 240 236 227 228 234 383 351 248 244 248 242 228 223 225 217 114 193 223 218 236 174 202 204 202 127
180 241 249 245 244 236 216 220 218 226 143 171 237 209 150 201 143 253 293 291 294 280 250 226 215 210 192 210 201 333 348 314 242 175 244 236 233 229 237 220 226 215 213 201 149 210 213 210 182
217 223 219 233 230 231 229 230 226 212 231 242 151 218 232 157 278 295 279 279 273 259 244 243 233 196 200 186 217 229 248 211 190 132 231 236 171 241 227 214 215 202 191 218 218 164 231 180 181
203 220 162 184 227 156 211 158 141 227 206 222 240 240 245 238 347 280 271 269 272 253 252 232 245 237 194 188 193 211 214 237 285 218 234 244 236 242 204 209 223 167 220 219 242 217 221 220 218
210 132 224 236 211 221 225 162 223 217 236 222 225 227 236 247 293 270 263 262 262 245 234 216 215 201 187 190 184 202 181 181 347 217 235 251 213 206 225 204 201 215 193 230 219 218 105 193 134
201 195 217 214 223 227 193 225 219 220 217 232 230 224 224 233 274 264 246 259 238 248 220 214 203 211 201 216 189 189 190 194 205 213 234 210 199 201 208 204 236 240 205 207 200 199 195 173 195
196 203 184 191 175 208 190 219 215 229 147 208 148 223 223 223 269 250 237 251 247 240 214 208 192 200 213 196 205 202 191 216 222 212 213 198 204 201 188 218 208 207 194 193 195 207 213 171 164
187 200 203 200 189 215 214 211 207 87 221 184 215 213 213 228 252 246 236 238 237 260 212 200 197 198 195 197 202 207 212 217 210 200 90 191 187 194 213 191 203 199 196 167 195 186 190 196 176
203 188 198 207 211 195 208 198 225 198 226 236 209 213 213 226 222 284 234 225 223 234 265 215 203 209 206 215 213 220 216 211 221 191 172 114 210 203 189 174 195 175 174 176 134 93 107 205 156
189 194 184 198 201 198 192 214 205 220 131 203 217 215 217 210 227 297 231 226 211 234 255 239 214 227 219 207 201 181 191 221 199 199 188 190 189 189 215 190 179 189 187 183 181 182 164 157 135
194 190 184 203 189 199 191 211 202 201 215 214 211 206 218 204 217 260 229 216 186 206 223 213 239 229 204 203 189 209 208 175 195 197 196 177 185 206 184 178 196 149 188 200 165 181 164 144 159
153 194 180 194 192 196 194 213 207 201 202 209 220 211 221 204 209 245 255 207 211 206 211 221 192 232 215 236 230 217 216 205 200 193 125 214 174 196 179 181 190 173 197 124 177 177 157 147 166
185 192 187 192 178 192 195 210 198 200 200 201 210 189 200 217 200 233 285 208 210 192 216 226 206 200 206 193 204 195 209 206 169 191 191 174 182 178 183 137 169 174 151 159 161 157 161 143 152
196 188 196 164 191 198 199 204 198 197 198 197 191 209 193 226 204 237 257 228 207 194 206 223 203 211 211 197 190 199 191 176 204 199 176 146 165 183 168 160 130 156 192 150 186 152 155 185 172
191 191 200 198 197 198 195 198 190 201 201 193 210 212 200 220 206 225 252 285 210 201 207 218 194 204 208 196 165 191 171 171 173 161 190 176 177 160 160 173 217 154 140 128 152 169 179 166 170
189 202 194 198 181 204 194 190 197 199 202 188 195 196 197 196 199 211 248 263 212 198 179 214 192 204 194 189 164 175 180 170 182 167 138 194 189 171 162 113 179 147 138 163 179 128 127 127 149
197 196 186 199 204 205 189 193 195 205 211 192 191 193 184 241 206 213 237 241 259 194 203 194 200 186 192 180 189 180 181 188 178 190 169 178 164 140 183 151 162 136 117 148 173 173 156 164 129
203 189 192 187 189 209 178 178 178 200 179 193 192 164 221 236 220 203 224 278 293 199 199 182 195 186 190 182 168 180 184 175 176 164 163 168 153 167 164 165 177 155 163 150 146 176 190 171 171
197 197 196 183 199 208 179 175 191 203 191 186 198 189 186 242 210 199 214 258 255 288 199 183 180 190 188 193 186 168 189 179 179 181 162 162 173 135 168 175 134 155 183 180 180 136 171 171 181
203 189 198 209 202 212 185 175 179 204 185 182 193 195 210 234 217 214 209 244 245 307 282 201 185 189 183 187 174 190 171 161 196 180 166 187 163 161 162 162 160 173 171 171 168 182 176 161 162
208 201 200 201 203 200 194 201 184 201 192 188 184 200 201 217 221 210 201 228 243 247 269 199 199 191 192 182 191 169 187 177 172 169 178 182 169 158 165 167 189 188 166 169 175 171 172 175 169
205 202 205 200 209 199 195 204 194 188 180 188 186 178 194 217 224 199 184 211 241 236 284 247 198 196 186 189 182 185 180 180 172 171 179 183 172 171 176 179 165 176 167 177 175 168 169 172 173
209 214 216 197 204 201 205 210 189 185 186 183 153 174 140 207 226 202 195 199 225 242 239 271 268 202 185 187 189 185 170 178 174 171 188 180 164 170 177 173 168 164 168 172 170 180 170 170 171
204 200 212 201 206 201 207 203 189 196 187 195 177 156 161 169 227 213 194 183 206 222 239 241 262 225 201 180 183 184 186 184 169 176 181 176 173 171 163 165 173 173 171 175 176 180 162 178 174
217 204 204 205 216 217 208 214 199 194 194 183 178 187 185 199 210 202 197 197 185 202 224 237 236 267 226 196 191 180 178 180 180 181 184 178 180 175 180 180 169 177 181 176 169 178 180 173 180
216 209 218 220 196 211 210 200 204 184 191 187 193 206 193 185 205 220 210 200 196 183 209 227 237 235 262 257 242 229 193 188 182 178 181 185 183 180 165 169 180 181 186 176 181 172 177 192 228
208 206 217 199 211 224 214 201 197 182 194 186 210 186 178 189 200 211 210 193 191 191 190 207 224 230 240 241 253 254 247 239 233 228 192 188 187 176 195 198 198 233 242 240 229 227 217 228 256

GFSSGP_2pvu_pres_099.txt.gz
Presure
130 118 119 108 117 129 127 134 133 118 133 110 140 97 98 107 113 120 100 128 119 103 170 150 249 290 167 131 252 68 117 174 110 169 256 144 143 289 142 137 124 111 136 73 121 87 133 131 134
119 109 106 104 112 109 106 122 96 126 76 97 110 101 99 130 124 129 115 115 273 147 338 315 351 131 371 209 287 301 171 241 275 265 285 258 266 274 277 270 269 172 115 140 123 131 135 134 108
96 123 125 116 99 123 107 102 130 124 121 121 133 128 141 132 134 150 190 178 210 157 282 330 336 263 245 240 150 235 242 381 261 262 259 265 256 168 152 270 251 246 74 228 236 238 220 220 110
208 219 229 139 224 237 175 133 131 129 239 223 225 229 240 245 245 88 209 144 135 306 155 130 261 244 232 240 225 230 219 246 346 278 252 251 245 255 238 256 171 254 232 166 77 99 236 225 215
213 207 226 207 190 236 181 223 211 236 235 215 225 235 197 230 181 253 144 311 306 294 304 255 260 243 247 205 197 206 204 208 250 335 241 243 220 254 245 222 214 241 223 219 218 226 146 206 117
218 207 192 200 220 220 240 158 189 238 237 188 224 142 166 235 139 217 240 293 295 280 258 260 230 228 225 221 175 201 181 191 215 368 265 237 243 227 229 234 231 167 154 205 218 211 210 158 170
209 195 222 217 211 211 215 208 240 154 157 155 215 154 143 237 243 245 281 288 276 277 254 252 245 249 243 299 220 169 165 177 207 231 232 223 179 239 224 231 234 205 211 211 210 227 210 201 148
215 209 219 209 208 185 195 230 132 208 189 232 230 230 230 226 235 235 286 96 261 265 250 239 236 233 255 245 168 181 195 181 203 220 345 212 241 227 245 236 218 219 206 209 205 207 221 240 220
178 198 200 194 193 178 206 186 207 222 121 221 220 230 220 224 225 226 265 256 250 251 256 223 238 226 224 211 200 175 165 182 167 176 195 179 225 241 229 238 230 202 194 197 201 232 224 221 192
201 194 192 195 190 203 194 199 197 205 213 217 228 186 246 216 227 230 283 243 248 239 253 216 233 239 224 202 236 182 179 171 177 173 210 208 207 244 224 204 208 207 193 206 182 199 199 208 208
184 196 195 187 163 178 204 194 201 207 211 232 202 211 232 228 214 216 305 243 237 236 250 221 222 218 207 207 191 186 187 170 169 193 194 183 203 204 200 200 213 204 196 204 202 196 199 190 187
208 219 187 208 201 151 195 198 204 174 205 217 223 199 229 208 224 214 221 264 225 238 236 215 211 216 218 207 184 193 191 172 169 185 171 182 211 181 194 199 203 212 212 222 200 196 170 195 179
186 209 203 199 201 195 199 189 200 194 200 214 204 164 120 212 237 214 224 269 238 209 235 200 212 209 202 186 200 191 174 190 170 170 176 237 196 203 198 95 187 202 179 188 181 186 168 168 177
214 178 207 196 194 185 182 199 198 203 200 173 215 132 218 219 204 215 226 274 235 226 236 198 200 208 199 200 194 197 182 200 191 175 186 208 206 190 200 188 199 177 161 191 189 168 158 164 168
207 198 214 207 199 200 182 193 204 191 196 206 204 198 210 218 196 225 222 258 231 227 222 189 200 194 207 195 197 181 196 184 198 189 173 203 194 198 190 195 190 189 195 174 182 171 182 176 181
176 207 216 200 188 206 190 190 196 191 197 187 198 202 196 211 197 229 209 225 295 220 198 226 234 185 194 189 186 193 182 184 182 177 188 175 199 194 174 200 186 178 180 163 161 157 162 172 156
203 191 206 197 202 202 180 188 182 189 133 199 191 202 199 201 216 221 207 218 269 216 215 219 232 233 228 190 203 218 202 186 187 200 220 183 199 204 182 166 198 186 179 157 119 150 154 148 174
202 202 185 205 203 193 192 186 197 192 198 190 193 199 201 210 199 203 205 217 256 215 211 209 220 171 226 226 216 216 205 209 204 212 172 163 186 212 158 142 189 156 176 161 158 169 120 188 138
214 215 220 213 209 205 200 190 194 193 190 189 194 201 202 197 208 192 197 210 230 224 209 196 194 229 209 208 212 216 208 185 181 214 164 164 191 180 142 154 179 157 178 162 157 120 198 150 161
214 200 209 202 200 198 177 188 195 184 191 196 203 190 203 193 202 209 230 207 231 295 213 181 181 222 195 203 201 173 208 196 197 214 172 172 158 146 182 162 169 132 166 139 130 137 111 154 171
223 215 210 209 203 203 191 196 190 190 189 188 193 197 192 176 190 203 224 202 219 282 214 207 198 198 200 187 175 214 188 190 177 176 166 165 181 180 171 163 155 166 151 167 144 156 129 155 167
216 206 209 202 210 72 197 200 177 188 188 187 195 191 193 191 193 215 233 205 209 267 292 202 189 204 207 192 190 191 194 184 177 178 179 175 176 161 140 171 175 179 123 148 170 167 171 196 157
218 215 212 211 208 214 201 172 182 193 186 189 180 197 191 194 145 204 236 210 201 249 280 202 184 193 213 187 183 181 183 179 178 179 179 180 182 182 177 156 150 161 135 171 161 144 146 173 187
222 206 207 209 203 219 185 200 197 180 187 189 181 198 191 190 198 211 239 212 205 234 234 249 193 187 189 182 188 195 172 180 170 164 162 163 169 157 182 181 183 180 162 177 167 164 174 159 171
217 214 205 214 205 194 201 198 201 196 186 194 194 197 193 197 200 200 239 209 192 218 250 274 274 193 182 183 182 197 190 178 178 179 172 175 165 176 165 193 173 160 176 188 175 170 175 175 173
223 214 213 213 205 212 200 201 203 192 190 197 198 193 188 185 172 188 217 226 190 215 234 248 290 215 189 183 183 183 195 181 182 194 167 166 171 184 169 176 176 186 175 172 162 172 174 164 166
231 220 207 213 210 204 217 204 202 194 196 204 203 192 188 188 164 135 192 232 209 199 209 240 251 275 232 183 183 182 181 177 193 183 204 180 200 194 180 168 190 174 171 170 177 174 171 172 169
230 229 212 223 207 211 203 208 202 197 196 200 204 197 189 188 189 177 158 189 213 184 201 217 239 250 270 225 185 183 183 182 174 186 180 174 175 173 169 183 164 178 175 171 173 171 160 161 165
232 230 209 227 223 208 214 210 208 197 196 200 197 196 204 197 193 184 175 162 222 178 192 202 223 238 235 273 237 187 183 182 181 174 173 182 182 173 183 178 179 179 175 173 173 172 171 183 178
226 217 214 243 209 199 200 213 207 219 202 198 196 203 193 214 192 186 190 183 224 207 199 195 204 225 229 233 276 247 211 192 189 179 182 182 180 168 170 173 176 178 175 170 179 182 162 180 198

GFSSGP_2pvu_pres_102.txt.gz
Presure
123 113 129 116 124 128 115 117 103 112 110 115 111 119 133 126 96 122 95 99 104 136 115 118 117 100 132 78 142 124 151 182 75 139 151 158 162 166 167 143 131 133 134 137 140 139 135 132 93
130 105 128 132 137 134 123 137 106 111 101 119 112 113 118 105 107 119 111 136 105 76 104 124 119 250 319 279 148 270 261 304 305 198 198 270 172 261 254 271 275 256 194 186 152 143 133 122 143
116 121 217 203 147 159 195 194 139 145 223 130 126 131 124 143 124 128 121 239 138 106 243 281 269 223 311 108 146 257 138 170 242 265 284 268 213 173 256 269 254 236 281 141 250 225 222 230 188
222 220 223 210 224 181 224 217 232 240 225 233 136 131 243 123 228 229 163 249 86 256 266 267 300 328 281 270 248 224 123 220 210 197 220 291 230 221 253 241 255 273 272 248 256 265 246 92 90
146 133 224 210 199 211 229 170 228 243 213 219 228 238 199 183 221 237 239 142 190 136 174 134 178 246 260 252 230 231 226 210 213 205 216 237 231 203 219 259 244 252 235 145 253 224 221 234 216
206 204 202 213 181 163 163 191 175 207 217 233 231 220 230 238 127 183 159 243 139 285 212 286 192 250 243 238 233 209 206 160 193 205 213 200 277 215 218 217 255 249 230 227 232 217 166 170 210
191 183 189 186 192 186 198 193 221 209 204 189 214 212 138 219 207 235 234 236 241 258 243 279 238 246 245 235 227 215 224 185 169 186 178 186 329 221 204 216 210 238 191 226 218 217 223 221 222
193 200 175 210 207 210 189 189 212 197 217 201 207 208 221 236 227 210 232 232 282 252 244 251 230 249 239 243 211 211 220 231 182 176 179 162 194 207 211 224 241 196 223 206 219 214 205 216 210
213 201 204 222 187 186 162 208 179 197 184 205 198 218 236 230 238 247 227 224 282 255 243 278 235 261 224 222 221 234 174 185 174 124 173 190 182 171 176 253 225 225 212 216 210 201 207 201 196
211 219 185 199 205 177 211 199 189 198 187 199 217 199 207 232 232 198 243 143 266 261 237 286 240 250 216 242 225 194 196 190 170 173 166 182 171 177 209 223 218 230 220 194 202 198 202 200 192
182 218 219 204 173 204 216 201 185 193 194 193 198 206 203 222 221 242 253 215 216 253 240 259 261 210 222 200 197 194 192 197 169 160 168 169 168 180 186 223 166 204 201 192 197 196 204 193 193
222 242 213 201 223 226 197 184 192 191 198 201 143 195 200 212 227 233 213 212 218 254 240 253 244 249 193 241 203 168 189 201 159 185 172 179 178 185 199 178 255 238 198 193 192 184 196 177 211
209 236 219 190 201 206 155 181 207 201 192 182 201 197 166 207 209 222 140 211 210 250 226 248 236 217 220 189 180 182 178 173 169 182 166 183 191 171 174 183 223 196 211 207 204 197 185 191 194
192 228 173 216 236 182 217 205 170 192 191 186 196 198 195 205 133 222 213 239 203 253 227 249 231 228 204 187 190 177 197 183 167 174 169 199 183 161 169 182 210 184 187 204 195 214 183 192 191
175 227 202 211 220 222 220 210 195 194 193 193 196 188 194 208 211 206 219 230 212 254 218 223 224 222 210 195 178 209 186 189 180 187 164 181 183 174 176 177 180 197 203 199 200 193 184 181 178
245 240 225 193 217 204 233 208 193 193 192 195 189 195 178 203 203 213 215 200 213 230 225 225 242 203 200 215 192 206 212 179 195 191 176 190 182 185 165 176 183 206 189 202 192 173 185 173 193
212 247 220 269 228 192 231 214 195 197 194 177 181 186 178 196 203 210 219 198 203 239 224 214 238 208 204 194 199 206 183 177 196 172 188 167 179 195 178 178 189 159 193 192 187 179 185 159 169
265 257 337 282 227 229 226 231 197 198 189 186 186 84 193 196 205 216 204 213 214 226 237 214 222 228 189 195 201 208 179 186 191 180 180 170 181 182 170 196 198 185 152 193 176 162 171 136 166
246 358 324 262 217 214 222 232 198 192 202 186 184 184 194 184 210 210 209 211 191 217 260 219 214 220 247 193 181 199 207 179 177 190 171 176 185 193 200 203 204 183 167 198 172 147 160 150 155
268 338 313 235 228 232 218 226 195 197 197 186 188 188 195 193 203 206 218 200 215 212 242 214 212 211 222 241 194 191 179 193 187 185 175 191 183 167 207 172 157 184 194 148 172 164 168 159 165
344 314 290 244 224 238 233 231 206 193 196 182 170 196 191 188 192 199 203 208 221 223 201 283 213 213 209 215 226 215 209 211 193 188 195 195 195 168 201 168 163 160 151 157 164 163 155 143 164
344 298 248 242 248 226 234 227 203 197 198 183 185 192 197 194 193 197 196 203 194 235 202 257 210 209 198 181 206 215 197 211 193 210 215 200 177 172 177 172 161 175 172 138 149 157 164 165 187
330 293 270 236 250 239 229 227 203 200 144 188 190 181 186 184 188 191 208 201 198 235 207 217 306 209 206 202 191 204 199 199 211 191 200 173 198 163 164 155 167 172 163 161 143 155 146 157 178
305 290 269 226 251 243 224 227 208 202 191 188 186 176 189 188 188 185 201 193 222 243 206 247 287 202 205 192 192 206 195 185 196 199 184 181 173 175 168 171 180 183 164 171 185 186 178 187 180
296 276 268 230 250 219 220 215 195 198 195 189 189 196 199 185 197 186 194 190 215 247 205 240 254 235 202 204 190 206 196 185 176 204 206 192 163 170 165 169 169 174 154 169 171 163 161 158 154
299 276 272 242 244 230 219 228 202 206 198 189 190 198 193 199 198 197 180 193 212 226 209 193 226 290 193 189 200 187 205 176 182 181 180 181 175 174 171 162 169 174 178 166 193 172 165 183 178
288 266 269 253 256 232 218 216 206 200 202 195 193 193 198 187 192 192 201 194 204 186 244 198 224 229 229 190 192 193 185 203 177 183 180 176 174 171 175 178 167 171 181 180 177 194 175 180 178
296 266 257 242 248 220 218 204 214 206 200 189 190 191 196 179 177 201 197 177 182 186 225 205 194 232 254 229 183 192 190 188 187 184 168 189 190 188 180 173 181 184 197 170 190 184 175 183 174
284 271 253 242 233 228 209 207 207 213 202 201 196 196 200 196 202 202 196 162 191 187 184 231 197 198 237 256 233 186 193 189 188 185 185 182 186 183 182 181 179 180 184 182 183 171 172 183 174
292 266 250 237 229 227 215 213 199 210 211 205 201 203 197 198 203 201 200 200 184 158 206 167 224 192 197 241 249 265 189 191 183 187 183 180 190 177 174 178 173 181 179 183 181 177 171 166 170

GFSSGP_2pvu_pres_105.txt.gz
Presure
121 123 125 116 121 123 119 113 112 125 118 117 112 114 122 119 103 96 101 87 98 139 106 103 102 104 122 106 121 116 85 113 110 120 137 79 134 157 148 78 145 138 142 141 130 148 134 131 124
141 151 151 144 146 143 143 139 150 124 125 137 131 119 106 99 151 134 137 129 129 129 114 125 90 125 183 175 142 154 181 113 203 239 207 312 232 160 269 191 265 260 278 259 207 165 156 157 155
203 222 220 215 181 158 197 216 219 191 227 234 243 221 201 142 205 253 224 211 248 125 189 266 76 278 276 277 317 271 231 263 263 267 234 251 190 133 142 262 281 264 253 169 254 263 269 242 165
207 124 218 211 215 140 222 218 160 188 213 219 225 218 244 254 219 250 251 252 263 257 233 264 262 293 279 270 327 196 251 245 237 225 212 225 225 258 236 127 220 208 267 254 255 138 240 307 281
189 209 208 192 190 197 216 209 213 196 175 210 196 184 201 221 152 173 241 240 233 252 233 254 269 297 268 217 173 255 128 236 219 208 223 209 179 214 232 227 227 229 254 275 244 229 252 247 258
198 199 196 194 194 193 176 199 193 202 198 229 202 223 216 220 219 235 259 241 212 226 173 182 291 250 289 253 252 215 242 221 207 203 201 206 206 212 228 232 217 224 237 252 247 229 244 237 203
197 200 209 193 216 200 216 219 199 186 203 227 196 203 212 199 216 214 244 251 245 214 237 239 243 285 251 246 234 222 226 211 205 197 204 199 205 203 191 241 235 213 157 209 244 241 221 160 228
195 196 188 197 207 178 238 191 217 207 222 204 213 212 215 207 191 219 241 238 232 243 238 222 254 259 240 249 220 241 229 198 218 208 203 186 203 193 203 178 189 201 229 223 233 208 218 227 225
220 194 184 214 204 185 196 206 173 194 203 208 207 217 209 207 208 217 224 237 233 243 229 224 268 242 222 232 219 233 203 208 207 216 183 190 187 192 176 182 189 187 231 231 214 223 210 212 220
192 212 225 235 203 185 225 205 206 210 186 202 174 207 205 203 208 175 227 232 221 242 240 212 266 228 227 233 247 213 201 180 207 180 209 192 183 192 182 190 175 188 212 205 219 205 212 216 204
196 216 191 246 222 218 212 197 221 204 208 200 203 204 204 207 202 169 159 226 196 212 229 297 252 266 219 227 210 203 209 200 189 215 206 184 195 179 183 175 175 179 205 234 223 230 222 211 205
188 190 241 242 188 209 208 230 221 220 166 211 203 187 208 194 197 209 203 238 222 233 227 211 255 240 264 235 187 192 189 194 202 193 174 194 187 189 171 190 169 186 180 230 218 242 208 200 196
201 214 231 222 236 209 190 215 230 233 225 217 204 200 190 202 193 202 194 228 220 226 224 287 252 245 194 199 211 211 222 199 179 172 191 188 189 183 177 185 187 203 174 220 189 200 206 188 199
210 213 241 236 221 233 234 228 179 216 220 214 207 204 184 199 195 201 194 213 182 207 207 280 245 243 204 199 206 182 178 181 183 181 181 169 190 183 182 182 183 156 183 205 207 207 193 187 183
198 219 207 233 223 217 213 241 242 200 223 234 206 191 196 198 199 200 200 205 222 205 194 274 241 241 203 203 195 209 175 184 179 183 185 181 183 159 200 187 178 177 183 181 193 212 203 210 201
204 205 203 216 233 237 215 242 234 227 232 236 201 196 199 195 188 192 196 178 216 205 194 209 243 239 209 214 182 183 191 175 194 170 174 176 180 159 166 196 172 194 193 191 174 193 200 192 182
207 217 221 225 240 233 227 128 228 290 237 226 201 197 196 197 182 191 164 205 217 208 203 207 241 228 220 191 186 184 182 174 185 188 172 175 173 173 181 164 185 160 177 174 180 188 209 174 179
216 237 231 236 242 223 270 262 342 262 224 228 199 197 195 192 188 117 180 194 210 223 203 206 220 249 229 197 202 198 181 175 171 179 184 184 186 185 171 193 172 179 181 171 160 181 172 185 171
214 230 222 227 271 264 266 321 330 265 240 236 203 197 197 186 84 188 188 195 207 223 190 223 195 234 223 202 203 196 172 170 176 175 173 182 172 182 166 160 176 176 169 163 176 186 167 175 189
224 227 237 263 229 275 254 334 316 243 231 193 204 198 197 195 190 190 197 195 205 216 206 247 206 245 242 233 204 191 171 172 171 188 174 191 161 172 163 182 182 178 177 182 184 158 178 188 164
223 235 263 274 248 244 335 324 295 241 203 233 181 200 198 195 189 190 198 197 204 195 219 233 225 214 228 211 224 183 203 179 196 191 194 191 158 166 188 160 190 184 190 183 160 181 154 177 163
247 251 258 242 263 277 332 322 279 234 202 179 216 208 195 186 193 192 196 184 199 203 221 219 230 199 242 233 232 207 207 202 172 186 207 171 180 171 162 184 175 164 196 176 150 168 168 158 166
259 260 252 249 273 322 310 319 240 233 218 227 211 162 196 193 186 191 191 181 200 197 220 224 233 212 262 216 220 216 201 202 200 181 186 179 186 175 171 185 167 194 186 169 186 145 169 162 174
270 261 240 270 275 412 276 271 251 233 226 222 211 197 205 196 189 190 190 193 193 192 213 220 234 214 253 221 219 212 218 237 211 194 188 183 193 193 195 187 227 163 173 172 179 174 184 173 167
253 263 252 286 352 378 277 272 240 227 222 212 207 200 204 196 197 192 202 191 180 198 202 205 240 206 218 262 213 216 204 212 223 227 195 195 219 226 211 213 169 164 179 174 160 150 181 162 163
227 241 271 271 387 343 282 253 241 219 220 219 209 210 204 198 196 196 204 183 167 205 197 201 248 201 229 275 212 204 212 200 191 211 193 199 193 173 193 193 201 172 178 153 162 166 169 167 175
246 275 269 383 371 334 286 256 239 230 216 208 199 201 191 200 199 201 199 199 199 193 209 203 204 215 191 254 216 198 199 207 190 199 198 206 196 188 193 199 185 171 172 169 177 174 178 170 149
273 278 375 366 348 310 265 259 234 229 208 207 197 201 203 206 200 195 191 196 183 178 199 182 198 247 198 212 273 204 193 191 194 191 196 200 183 182 182 197 182 176 179 176 172 173 173 172 176
276 373 359 347 327 304 263 232 227 217 212 199 205 200 200 211 201 195 195 158 194 192 196 201 202 203 221 191 239 256 195 193 185 189 193 183 199 195 171 176 182 184 179 173 177 175 173 174 188
334 331 366 335 307 282 265 244 217 210 215 210 208 207 202 213 204 198 193 197 196 170 205 202 169 213 236 213 179 242 212 191 202 190 192 189 188 182 182 181 181 182 187 187 185 186 183 173 176

GFSSGP_2pvu_pres_108.txt.gz
Presure
129 130 128 127 127 116 109 117 118 119 120 121 119 116 117 118 119 126 121 130 127 93 96 88 115 121 77 127 133 97 95 106 117 77 101 84 72 114 117 103 118 111 114 82 138 137 145 123 135
172 218 218 200 224 209 148 148 145 194 139 141 180 134 127 123 134 118 134 96 132 129 135 214 137 191 181 78 185 112 126 188 125 125 115 156 114 91 124 83 90 141 146 137 124 152 147 151 147
204 207 209 211 213 218 217 190 156 218 217 202 224 220 209 209 229 150 98 235 238 181 233 250 254 273 264 86 183 280 284 242 302 344 272 298 281 283 274 177 238 107 231 110 238 269 268 160 234
130 161 222 181 202 213 204 178 208 209 158 210 206 209 139 201 239 208 224 160 231 229 227 237 267 266 268 256 81 310 84 309 204 252 105 243 224 137 277 283 276 226 245 257 253 281 239 127 239
212 206 201 197 201 205 201 205 206 207 218 214 202 227 204 200 231 198 228 238 224 165 270 167 265 264 251 128 297 192 248 256 189 233 127 154 129 218 216 233 251 213 238 234 233 251 261 245 270
187 189 193 201 196 203 194 190 207 200 190 222 203 225 220 216 230 213 237 228 215 218 256 258 249 245 245 276 255 249 237 194 135 189 221 136 217 189 169 204 210 219 236 232 236 225 277 262 247
200 200 192 199 217 216 236 247 240 230 208 187 209 187 221 186 202 190 224 226 218 228 244 250 256 244 249 226 288 231 210 218 118 218 229 239 212 212 196 209 254 247 241 216 220 207 249 219 241
108 209 206 209 209 184 214 197 219 240 231 240 211 221 188 214 190 218 205 213 234 234 236 240 252 238 239 281 267 240 236 227 204 206 205 205 231 210 201 191 202 183 208 211 216 229 253 258 238
199 188 202 223 190 220 221 217 198 247 231 224 228 210 216 207 208 199 194 221 225 222 245 239 248 236 214 282 241 228 242 203 218 207 205 219 223 215 194 204 199 192 180 178 207 171 243 227 210
206 201 208 220 210 220 209 224 237 259 232 223 211 220 207 211 197 200 210 211 210 202 235 237 245 215 264 239 233 225 229 207 202 201 196 199 207 198 200 200 186 194 189 180 199 232 220 209 210
198 191 196 199 221 229 199 182 224 249 253 211 233 229 234 168 203 206 193 214 200 216 223 233 228 232 267 268 225 229 240 198 202 202 197 182 187 210 173 203 201 187 181 183 177 252 209 221 205
189 190 186 202 201 215 213 220 216 234 236 201 202 199 229 200 199 197 193 205 206 216 224 233 227 222 265 267 227 231 214 208 200 192 187 179 174 184 214 206 130 175 108 169 176 210 226 221 221
198 187 189 196 197 204 210 215 224 232 239 223 180 225 250 228 199 190 193 184 200 206 220 206 217 217 89 246 220 213 206 212 184 183 186 185 174 178 201 176 192 195 190 179 171 182 224 224 210
204 194 192 209 205 209 207 218 209 231 222 219 215 227 227 240 199 192 194 189 205 210 221 229 195 216 268 234 257 202 180 202 182 184 181 167 197 197 211 194 193 185 183 187 169 174 183 202 223
194 203 198 204 195 221 214 221 223 221 222 230 257 234 226 225 202 198 195 88 212 200 218 225 204 210 255 227 243 249 209 196 190 192 192 176 193 193 191 195 168 193 190 159 187 192 166 192 212
197 201 202 193 210 201 226 205 224 216 222 282 239 255 258 212 205 197 198 195 199 196 221 207 213 206 245 230 201 207 194 199 213 202 195 185 181 157 201 195 193 177 190 165 177 178 201 190 182
203 200 186 191 193 200 207 222 234 233 237 236 287 266 241 225 205 196 190 192 140 203 220 221 226 199 249 232 213 201 208 197 198 189 191 182 172 180 199 155 188 173 157 173 180 191 189 178 175
198 197 199 197 197 222 223 238 70 238 274 245 274 283 279 246 201 196 197 191 197 202 96 219 209 199 223 244 212 198 203 185 183 176 196 188 181 173 182 207 187 177 172 155 167 173 165 170 166
204 214 208 205 203 219 222 229 231 128 268 266 263 341 246 237 203 194 193 195 201 185 170 208 215 217 215 273 191 187 196 199 176 184 169 173 168 188 195 165 185 189 189 169 174 172 181 164 166
197 202 209 211 210 224 229 243 129 281 261 266 345 308 241 228 206 193 193 197 178 192 195 213 216 196 235 247 203 190 194 194 183 185 178 169 177 192 172 173 189 173 187 156 181 166 171 151 158
196 197 206 214 211 220 236 192 236 230 253 327 356 278 223 229 201 199 195 196 199 198 202 195 215 211 199 221 249 198 185 191 180 179 182 183 186 178 177 179 177 169 162 169 185 171 189 176 185
207 225 209 212 216 223 227 261 258 270 258 378 326 234 222 227 189 195 191 201 193 195 205 209 212 210 235 250 251 218 205 183 190 180 178 187 169 192 167 172 176 187 168 159 170 183 174 173 184
211 210 213 222 222 231 230 257 297 237 330 357 267 234 225 211 196 195 198 203 195 197 199 203 200 213 233 195 218 306 206 190 208 193 177 186 166 168 171 177 179 171 161 190 163 171 174 172 185
219 220 220 229 236 248 243 266 212 256 369 336 242 243 216 214 201 203 196 200 195 197 191 197 201 216 223 225 203 283 215 192 191 180 186 181 167 178 167 169 177 177 185 168 164 166 173 157 181
213 231 234 227 239 229 69 99 225 380 343 324 241 236 221 203 198 199 203 196 159 183 199 201 197 212 217 233 207 246 312 203 216 196 191 183 175 178 161 167 169 177 174 180 172 158 171 162 181
205 209 217 238 247 261 282 295 262 392 325 266 240 227 231 199 200 196 191 200 196 199 209 179 204 216 207 232 195 223 294 221 219 211 187 185 183 180 183 171 171 170 189 175 178 188 212 222 184
238 243 244 242 259 292 286 239 271 359 299 238 238 230 228 210 208 198 201 203 206 180 206 196 206 216 204 217 194 219 278 245 205 222 232 203 194 193 217 194 205 190 192 157 204 161 166 200 166
237 227 233 252 257 242 249 261 394 327 278 250 235 230 233 215 204 199 201 213 199 190 209 210 202 196 193 213 215 202 248 273 213 200 201 218 217 213 217 213 212 196 199 198 199 199 190 172 176
236 236 258 275 285 264 259 406 368 292 254 243 218 226 230 203 201 206 202 210 207 197 192 179 203 213 191 200 235 190 201 248 224 212 199 186 197 202 204 197 191 193 184 193 197 192 173 189 170
95 261 265 293 265 294 412 368 331 284 244 233 221 215 222 218 197 205 212 202 202 212 200 208 206 207 205 191 215 224 197 203 238 206 206 195 195 184 191 187 198 181 176 180 181 185 185 182 190

GFSSGP_2pvu_pres_111.txt.gz
Presure
139 129 135 135 135 132 128 115 123 121 124 122 112 117 120 119 122 124 85 123 118 125 135 131 131 129 102 92 116 104 96 100 103 132 131 103 121 82 108 92 113 127 130 122 101 116 119 118 126
179 188 148 227 176 236 205 191 142 225 216 179 173 128 122 125 127 134 133 178 133 133 132 132 125 132 127 121 147 127 139 132 125 101 87 111 140 113 114 118 80 117 115 122 97 122 111 139 88
216 208 212 210 216 217 230 220 215 215 211 187 189 209 218 229 201 191 143 208 176 189 177 207 254 160 279 146 195 238 156 83 301 264 294 284 260 115 217 220 144 121 156 106 155 153 149 156 151
160 210 199 208 215 210 163 192 198 203 215 203 207 232 218 213 201 223 217 238 217 195 198 101 164 260 239 153 145 256 276 273 303 320 321 279 281 314 91 142 230 272 238 252 265 267 269 87 263
176 172 217 166 164 207 210 164 166 210 231 235 242 244 230 204 204 209 227 211 232 229 155 239 225 230 261 276 273 253 282 303 282 154 321 257 280 223 90 248 131 279 264 259 248 248 246 225 226
142 202 198 199 214 179 178 190 212 210 225 230 211 229 250 236 213 202 195 204 202 209 206 238 231 242 254 258 257 268 243 247 200 246 247 228 108 101 216 220 275 154 278 203 131 234 127 125 135
195 208 214 208 208 210 217 205 225 234 185 218 271 226 225 249 240 214 205 226 193 212 213 237 232 241 252 230 247 245 263 288 240 227 213 203 234 162 131 217 222 259 133 229 227 231 231 237 256
201 208 194 203 202 201 215 209 213 231 232 201 214 245 254 236 248 228 195 215 192 216 203 206 230 243 242 252 225 237 294 241 225 221 217 116 239 213 222 207 221 203 129 95 236 221 230 227 222
207 202 197 196 197 200 206 207 207 223 221 218 224 232 248 214 242 209 205 217 224 216 205 217 206 226 226 242 236 244 294 234 223 217 224 220 214 213 215 239 222 236 211 202 204 201 221 243 242
199 193 196 196 157 199 198 212 198 222 219 217 232 217 238 239 207 236 221 194 195 209 211 204 209 206 238 237 223 220 238 230 214 216 222 212 205 201 221 205 195 200 195 179 205 192 184 189 224
203 181 191 195 202 199 195 218 208 223 207 228 222 219 229 238 223 201 235 215 214 210 212 206 208 200 225 239 229 264 232 229 210 204 218 207 198 195 196 201 190 187 200 201 177 174 195 207 175
192 175 189 188 197 196 212 206 208 215 222 213 220 215 225 234 219 216 210 214 212 207 212 194 194 207 232 230 212 263 224 226 216 206 220 206 205 204 212 192 193 181 195 185 179 186 161 193 220
193 182 193 191 193 193 197 195 218 201 221 211 213 215 215 223 233 227 222 215 213 210 204 183 216 195 223 229 242 261 213 232 208 197 196 193 192 196 187 179 182 193 216 200 191 189 176 177 191
182 193 183 182 187 189 211 207 199 216 204 210 222 229 219 229 242 265 231 217 211 215 128 202 213 224 226 239 251 250 158 216 211 192 191 194 189 186 184 181 197 177 194 189 183 185 173 181 194
190 177 194 182 189 209 203 204 217 205 215 213 218 222 227 237 253 237 244 230 215 208 201 196 201 210 220 215 102 233 250 217 204 193 189 191 187 182 198 195 174 190 207 183 203 178 170 191 189
188 189 184 180 197 190 197 201 207 215 206 214 210 219 231 242 279 272 223 236 222 208 83 198 187 211 215 207 237 229 225 226 202 195 186 182 183 188 189 175 190 206 160 195 185 184 178 184 178
187 191 189 192 191 195 198 201 196 204 218 211 216 220 231 168 276 269 256 249 224 209 202 198 189 199 212 155 239 218 222 252 207 189 190 195 177 178 182 187 184 176 195 156 171 181 177 174 188
187 196 187 181 192 205 198 186 210 197 202 204 220 117 126 274 262 261 264 232 241 209 195 184 198 210 207 225 234 210 217 234 203 197 188 197 228 189 173 198 195 196 168 168 165 169 165 166 179
183 194 184 185 188 204 215 215 200 210 220 212 79 214 234 295 258 260 273 227 226 206 192 188 195 207 222 215 226 222 215 199 214 176 199 216 181 181 185 200 150 160 179 201 155 169 185 159 168
194 192 189 198 207 230 206 218 214 208 217 215 215 240 237 268 252 355 257 236 228 203 201 192 187 212 203 196 219 248 216 183 193 201 204 200 195 194 192 170 190 186 189 192 183 184 166 172 172
204 213 213 198 219 205 208 210 215 207 210 137 234 226 264 253 376 323 245 234 219 203 202 183 209 186 200 205 199 240 205 192 192 209 200 192 183 195 186 175 179 183 161 172 167 168 162 162 163
206 206 216 212 207 202 212 218 170 209 220 222 215 232 249 257 376 290 240 222 214 209 203 187 201 173 212 208 215 222 207 202 186 205 191 190 179 184 192 188 188 201 167 162 180 160 157 157 165
211 66 207 205 203 205 221 236 202 200 213 212 236 266 272 376 336 273 235 222 214 205 207 198 200 187 211 203 220 192 246 202 194 187 205 192 191 183 180 191 170 167 179 191 165 165 190 164 173
208 207 205 211 215 207 167 133 223 214 208 231 238 301 267 395 297 253 227 218 210 198 200 199 193 205 192 212 223 240 211 256 197 197 200 185 191 190 182 187 178 189 167 171 174 166 171 177 168
220 214 218 220 213 223 210 113 87 124 246 260 252 275 293 357 277 228 221 213 201 199 200 200 197 203 192 201 220 236 190 217 240 196 193 195 178 187 181 174 177 167 176 171 165 162 166 169 180
223 225 231 231 228 231 227 239 67 72 245 243 230 237 356 297 271 234 223 210 190 204 199 192 197 193 202 214 216 244 216 203 297 230 203 192 191 187 177 181 182 181 182 182 175 163 160 166 162
221 221 221 225 233 228 226 223 229 239 255 263 268 268 385 287 266 234 221 213 183 201 203 191 194 191 205 195 209 211 215 197 269 294 217 195 197 180 187 191 181 176 183 176 170 170 168 169 162
221 220 221 224 231 235 235 241 245 248 271 283 254 313 361 281 250 230 216 213 208 203 202 207 198 201 181 205 203 208 224 222 225 278 219 212 199 191 172 178 186 189 171 173 172 172 172 177 182
232 235 238 241 246 251 249 246 253 262 261 242 256 373 322 270 235 225 220 205 198 200 204 203 210 199 201 204 195 207 224 199 200 259 255 206 209 202 192 211 173 178 180 179 171 192 200 181 173
98 235 244 242 245 251 262 265 268 268 286 261 397 334 287 260 232 224 214 203 202 204 202 203 200 196 207 204 183 194 202 214 210 226 270 206 199 200 202 200 202 201 197 201 210 207 201 193 191

GFSSGP_2pvu_pres_114.txt.gz
Presure
138 129 137 135 131 127 125 124 115 128 130 100 122 123 123 126 127 134 93 126 92 128 98 129 128 130 126 118 124 126 136 118 97 125 130 124 106 110 114 127 91 102 115 105 120 122 79 116 108
153 151 165 180 179 221 194 198 154 163 183 187 220 210 208 182 169 126 125 123 118 117 131 79 132 137 140 135 139 147 140 130 133 123 91 105 104 92 121 101 124 113 118 130 113 121 115 118 109
203 212 213 233 223 216 214 222 228 163 175 209 207 214 198 234 228 244 204 227 234 225 242 121 216 142 120 151 141 136 213 103 199 113 274 109 296 276 303 267 166 117 101 121 159 124 98 116 139
210 197 202 213 224 213 154 160 193 209 220 210 226 237 230 232 234 206 130 253 249 235 222 249 237 241 218 219 227 254 226 281 256 237 114 303 165 168 279 238 274 264 270 258 185 105 257 280 172
206 202 197 196 204 205 217 222 208 218 206 219 216 236 229 233 222 233 241 230 249 247 235 217 215 226 162 241 243 259 263 249 242 254 267 207 168 277 308 291 271 269 259 253 157 247 276 267 278
137 146 150 181 222 220 208 202 172 180 207 210 204 223 223 233 219 261 249 224 235 249 237 237 209 222 208 217 233 168 267 263 248 246 255 220 205 209 214 233 240 164 270 256 180 243 229 204 178
193 161 198 210 205 215 217 215 220 207 203 203 200 221 216 230 223 260 253 211 240 233 233 229 229 220 224 203 229 232 253 247 241 291 262 252 222 230 244 244 143 265 249 136 277 262 242 231 244
151 198 196 197 212 215 214 211 219 201 198 213 202 206 212 219 214 248 246 236 235 224 229 218 223 224 219 215 213 235 260 242 232 289 249 226 241 228 245 241 224 225 263 126 220 281 280 260 248
192 163 177 136 176 207 210 206 201 211 204 218 203 211 220 219 215 216 232 231 222 210 68 219 230 230 221 222 228 245 241 266 236 265 236 232 243 237 264 220 220 227 214 243 225 208 233 229 233
163 190 200 196 131 181 185 205 200 204 207 209 153 232 229 209 214 213 212 218 229 229 226 230 227 218 221 212 214 196 236 232 277 251 242 227 223 232 203 210 207 208 223 210 221 199 222 239 220
194 205 195 149 198 198 199 197 211 209 195 202 211 224 215 202 222 221 223 205 223 234 236 233 226 222 216 205 205 232 228 222 261 156 240 213 227 223 206 228 194 200 207 198 190 191 191 190 209
184 205 200 195 198 196 185 187 194 200 192 213 197 220 219 217 203 223 222 221 191 236 235 201 226 224 206 208 212 226 223 217 259 215 238 207 221 203 215 223 195 188 193 183 192 192 173 183 171
189 186 204 198 181 195 183 200 212 200 200 204 194 208 206 214 211 223 211 224 236 273 228 236 235 223 199 198 214 221 219 223 243 243 224 204 209 201 193 193 192 196 186 212 179 151 174 181 202
200 205 171 191 191 184 195 188 196 194 201 197 200 201 215 219 219 204 217 225 233 269 256 243 242 226 222 193 202 216 237 213 247 210 215 203 201 208 199 195 191 184 184 176 191 174 194 184 189
203 180 192 189 186 197 197 204 198 204 194 179 205 198 218 226 224 209 209 230 233 276 263 238 242 222 104 193 198 212 218 212 241 209 207 194 195 192 186 181 186 180 189 171 167 194 181 174 183
198 201 196 190 186 187 202 72 199 190 190 200 200 206 206 209 223 209 219 229 248 288 283 250 235 226 219 200 208 220 228 240 246 217 212 193 199 190 182 189 178 186 179 181 202 195 170 179 186
190 197 196 194 195 203 190 195 199 191 192 186 194 202 212 219 231 218 223 226 258 277 273 246 232 229 202 201 200 212 216 242 234 219 213 192 187 193 186 190 189 177 188 165 183 184 183 180 176
194 184 204 194 210 198 200 190 205 188 201 191 199 205 211 227 213 212 219 228 265 263 260 246 245 204 212 195 210 202 213 225 218 239 212 194 193 196 198 192 189 172 189 189 193 176 178 178 177
202 186 215 210 206 187 204 212 208 188 186 190 206 216 204 228 216 200 219 229 255 252 272 242 235 216 201 194 207 205 229 213 219 251 211 190 201 191 189 176 183 180 184 175 199 193 160 168 164
200 203 203 198 209 209 205 198 208 203 190 205 200 180 77 87 208 202 220 239 261 251 347 230 227 217 190 197 196 211 225 216 213 224 235 211 191 193 179 192 166 160 182 183 184 192 166 175 202
223 201 227 205 198 213 222 209 203 200 202 209 216 203 230 215 201 212 250 265 263 360 263 231 221 212 197 194 202 204 218 216 207 216 220 236 200 175 196 190 208 183 198 168 182 191 191 161 175
238 215 223 218 217 227 222 134 201 207 201 212 205 208 107 188 226 208 264 284 257 341 236 235 217 209 207 189 209 205 194 215 205 212 194 207 223 183 188 211 189 177 170 170 172 193 166 188 178
232 232 237 224 227 220 227 241 212 208 216 204 199 220 191 232 218 244 265 265 333 319 242 231 214 200 206 193 204 210 231 231 206 208 199 190 193 211 195 204 192 203 202 179 197 194 191 170 172
230 225 163 221 226 228 198 233 223 204 155 185 193 175 225 232 193 242 247 248 330 297 235 224 210 199 205 204 208 200 205 243 226 202 204 204 189 210 200 204 199 190 172 202 170 172 176 168 157
236 227 225 225 228 231 209 219 222 152 110 130 221 219 231 190 237 245 241 308 313 277 232 210 214 183 205 189 202 220 212 241 210 203 202 197 192 196 205 191 200 194 192 182 179 175 182 170 172
234 226 224 224 224 223 224 215 228 96 138 95 207 231 212 220 255 269 255 299 298 261 225 197 213 180 201 199 207 209 209 201 212 198 205 195 199 195 193 195 198 182 184 200 186 178 171 166 189
231 226 229 224 224 222 224 230 226 220 143 98 90 224 222 230 255 282 179 289 281 225 224 214 214 194 201 209 128 203 222 207 242 202 279 212 197 205 190 194 196 193 185 175 164 184 171 170 172
232 230 228 236 231 235 233 230 232 233 227 231 240 247 239 247 275 262 247 288 272 226 221 213 202 197 201 203 198 198 196 213 220 220 197 213 223 200 203 193 193 193 184 187 185 180 176 185 184
236 236 237 237 190 237 252 245 230 228 231 239 241 246 251 266 288 246 304 274 259 221 218 211 197 195 199 190 201 222 223 213 220 218 213 282 282 220 199 194 193 186 189 181 175 182 187 179 180
252 245 249 249 249 253 249 244 238 238 238 242 244 255 261 271 249 277 303 267 245 222 220 208 200 202 195 189 198 207 215 181 219 209 204 264 284 224 208 201 192 187 185 184 175 173 173 189 187

GFSSGP_2pvu_pres_117.txt.gz
Presure
132 115 117 136 139 138 138 137 136 132 135 136 131 135 138 137 137 137 139 124 130 133 128 136 141 137 130 130 122 118 115 125 126 109 130 123 113 108 126 129 123 112 108 117 103 104 108 115 127
111 146 143 135 142 154 156 184 192 183 178 235 225 216 227 182 201 210 202 192 194 169 140 141 143 140 140 125 137 141 129 130 131 136 136 120 140 139 112 134 108 108 99 119 111 100 108 121 121
159 155 172 170 211 214 214 205 209 224 229 219 225 225 214 192 190 236 238 228 250 266 256 239 236 260 206 177 224 213 222 215 214 147 144 151 141 130 134 139 136 117 121 125 147 142 127 143 140
208 217 219 210 217 211 216 208 196 225 218 205 160 180 219 223 214 236 174 172 259 227 265 253 243 160 130 245 239 204 242 206 235 218 214 189 270 228 163 157 173 237 312 263 284 298 134 158 220
209 192 206 207 205 208 203 179 212 220 199 195 150 200 202 205 222 212 235 244 263 265 259 253 228 246 219 252 138 222 203 226 241 249 236 124 157 129 212 208 224 216 250 247 214 140 259 174 129
193 200 208 204 160 200 212 178 136 146 214 216 217 210 207 208 212 194 216 226 243 249 244 253 243 237 240 251 235 213 222 226 223 253 184 260 135 234 215 225 209 216 248 260 280 236 250 234 226
193 196 187 189 193 195 201 146 213 200 190 201 205 206 203 221 209 223 208 226 221 227 244 248 237 240 238 238 232 215 224 220 229 245 210 214 256 237 223 226 213 222 228 228 199 262 275 226 247
142 148 187 196 185 199 179 198 189 214 218 204 210 205 199 209 198 225 211 202 225 214 226 211 249 228 237 231 227 239 227 210 222 244 250 244 268 228 224 231 237 221 223 241 257 246 285 243 241
202 155 171 157 153 167 196 202 208 139 175 211 195 171 169 197 204 212 205 205 202 209 228 226 244 273 225 252 230 232 224 224 200 247 259 236 258 240 239 240 237 234 224 242 235 261 232 220 256
187 173 188 162 192 195 200 174 132 196 180 198 198 211 208 210 206 214 201 200 224 213 216 206 235 242 259 239 245 225 223 221 228 227 239 255 256 253 237 244 229 241 249 208 207 188 194 240 229
194 194 188 193 196 198 196 199 203 193 203 208 209 197 191 200 209 198 199 205 202 209 218 220 208 237 271 241 249 229 224 218 208 245 272 240 245 242 254 215 242 205 212 214 248 205 225 225 188
188 187 189 195 200 205 197 205 199 211 206 208 197 205 202 211 213 201 200 216 202 218 192 220 233 222 286 233 201 232 205 221 213 245 212 230 244 237 216 242 243 200 193 198 205 194 196 188 184
171 195 199 213 202 216 198 193 203 166 204 200 207 186 207 202 182 191 214 198 194 206 198 228 236 239 275 259 181 230 180 204 187 212 217 226 240 218 226 215 203 220 205 181 196 178 191 177 184
203 208 183 182 183 189 193 215 210 188 209 198 195 198 207 210 198 199 205 191 214 202 207 221 241 262 284 263 238 234 213 199 218 249 214 240 223 236 202 217 201 195 181 193 189 185 180 172 191
186 178 187 177 184 191 201 201 198 199 214 202 205 201 205 197 197 209 206 215 214 204 214 214 246 270 265 262 230 234 209 202 191 229 201 248 241 220 208 199 207 185 180 193 183 179 177 187 188
190 193 196 193 190 206 197 194 203 197 191 204 196 200 203 205 182 209 220 192 194 206 204 216 243 274 266 268 246 223 198 207 203 247 216 236 240 220 198 196 184 186 185 183 176 179 181 164 187
203 203 193 201 206 187 201 200 200 203 196 197 196 200 195 205 217 210 200 202 208 203 218 232 243 272 261 252 250 221 199 205 219 183 212 240 237 207 197 193 182 189 177 186 183 180 171 173 196
182 181 191 186 206 191 195 170 204 190 198 197 196 192 205 191 215 202 210 227 204 204 221 229 253 278 255 237 240 159 184 202 206 224 228 237 232 203 208 183 182 189 175 188 168 179 173 187 178
203 207 180 213 199 178 187 189 190 111 191 200 205 204 199 200 201 202 215 219 198 201 206 240 265 275 247 238 235 211 201 201 213 220 208 224 226 221 189 193 187 182 187 183 190 176 162 189 160
195 183 214 203 203 199 190 196 175 205 183 198 203 195 205 204 194 209 215 202 199 211 228 248 297 263 280 241 229 115 197 202 208 219 224 215 234 205 190 197 177 184 180 188 172 172 172 170 176
204 203 174 202 206 203 198 180 197 213 194 207 205 203 199 213 210 143 212 196 211 198 233 252 284 390 260 239 217 200 193 194 207 216 207 220 230 215 193 183 195 192 192 190 189 193 193 155 191
213 211 211 209 215 218 219 227 211 205 208 192 217 210 207 219 215 218 205 205 187 193 240 264 257 382 238 232 215 206 193 183 202 213 204 220 235 205 207 195 189 191 190 182 157 188 178 176 172
223 212 217 217 219 211 195 203 197 236 219 214 211 209 211 219 221 215 196 179 211 187 238 271 289 310 227 230 215 208 194 188 195 209 207 219 223 233 210 188 171 177 176 178 188 175 204 179 181
227 216 219 220 220 218 204 212 232 223 220 216 213 206 208 221 232 227 204 242 233 217 240 280 368 257 228 224 214 206 196 192 202 225 196 219 215 222 213 195 189 179 185 178 190 195 177 177 168
234 223 220 221 223 148 216 220 78 235 219 210 129 128 181 187 228 211 231 226 209 226 252 281 363 237 229 220 208 199 187 210 191 237 205 204 212 206 214 211 189 184 183 180 201 179 166 150 158
231 228 230 226 222 223 219 134 76 234 210 205 97 94 175 203 226 229 228 206 226 246 260 281 325 235 227 211 204 201 193 203 224 203 211 205 212 206 207 204 193 193 208 207 213 205 193 182 178
256 247 248 248 250 242 245 244 230 229 217 116 101 111 217 87 238 237 172 218 245 241 266 294 249 230 221 198 204 200 190 203 217 226 237 208 202 204 203 202 198 196 213 199 192 207 175 188 190
249 249 246 249 248 253 244 244 243 229 219 214 207 137 218 229 230 212 228 239 245 256 234 313 240 228 214 204 204 200 191 191 207 212 200 239 195 199 205 195 204 196 183 193 188 191 188 176 175
248 249 252 252 253 253 116 248 243 235 227 220 218 219 226 151 233 185 234 235 247 264 283 318 233 222 206 204 204 194 194 188 194 219 182 216 225 196 200 192 200 193 201 191 186 193 195 191 183
256 258 251 253 254 251 263 252 239 236 231 230 232 233 228 250 234 232 236 242 257 282 276 318 228 221 211 203 207 198 202 173 206 206 217 228 206 220 206 200 188 206 193 194 193 187 183 184 184

GFSSGP_2pvu_pres_120.txt.gz
Presure
119 130 133 131 129 131 131 130 121 125 137 136 137 137 140 137 134 144 140 144 143 138 141 141 137 121 129 121 114 97 110 116 121 113 121 115 120 119 125 114 117 131 104 107 130 105 104 131 108
140 136 136 139 139 139 143 134 149 151 157 185 159 181 225 226 237 202 171 224 250 231 266 277 206 201 155 148 147 149 148 143 143 130 132 122 108 129 117 123 100 116 116 109 116 119 113 124 128
137 149 150 153 157 158 161 218 211 173 219 215 223 230 231 227 220 213 222 229 238 239 241 259 198 159 243 259 256 254 241 182 138 117 154 149 137 143 143 136 113 141 130 139 151 148 140 134 118
159 157 145 196 221 215 198 213 216 217 213 206 201 196 228 224 230 229 224 214 238 227 166 254 254 274 262 180 255 261 244 242 217 225 254 214 224 211 231 237 169 161 136 133 145 158 153 89 134
216 224 205 215 216 220 129 202 211 202 203 216 203 216 222 219 203 183 154 177 234 232 230 231 245 256 253 257 253 246 261 250 225 223 228 243 282 193 136 228 216 213 215 225 193 244 156 195 285
177 199 213 195 205 205 182 198 184 181 204 203 204 197 225 150 177 207 216 212 217 213 225 233 232 222 246 246 241 240 243 116 243 233 243 246 257 249 221 202 224 176 162 228 217 227 251 247 261
198 185 150 180 199 204 207 203 143 168 187 187 200 197 210 228 213 217 198 177 213 204 163 221 216 220 240 215 220 244 235 264 235 235 215 207 205 255 248 228 220 218 208 220 221 215 212 213 214
146 212 204 197 195 191 179 150 147 177 151 198 191 200 170 221 215 201 146 197 200 216 200 206 221 233 234 224 252 262 236 241 230 231 230 216 241 219 240 237 251 215 236 228 238 260 218 231 267
196 170 169 163 188 158 140 201 198 188 192 187 184 199 203 210 137 149 200 215 188 197 195 207 218 217 229 237 232 239 264 221 233 219 229 230 245 228 228 231 247 223 249 225 230 219 229 231 252
200 197 192 194 200 193 197 197 186 194 196 201 204 202 207 170 217 205 198 211 203 209 194 198 210 221 212 218 230 240 285 256 257 228 224 230 235 211 245 222 238 217 221 231 223 214 249 225 224
190 184 187 196 195 197 191 195 200 203 206 214 215 207 189 213 210 207 216 195 200 191 184 179 189 179 219 226 238 235 310 252 256 226 225 210 241 252 252 242 257 240 243 223 230 218 209 204 201
200 193 206 203 197 200 196 201 204 199 209 209 201 196 194 201 203 191 208 209 184 207 199 199 190 220 218 198 236 254 315 246 225 220 226 207 218 229 239 247 241 229 235 238 209 195 217 208 221
183 168 196 197 198 202 198 199 165 146 189 186 198 202 210 214 200 204 185 208 199 190 202 200 193 195 225 210 247 255 312 258 242 220 206 225 195 221 237 233 247 230 217 202 194 193 201 200 194
201 196 168 180 170 198 192 156 205 184 194 193 190 201 209 203 200 207 195 194 197 214 207 178 193 218 222 228 228 254 301 259 238 215 218 225 202 221 235 234 229 220 202 225 180 184 196 173 185
193 186 186 195 188 186 173 178 183 185 187 200 143 207 200 201 201 191 201 214 210 184 214 182 198 211 180 220 248 256 290 233 233 212 214 196 248 214 143 237 233 205 196 194 188 179 172 172 181
174 183 193 180 188 192 194 190 191 192 191 179 197 199 199 207 202 201 210 204 205 214 199 213 213 213 219 231 245 264 289 249 232 216 209 203 238 210 249 232 232 216 195 213 173 189 184 186 170
201 201 200 189 198 194 193 193 190 189 206 199 210 195 202 201 209 195 196 208 199 187 211 212 209 208 215 230 247 289 285 253 224 214 205 205 231 221 250 227 208 188 225 174 175 177 177 189 168
199 208 203 201 205 177 200 196 196 194 195 185 189 187 190 195 190 194 186 203 213 205 194 211 206 215 215 226 253 290 281 251 217 212 212 245 226 213 246 207 197 202 189 189 168 174 178 174 162
217 194 199 201 205 196 211 200 208 209 206 189 185 200 194 202 200 200 228 209 210 192 215 216 199 194 228 246 256 273 245 253 216 206 206 214 229 222 244 197 201 182 180 175 180 180 186 177 171
210 206 207 202 198 201 190 195 198 195 173 197 200 203 201 200 199 190 203 207 209 211 182 168 205 222 226 245 257 257 243 238 212 207 205 223 240 213 237 205 195 190 180 180 172 184 178 186 163
224 216 220 210 202 202 209 202 197 203 206 178 195 189 203 193 203 189 213 196 216 215 223 212 224 202 227 248 263 283 246 226 180 203 203 223 230 227 232 214 194 182 185 177 180 186 175 172 181
218 211 224 217 210 203 205 196 197 199 143 203 198 202 192 206 217 215 209 213 211 217 219 225 194 187 239 248 268 357 247 219 209 202 201 214 213 210 221 216 193 193 185 176 178 187 182 186 167
240 231 228 218 218 215 207 214 211 211 202 204 206 205 206 215 212 205 228 221 220 211 223 221 185 167 248 251 286 324 245 216 204 199 200 215 220 205 255 220 203 190 183 182 190 179 177 166 172
241 231 229 224 217 216 211 218 210 211 168 208 210 209 199 195 197 201 230 221 223 169 101 233 170 225 238 258 394 271 238 212 206 108 196 207 216 205 203 227 213 193 184 200 192 181 193 182 180
256 240 236 228 222 215 214 215 216 184 218 208 209 206 194 169 186 186 226 223 217 214 193 202 218 202 237 261 370 237 227 211 205 194 193 213 214 204 218 226 202 195 185 178 175 191 190 150 188
273 247 243 237 233 226 230 230 224 223 169 210 210 159 175 211 145 232 223 227 230 216 201 202 219 183 236 263 338 220 219 210 205 194 195 173 213 205 211 225 214 195 194 182 180 174 176 178 180
264 261 278 260 259 248 259 251 239 220 86 98 210 208 129 88 85 96 213 224 224 232 222 221 243 225 254 286 305 222 217 213 198 191 192 207 204 210 197 207 221 198 196 193 181 185 178 188 163
261 260 255 264 253 252 251 251 236 163 224 220 219 194 133 108 105 226 163 221 225 223 193 165 231 235 254 295 256 226 217 210 196 193 202 216 220 203 204 197 204 215 215 192 191 189 179 189 172
258 264 257 254 261 249 238 241 252 247 232 227 225 223 228 233 115 224 109 226 226 224 200 212 229 239 259 302 233 222 209 206 195 193 194 220 191 216 183 200 194 200 195 195 209 202 192 185 182
267 257 264 194 250 252 260 257 261 254 248 246 247 248 241 235 137 112 222 161 224 225 229 237 221 216 263 314 228 216 203 205 201 194 195 235 207 197 207 193 201 192 192 204 200 198 198 207 187

GFSSGP_2pvu_pres_123.txt.gz
Presure
130 131 133 131 131 132 126 117 115 133 134 129 136 136 135 141 135 133 136 140 138 140 146 173 146 152 136 144 124 123 122 117 124 116 106 114 115 98 118 116 93 122 123 108 128 122 92 116 113
140 135 137 139 138 143 142 140 138 139 138 144 146 146 152 150 189 182 226 232 233 227 226 183 257 244 283 204 266 258 262 202 155 151 145 143 139 141 135 133 125 125 121 110 117 124 118 119 112
150 150 150 149 147 143 138 132 147 143 156 159 225 212 221 215 209 213 225 209 213 226 228 237 252 264 255 231 278 266 258 267 258 231 238 250 205 138 137 147 140 146 147 136 145 98 124 105 93
157 155 156 157 158 157 160 156 222 211 209 207 208 216 204 212 217 203 211 233 219 224 223 216 218 165 159 159 162 164 166 179 255 206 264 251 258 234 228 209 84 146 142 91 128 162 161 157 156
227 218 225 212 205 209 215 216 212 199 216 212 199 203 211 202 207 208 202 230 230 229 214 152 170 233 223 249 216 230 257 268 267 259 268 255 240 243 258 237 227 216 191 148 213 226 211 182 166
223 209 204 212 207 207 203 205 167 143 196 199 191 192 195 194 191 192 200 181 225 218 226 204 209 225 216 181 241 158 250 242 246 275 253 255 243 252 216 217 213 226 205 204 218 221 214 239 129
219 159 157 208 203 212 204 207 207 206 149 186 188 205 178 192 151 148 184 191 205 221 220 224 199 174 159 201 205 216 229 248 260 282 260 268 242 228 242 201 206 227 219 216 227 218 216 217 221
205 211 209 207 201 203 205 201 197 203 175 191 184 149 149 156 193 188 157 210 215 222 213 200 142 200 151 210 214 223 241 240 245 233 289 260 242 232 238 228 220 222 221 138 214 217 225 226 228
194 210 206 197 200 202 212 205 201 192 185 193 189 197 193 152 197 216 215 206 200 194 212 235 212 211 212 211 199 205 246 198 247 240 224 249 235 236 249 228 215 234 221 197 226 209 223 227 225
200 197 193 195 199 198 194 204 200 154 194 198 185 181 192 202 200 219 212 191 200 193 183 203 219 197 201 217 201 187 217 221 216 254 329 255 245 238 242 236 212 210 219 223 227 204 238 230 236
201 202 199 178 195 193 131 197 194 194 187 197 201 190 187 197 212 205 210 203 199 201 207 199 220 207 200 216 210 187 158 183 219 246 328 269 237 223 242 224 220 254 214 204 219 230 235 229 215
200 194 205 183 204 199 194 203 203 204 200 204 206 210 200 202 205 187 193 201 207 197 187 193 207 202 197 207 130 215 188 177 235 269 315 265 239 202 200 225 212 250 240 229 227 228 203 213 199
186 200 200 180 199 161 189 180 205 176 189 195 182 206 203 211 191 194 189 198 205 207 197 208 205 208 194 198 204 193 210 204 129 265 307 248 236 228 204 196 219 232 252 218 216 228 230 201 210
175 194 185 185 196 194 192 178 169 162 185 193 192 177 210 162 185 183 203 202 200 203 193 181 202 193 209 204 190 207 208 222 230 265 299 199 228 225 202 198 205 224 240 236 229 223 201 198 206
136 198 206 201 139 158 193 136 186 140 195 160 192 187 189 182 193 199 191 201 205 204 202 191 204 214 212 219 184 166 176 237 230 279 100 248 226 215 232 202 225 209 228 234 219 201 192 201 207
164 204 134 214 208 188 194 182 186 188 192 156 197 191 196 197 194 191 204 213 189 202 203 202 192 199 204 217 204 169 221 240 229 280 296 251 228 217 220 207 216 222 226 204 198 221 185 189 187
172 161 207 196 208 127 192 199 195 188 180 190 188 195 196 196 196 206 207 184 205 190 182 210 210 203 195 213 197 213 220 225 253 287 278 249 226 218 185 248 213 230 221 205 210 202 176 186 171
181 197 203 222 216 211 209 199 133 201 204 199 191 201 201 193 189 201 213 193 194 196 198 199 204 202 188 215 202 161 185 230 254 281 237 242 224 218 206 229 203 244 221 192 194 178 181 169 181
237 234 235 216 199 223 187 195 202 198 193 192 206 205 199 204 208 209 202 203 186 201 196 204 189 205 206 157 206 201 225 229 266 273 253 229 225 207 216 227 225 249 219 192 184 182 171 171 181
236 232 234 224 207 218 217 214 200 204 204 196 183 198 215 196 202 199 189 209 206 207 196 202 192 203 159 210 180 227 219 232 269 273 252 226 224 208 247 212 229 248 204 204 210 174 175 171 171
236 226 219 207 218 230 218 211 198 205 200 198 197 177 195 201 202 193 199 199 183 195 197 190 219 206 191 186 194 172 217 229 275 282 245 223 220 208 200 215 230 212 194 198 204 171 180 169 171
253 253 237 224 228 230 219 219 212 212 212 207 202 205 198 198 200 203 192 202 196 192 205 211 216 192 219 214 152 242 225 252 270 291 240 222 217 208 222 238 229 207 194 202 183 182 173 170 182
296 264 256 240 233 225 229 218 212 213 218 217 215 207 201 200 195 200 205 200 201 198 208 204 210 199 224 155 224 229 187 254 271 353 233 221 212 210 217 212 228 202 189 193 186 169 172 177 172
274 288 304 281 237 233 220 217 213 214 213 221 218 211 207 202 200 203 203 201 195 202 211 198 194 206 226 221 218 242 215 253 324 283 228 216 207 198 213 215 229 202 201 182 173 180 177 175 178
270 271 287 293 301 225 219 222 221 217 210 214 220 212 209 203 203 204 204 204 201 206 204 198 202 214 224 194 221 215 218 255 319 250 223 216 179 203 215 201 202 216 194 192 183 179 180 166 169
268 272 266 279 283 277 269 239 227 221 230 228 220 210 209 202 198 166 183 209 210 210 198 98 201 210 226 222 225 178 250 267 233 240 220 212 199 192 204 196 212 247 215 189 187 185 180 175 176
267 268 260 267 274 279 270 264 253 243 233 222 218 217 201 210 210 136 210 217 213 203 210 210 209 160 224 232 229 220 241 267 357 230 214 209 199 195 207 205 206 237 219 195 184 182 183 181 192
269 267 258 258 270 272 269 259 256 241 235 227 220 100 218 163 181 175 84 91 169 99 211 214 220 213 189 188 234 240 238 244 245 224 213 204 199 209 203 210 203 222 218 196 195 187 168 165 179
332 265 268 259 267 269 260 266 255 248 244 239 227 221 224 223 222 229 221 112 108 138 212 216 233 193 174 226 226 245 231 272 228 222 210 203 199 202 194 205 202 201 217 204 193 191 183 187 163
325 333 267 261 243 256 260 253 260 261 251 252 256 249 256 244 222 230 171 130 118 117 223 225 234 231 209 223 234 248 257 275 220 221 208 200 188 196 214 204 208 203 221 201 193 183 189 184 182

GFSSGP_2pvu_pres_129.txt.gz
Presure
125 129 125 127 126 126 125 121 124 122 122 118 130 128 127 132 133 130 133 138 140 140 138 134 136 138 148 169 154 154 224 227 155 125 127 123 118 123 109 109 118 124 131 116 129 98 111 86 110
141 138 140 139 132 127 133 140 131 132 134 132 138 143 144 144 148 156 148 140 122 129 150 186 179 195 221 214 206 249 248 209 234 239 257 287 270 288 301 257 235 136 116 119 109 138 127 103 113
151 147 146 142 141 142 146 148 150 141 143 150 153 152 162 162 153 155 205 204 216 215 218 215 209 211 206 229 202 182 234 234 237 233 227 217 258 281 277 307 283 252 250 218 97 115 129 142 142
171 162 164 164 162 163 170 205 160 220 215 214 231 208 227 209 223 216 214 215 209 221 211 205 205 195 213 215 196 203 242 247 206 165 164 164 224 187 173 261 290 173 253 242 223 227 171 161 141
236 200 161 187 208 259 260 212 204 172 234 226 228 217 224 220 204 217 215 211 204 211 204 203 165 174 214 205 235 210 152 166 226 223 222 229 227 219 172 254 235 250 247 177 170 246 207 208 224
236 237 223 152 230 224 219 242 246 191 231 217 188 216 199 179 215 198 206 209 206 205 202 207 204 186 194 163 157 191 227 213 234 196 217 223 235 233 248 261 207 226 231 239 236 165 203 203 149
202 221 118 150 150 161 222 221 236 238 222 216 213 215 215 219 176 163 162 152 212 201 202 198 189 191 195 227 213 213 219 228 229 221 226 210 225 193 241 283 237 220 264 244 221 228 211 238 227
166 240 214 177 147 144 148 212 206 154 215 213 211 207 203 211 211 207 200 201 199 197 196 183 192 194 194 220 208 217 220 214 213 222 226 217 236 222 216 261 243 231 274 256 222 206 226 228 207
202 141 187 197 206 223 221 176 195 205 212 201 197 201 199 206 147 209 197 197 197 178 192 199 188 183 199 209 208 202 207 214 218 222 216 190 215 168 173 233 227 274 236 250 212 205 206 207 213
184 204 193 190 185 148 170 199 211 210 156 185 198 198 183 189 200 198 197 193 192 192 198 190 212 203 198 218 204 193 196 213 217 154 219 231 192 187 247 177 152 281 285 241 228 202 207 206 204
195 202 203 198 194 183 185 181 202 155 190 191 205 199 197 194 191 196 202 201 184 189 183 192 209 208 209 207 200 194 212 210 213 211 188 217 134 157 165 209 248 327 280 255 215 215 203 195 202
199 177 191 192 190 183 185 181 179 189 188 194 176 201 127 200 210 207 202 200 200 197 198 186 201 152 212 193 162 191 154 207 137 136 202 202 191 160 135 254 240 313 228 260 232 222 205 192 197
188 163 180 179 185 191 199 201 173 170 188 182 184 165 199 196 198 205 214 206 177 186 201 189 187 150 182 186 181 175 200 214 206 203 207 193 209 150 193 250 252 298 264 246 193 249 202 197 225
184 170 194 176 135 197 172 125 198 172 130 127 194 181 186 185 189 200 183 191 198 208 166 185 184 191 197 200 202 177 202 193 166 106 180 177 215 218 233 238 251 299 265 234 195 207 231 229 236
192 182 188 179 131 194 188 195 201 201 175 156 189 73 74 184 177 178 199 192 185 169 202 203 190 175 152 191 211 183 188 199 202 201 185 211 188 191 179 235 244 295 254 227 202 190 200 204 221
168 195 169 195 197 177 137 202 197 170 207 207 183 226 216 177 203 186 164 190 194 201 191 212 190 180 185 180 189 195 188 191 203 195 208 186 189 220 226 240 240 291 244 123 210 202 197 193 202
193 179 197 191 192 182 186 188 204 206 206 202 188 175 212 201 213 197 170 184 156 197 190 193 181 189 187 183 199 193 207 212 204 206 206 205 198 226 219 249 237 292 233 224 212 212 196 201 213
187 185 204 195 199 210 202 215 209 212 205 205 213 216 208 221 221 218 202 213 172 197 192 181 185 175 196 199 215 206 208 181 198 198 198 201 207 233 227 248 233 292 229 223 203 200 208 193 234
213 218 219 217 218 231 234 224 228 65 238 248 233 230 229 236 225 222 200 212 217 212 212 191 165 172 209 211 208 180 185 179 165 207 195 170 160 143 236 230 246 288 247 220 204 200 214 201 224
245 224 223 237 264 306 296 343 329 307 233 290 278 264 255 247 224 221 218 218 181 181 206 203 210 214 216 214 213 188 197 193 198 195 195 173 226 218 235 228 252 278 220 222 204 205 194 199 203
257 220 232 251 297 293 324 329 324 305 291 278 264 266 265 243 229 223 224 220 208 199 192 200 200 195 192 194 197 187 162 201 200 176 202 201 183 165 243 218 261 280 247 227 210 198 196 205 226
233 271 228 287 298 286 314 314 312 306 293 276 265 251 252 243 233 224 226 217 206 206 200 201 204 200 195 197 192 193 200 193 204 209 208 210 209 221 245 221 246 223 226 221 212 200 225 204 203
264 289 289 292 293 298 311 292 309 76 291 278 263 251 246 240 242 241 83 218 89 212 200 194 197 204 202 194 198 195 199 199 198 199 204 201 183 145 234 233 239 213 218 223 200 200 199 201 232
285 280 282 281 300 304 92 116 164 276 282 285 282 259 242 239 234 235 238 226 214 210 203 199 202 203 197 199 201 203 199 204 201 179 194 205 200 219 237 245 240 228 226 213 198 215 215 226 240
270 282 299 305 304 299 288 270 91 160 253 279 287 282 241 235 228 231 231 230 214 215 204 203 79 205 201 200 205 206 201 204 201 208 210 201 205 213 232 233 233 258 233 205 201 206 212 199 241
287 309 295 289 302 355 214 263 74 69 270 78 273 287 274 237 230 226 225 217 221 215 204 211 216 209 212 207 205 209 210 205 194 201 202 194 201 213 228 211 225 263 217 205 200 197 242 219 231
303 300 325 339 335 332 340 315 380 273 275 92 262 273 289 260 238 223 220 221 221 216 214 212 209 211 203 211 208 210 208 205 183 206 195 178 218 213 236 235 222 251 222 195 204 219 207 226 215
397 395 410 331 315 313 321 324 363 347 269 268 262 267 274 282 258 233 225 220 218 214 213 215 208 209 199 203 194 203 207 202 200 204 200 210 197 215 240 239 221 246 206 195 203 213 203 226 203
417 405 401 425 343 306 302 309 312 372 254 267 269 263 263 269 279 249 166 226 221 222 219 213 147 126 135 169 202 184 165 203 202 174 199 206 208 188 239 230 225 243 202 189 194 210 195 226 202
404 381 369 327 334 352 305 301 300 326 270 265 249 259 258 259 274 274 266 96 97 225 224 217 214 150 185 201 206 209 203 203 210 182 215 160 189 145 240 228 227 235 203 192 195 202 220 218 214

GFSSGP_2pvu_pres_132.txt.gz
Presure
129 126 125 126 120 121 126 129 136 126 123 118 125 128 130 135 131 131 137 137 137 110 117 136 119 131 136 136 131 109 115 124 115 126 111 127 178 128 113 100 115 124 120 111 129 127 117 111 82
138 136 134 132 129 129 134 136 125 133 133 134 139 132 128 137 123 133 128 125 122 141 147 151 169 176 193 227 133 151 173 181 135 174 234 251 235 245 245 239 173 193 135 116 130 130 111 134 119
148 147 144 138 141 143 149 150 148 145 150 147 149 154 151 150 151 151 134 152 198 203 227 224 214 218 196 220 219 216 227 244 239 212 233 250 246 228 228 245 226 237 252 297 284 239 247 212 165
149 154 156 142 141 143 148 150 164 164 143 158 163 175 175 215 204 233 230 222 224 226 217 216 218 216 216 217 217 218 220 204 166 226 230 249 243 240 234 235 240 239 287 209 282 246 242 240 240
243 150 181 193 189 235 229 164 161 246 244 242 254 241 246 238 212 203 204 221 218 217 216 216 212 213 209 212 208 206 211 211 178 226 228 208 214 204 152 179 231 238 191 185 265 260 229 228 226
167 193 237 232 172 176 166 214 210 232 235 142 149 167 216 227 225 214 211 218 214 214 216 212 203 213 203 209 207 202 202 218 202 229 178 189 160 152 233 207 228 205 268 256 279 148 151 151 228
143 146 140 194 158 158 200 208 232 125 127 119 143 151 236 231 220 212 212 197 215 187 209 208 206 202 196 199 194 201 206 196 217 213 217 222 230 224 219 211 202 223 248 267 174 287 239 227 218
215 231 116 224 222 200 186 150 154 244 234 225 157 161 203 220 221 214 204 167 162 203 210 200 201 195 197 197 194 196 193 210 209 213 207 203 236 208 227 241 231 174 181 219 293 244 238 228 236
210 208 162 204 206 203 203 191 201 185 139 218 226 188 185 202 209 176 198 194 193 207 187 207 195 199 194 193 195 204 210 211 216 207 208 216 205 169 228 211 236 169 214 267 226 241 235 227 217
204 202 192 200 195 190 192 194 197 197 191 201 203 167 208 209 204 207 186 194 186 188 178 200 179 197 193 191 196 202 204 203 205 202 199 207 201 223 166 214 185 169 171 107 149 126 184 186 137
198 196 199 195 192 192 184 192 201 199 190 190 186 190 189 189 198 213 212 208 194 198 191 195 203 202 192 183 181 199 192 211 199 190 194 143 195 212 162 163 205 189 169 122 317 283 259 219 239
200 194 137 191 194 168 194 189 175 176 177 181 185 183 180 176 191 202 204 209 201 208 202 203 203 198 202 198 202 199 189 178 169 188 199 188 154 198 217 218 160 227 188 233 285 135 149 226 243
188 214 170 191 181 190 187 164 186 191 190 167 197 200 179 172 183 111 176 187 197 192 201 213 211 203 197 186 190 176 194 200 190 226 196 182 197 214 191 216 195 201 239 239 235 261 248 245 239
217 198 199 166 183 186 183 184 177 148 197 195 196 206 208 204 206 185 193 179 179 179 176 184 194 183 188 203 190 185 184 195 200 190 204 173 78 218 177 203 197 209 229 245 294 255 233 231 236
201 203 207 193 141 197 153 200 192 166 187 197 202 177 160 182 182 200 129 154 185 177 174 181 169 196 183 187 194 202 192 93 190 202 199 97 213 177 220 215 189 168 198 245 283 251 218 229 205
190 191 190 187 184 143 145 177 171 166 167 176 186 195 196 190 173 190 197 212 192 196 187 165 177 176 175 181 195 189 212 187 211 191 199 215 209 204 213 204 229 226 230 232 265 242 218 223 196
185 168 187 179 188 194 183 156 194 190 190 185 184 197 192 200 197 148 204 206 215 196 212 210 177 169 164 150 196 200 205 198 187 185 194 212 210 187 191 197 212 223 229 225 303 229 222 215 207
189 193 183 176 198 105 205 209 203 199 209 207 202 197 201 211 208 209 209 209 213 220 222 211 185 184 180 199 176 175 190 187 179 189 191 213 202 193 209 194 190 205 235 239 322 224 225 216 213
202 212 203 176 211 110 227 230 224 222 230 81 256 229 217 217 223 225 217 209 215 214 235 209 218 180 197 167 167 190 177 167 180 198 172 214 173 202 210 193 203 178 183 144 215 227 226 213 208
210 217 219 218 215 217 211 235 215 175 65 232 266 243 243 266 259 256 243 241 238 230 218 214 216 216 191 211 169 178 179 180 172 173 225 189 198 208 210 203 201 183 217 226 268 225 223 212 207
215 219 222 220 206 208 197 203 210 215 250 283 329 268 270 328 314 281 282 252 243 227 230 230 231 216 195 201 203 200 203 204 214 208 189 186 200 181 211 208 163 196 217 232 269 247 215 211 203
222 216 239 221 191 186 197 212 108 289 305 320 309 294 313 309 302 289 292 288 270 255 247 240 239 216 192 207 200 198 183 194 205 199 201 190 197 191 155 211 203 216 210 190 264 240 222 213 203
215 218 208 213 218 224 210 215 291 88 296 299 298 282 291 297 294 296 274 274 271 264 263 248 238 220 216 213 200 193 195 190 190 193 194 192 200 184 203 210 207 221 216 241 225 226 229 216 203
214 202 206 225 261 280 289 290 227 230 320 167 283 184 283 280 302 286 270 268 263 258 167 240 229 219 215 213 205 207 199 193 195 195 201 194 207 197 210 213 178 209 218 231 224 212 217 215 205
181 229 222 246 283 286 217 301 69 152 112 106 125 163 277 273 289 287 266 260 256 250 246 231 226 216 215 211 206 208 207 194 200 197 201 195 200 200 199 210 190 206 223 230 219 213 213 223 208
233 281 285 292 293 300 313 318 313 86 80 73 80 172 282 276 273 279 275 261 256 245 239 235 231 226 223 209 95 209 194 202 203 199 198 193 174 214 201 212 157 208 209 227 220 227 222 221 191
282 254 288 286 305 317 310 305 377 373 366 351 90 275 288 281 277 271 287 270 253 240 234 235 227 231 225 218 210 210 194 203 207 200 199 207 206 211 195 201 212 214 217 226 216 233 235 209 197
283 290 302 317 321 394 388 345 399 408 346 327 356 402 275 283 278 270 276 292 257 241 232 228 226 231 227 222 216 209 205 207 207 209 197 205 163 177 205 135 194 217 211 240 222 234 234 213 199
300 319 422 458 396 396 410 332 336 361 337 318 304 343 276 269 272 270 269 276 271 247 234 225 221 229 223 224 219 213 205 205 215 205 203 202 213 207 194 207 202 196 205 216 229 253 216 203 206
410 437 421 411 377 355 365 340 323 332 311 336 278 275 270 268 265 268 270 283 290 177 136 228 225 226 227 221 216 217 213 213 214 201 195 201 210 200 204 207 172 209 216 245 235 243 215 197 198